     2.10           OBSERVATION DATA    G (GPS)             RINEX VERSION / TYPE
teqc 2000Feb29 simon 20020108 09:28:50UTC                   PGM / RUN BY / DATE
Solaris 2.7|Ultra 2|cc SC5.0|=+-|*Sparc                     COMMENT
BIT 2 OF LLI FLAGS DATA COLLECTED UNDER A/S CONDITION       COMMENT
7085                                                        MARKER NAME
7085                                                        MARKER NUMBER
DK_ -Unknown-                                               OBSERVER / AGENCY
496 ASHTECH Z-XII3 4J30                                     REC # / TYPE / VERS
965 ASH701933_M                                             ANT # / TYPE
 -2353394.0000 -4641529.0000  3676899.0000                  APPROX POSITION XYZ
        1.5044        0.0000        0.0000                  ANTENNA: DELTA H/E/N
     1     1                                                WAVELENGTH FACT L1/2
     7    L1    L2    C1    P1    P2    S1    S2            # / TYPES OF OBSERV
    30.0000                                                 INTERVAL
SNR is mapped to RINEX snr flag value [1-9]                 COMMENT
L1: 1 -> 1; 90 -> 5; 210 -> 9                               COMMENT
L2: 1 -> 1; 150 -> 5; 250 -> 9                              COMMENT
Original height was 1.5780                                  COMMENT
New height found assuming measured height 1.5780            COMMENT
and assuming radial 0.1737 vertical -0.0640                 COMMENT
  2001    12    19    20     3    0.0000000     GPS         TIME OF FIRST OBS
                                                            END OF HEADER
 01 12 19 20  3  0.0000000  0  9G28G 2G27G26G 7G 8G10G11G13
    -25543.37349    -15472.39147  17620390.925    17620392.654    17620402.804
       237.000         206.000
     28131.31259     17089.42157  18201388.576    18201390.049    18201402.079
       240.000         209.000
     32636.45759     19667.04657  17872490.703    17872492.706    17872505.116
       236.000         205.000
    -62168.08555                  20871417.959
       220.000         154.000
    -66626.28549    -36545.25446  19339867.426    19339869.912    19339886.438
       229.000         186.000
    -16953.43159    -10168.28557  16823774.385    16823775.360    16823786.306
       236.000         208.000
     37675.44055                  21923068.776
       217.000         142.000
    -11596.54943                  20832619.198
       212.000          74.000
     37245.29553                  20979426.636
       214.000          74.000
 01 12 19 20  3 30.0010000  0 10G28G 2G27G26G31G 7G 8G10G11G13
    -48512.07049    -33370.06447  21213530.468    21213531.273    21213541.652
       238.000         206.000
     48634.63049     33065.98947  21802800.419    21802801.177    21802813.244
       240.000         209.000
     62008.45149     42554.19247  21475590.620    21475591.562    21475603.964
       239.000         205.000
   -190140.16349   -134141.43845  24451351.454    24451351.749    24451369.257
       218.000         153.000
     33238.04453                  24238544.236
       215.000          74.000
   -168070.46349   -115592.49446  22918073.668    22918075.037    22918091.770
       230.000         187.000
    -29081.65149    -19618.87147  20418976.401    20418976.890    20418987.874
       237.000         208.000
    119678.38449     81300.05745  25531231.680    25531230.015    25531255.952
       208.000         153.000
    -55839.97345                  24419323.007
       214.000         153.000
    117769.32745                  24596602.375
       217.000         145.000
 01 12 19 20  4  0.0010000  0 10G28G 2G27G26G31G 7G 8G10G11G13
    -71383.20349    -51191.70847  21209178.510    21209179.019    21209189.451
       238.000         207.000
     69118.40049     49027.32847  21806698.734    21806699.207    21806711.208
       242.000         210.000
     91600.99949     65613.20547  21481222.196    21481222.839    21481235.371
       237.000         205.000
   -282363.43059   -206003.52155  24433802.063    24433802.561    24433820.367
       215.000         155.000
    105500.09445                  24256189.382                    24256208.768
       215.000         152.000
   -269457.76949   -194595.43446  22898780.604    22898781.476    22898798.388
       229.000         184.000
    -41004.99649    -28909.80547  20416707.665    20416707.954    20416718.981
       237.000         209.000
    175683.32159    124940.02455  25541889.139    25541887.452    25541917.384
       213.000         155.000
   -146226.47249    -99983.40645  24408543.015    24408542.215    24408562.879
       214.000         160.000
    198247.98345                  24616256.995                    24616276.977
       219.000         150.000
 01 12 19 20  4 30.0010000  0 10G28G 2G27G26G31G 7G 8G10G11G13
    -94147.45549    -68930.07247  21204846.728    21204847.104    21204857.555
       237.000         206.000
     89575.87149     64968.16347  21810591.951    21810592.220    21810604.180
       241.000         210.000
    121405.22749     88837.16247  21486893.985    21486894.468    21486907.019
       237.000         205.000
   -374406.23349   -277724.97045  24416286.840    24416287.290    24416305.267
       215.000         156.000
    246931.76749    177832.25245  24273853.728    24273853.118    24273870.729
       207.000         151.000
   -370747.33949   -273522.20746  22879505.743    22879506.442    22879523.606
       226.000         183.000
    -52716.68849    -38035.81247  20414479.121    20414479.328    20414490.362
       237.000         209.000
    231686.29749    168578.52645  25552546.346    25552544.890    25552573.927
       213.000         153.000
   -202724.22949   -144007.58645  24397791.925    24397792.727    24397812.597
       212.000         160.000
    377673.99349    278650.76645  24635892.881    24635895.398    24635911.657
       219.000         153.000
 01 12 19 20  5  0.0010000  0 10G28G 2G27G26G31G 7G 8G10G11G13
   -116721.50649    -86520.23147  21200551.110    21200551.415    21200561.872
       238.000         206.000
    110090.52549     80953.55947  21814495.950    21814496.082    21814508.014
       241.000         210.000
    151505.58449    112291.88147  21492622.095    21492622.423    21492634.992
       236.000         204.000
   -466181.94849   -349238.30845  24398822.197    24398822.670    24398840.941
       217.000         155.000
    339929.58959    250297.82455  24291550.793    24291550.637    24291569.284
       212.000         157.000
   -471852.88249   -352305.56446  22860265.824    22860266.552    22860283.798
       228.000         185.000
    -64131.31449    -46930.33647  20412307.075    20412307.220    20412318.219
       236.000         209.000
    287768.58849    212278.84245  25563218.900    25563217.370    25563246.157
       212.000         151.000
   -258982.10149   -187844.84745  24387086.368    24387086.971    24387106.938
       212.000         161.000
    480842.18459    359041.17055  24655525.712    24655527.186    24655544.062
       218.000         153.000
 01 12 19 20  5 30.0010000  0 10G28G 2G27G26G31G 7G 8G10G11G13
   -139129.97549   -103981.36547  21196287.065    21196287.267    21196297.682
       239.000         207.000
    130637.90149     96964.44347  21818406.072    21818406.119    21818418.079
       241.000         210.000
    181878.68749    135959.12847  21498402.035    21498402.266    21498414.835
       236.000         204.000
   -557711.86449   -420560.13545  24381404.355    24381404.861    24381423.097
       216.000         156.000
    433072.08149    322876.11545  24309275.319    24309275.300    24309293.448
       208.000         155.000
   -572795.99049   -430962.35046  22841056.999    22841057.642    22841074.853
       230.000         185.000
    -75271.41849    -55610.94847  20410187.264    20410187.344    20410198.288
       237.000         209.000
    343903.32349    256020.03245  25573901.024    25573899.774    25573928.482
       213.000         152.000
   -315021.35649   -231511.74345  24376422.386    24376422.952    24376442.945
       211.000         162.000
    583968.02349    439398.56645  24675150.332    24675151.234    24675168.123
       218.000         155.000
 01 12 19 20  6  0.0010000  0 10G28G 2G27G26G31G 7G 8G10G11G13
   -161396.01849   -121331.51047  21192050.074    21192050.227    21192060.583
       239.000         207.000
    151194.92049    112982.83947  21822317.986    21822317.974    21822329.955
       242.000         210.000
    212502.24349    159821.55147  21504229.596    21504229.764    21504242.328
       237.000         203.000
   -649016.19749   -491706.14445  24364029.420    24364030.037    24364048.419
       216.000         156.000
    526333.50849    395547.10745  24327022.692    24327022.453    24327040.408
       211.000         155.000
   -673597.38549   -509508.68846  22821875.259    22821875.762    22821892.821
       229.000         185.000
    -86158.76549    -64094.59747  20408115.570    20408115.570    20408126.474
       237.000         208.000
    400064.78249    299782.06445  25584588.892    25584587.387    25584615.805
       218.000         154.000
   -370862.02949   -275023.89445  24365796.159    24365796.713    24365816.804
       212.000         162.000
    687026.31249    519703.32545  24694761.710    24694762.307    24694779.146
       217.000         153.000
 01 12 19 20  6 30.0010000  0 10G28G 2G27G26G31G 7G 8G10G11G13
   -183660.29149   -138680.27947  21187813.383    21187813.493    21187823.823
       238.000         207.000
    171621.33349    128899.46047  21826205.064    21826205.019    21826216.986
       241.000         209.000
    243236.93649    183770.56647  21510078.275    21510078.405    21510090.970
       236.000         203.000
   -740232.14349   -562783.33145  24346671.233    24346672.035    24346690.499
       216.000         156.000
    619571.50649    468199.86645  24344765.414    24344765.022    24344782.953
       210.000         153.000
   -774394.56649   -588051.74046  22802694.353    22802694.714    22802711.564
       230.000         185.000
    -96931.99649    -72489.32047  20406065.553    20406065.520    20406076.412
       237.000         209.000
    456110.40349    343453.80245  25595254.590    25595253.020    25595281.034
       220.000         155.000
   -426641.49649   -318488.34045  24355181.444    24355182.133    24355202.278
       212.000         160.000
    789874.81949    599844.60145  24714332.574    24714333.165    24714350.123
       212.000         151.000
 01 12 19 20  7  0.0010000  0 10G28G 2G27G26G31G 7G 8G10G11G13
   -206058.16049   -156133.14147  21183551.291    21183551.337    21183561.633
       239.000         207.000
    191781.30349    144608.47247  21830041.434    21830041.351    21830053.351
       240.000         210.000
    273948.26849    207701.40747  21515922.470    21515922.601    21515935.154
       236.000         203.000
   -831492.07249   -633894.78045  24329304.768    24329305.627    24329324.157
       215.000         158.000
    712648.37149    540727.05145  24362477.407    24362476.941    24362495.022
       209.000         156.000
   -875320.23849   -666694.89046  22783489.061    22783489.205    22783505.881
       232.000         186.000
   -107724.83049    -80899.30447  20404011.752    20404011.702    20404022.625
       236.000         208.000
    511902.48349    386927.97445  25605872.488    25605870.315    25605897.992
       220.000         155.000
   -482492.17249   -362008.27945  24344553.291    24344554.033    24344574.223
       213.000         162.000
    892376.09949    679715.33545  24733837.001    24733837.918    24733855.261
       211.000         151.000
 01 12 19 20  7 30.0010000  0 10G28G 2G27G26G31G 7G 8G10G11G13
   -228337.16949   -173493.39447  21179311.787    21179311.789    21179322.103
       238.000         207.000
    211927.60249    160306.82547  21833875.196    21833875.076    21833887.115
       241.000         209.000
    304889.63949    231811.48947  21521810.448    21521810.580    21521823.130
       236.000         203.000
   -922540.42049   -704841.38945  24311978.551    24311979.529    24311998.104
       214.000         160.000
    805814.55649    613323.81145  24380206.216    24380205.863    24380224.062
       209.000         156.000
   -976119.18749   -745239.29046  22764307.736    22764307.787    22764324.327
       234.000         186.000
   -118282.77249    -89126.26047  20402002.637    20402002.598    20402013.504
       236.000         208.000
    567691.05149    430399.39545  25616489.321    25616486.865    25616514.196
       219.000         154.000
   -538158.34549   -405384.43445  24333960.298    24333961.069    24333981.214
       212.000         161.000
    994780.95449    759510.90745  24753322.932    24753324.359    24753342.340
       209.000         149.000
 01 12 19 20  8  0.0010000  0 10G28G 2G27G26G31G 7G 8G10G11G13
   -250344.12249   -190641.64647  21175123.957    21175123.992    21175134.355
       238.000         207.000
    232213.61249    176114.04647  21837735.588    21837735.425    21837747.439
       242.000         209.000
    336215.48649    256221.16947  21527771.670    21527771.761    21527784.310
       237.000         203.000
  -1013220.70349   -775501.19046  24294722.505    24294723.520    24294742.109
       216.000         163.000
    899221.14049    686107.89345  24397980.922    24397980.537    24397998.865
       211.000         158.000
  -1076635.25749   -823563.26146  22745180.108    22745180.174    22745196.637
       233.000         187.000
   -128451.07649    -97049.59547  20400067.690    20400067.612    20400078.537
       237.000         208.000
    623627.06249    473985.67545  25627134.152    25627131.423    25627158.432
       218.000         153.000
   -593483.54549   -448494.87645  24323432.203    24323432.963    24323453.148
       213.000         162.000
   1097240.68049    839349.23645  24772819.740    24772821.448    24772839.892
       211.000         151.000
 01 12 19 20  8 30.0010000  0 10G28G 2G27G26G31G 7G 8G10G11G13
   -272094.06849   -207589.63547  21170985.088    21170985.094    21170995.518
       237.000         207.000
    252624.20149    192018.33247  21841619.706    21841619.485    21841631.438
       241.000         210.000
    367911.83749    280919.55547  21533803.408    21533803.444    21533816.000
       236.000         203.000
  -1103544.74149   -845883.41546  24277534.184    24277535.293    24277553.910
       217.000         166.000
    992851.05649    759066.02345  24415798.254    24415797.762    24415816.180
       210.000         159.000
  -1176880.91449   -901676.50146  22726103.813    22726103.953    22726120.404
       232.000         187.000
   -138242.89049   -104679.56747  20398204.394    20398204.299    20398215.226
       237.000         208.000
    679693.50649    517673.60545  25637803.046    25637800.720    25637827.442
       213.000         149.000
   -648479.60549   -491348.84845  24312966.845    24312967.516    24312987.703
       212.000         160.000
   1199738.37249    919217.12545  24792324.398    24792325.983    24792344.863
       211.000         149.000
 01 12 19 20  9  0.0010000  0 10G28G 2G27G26G31G 7G 8G10G11G13
   -293613.76149   -224358.21147  21166889.984    21166890.013    21166900.481
       237.000         207.000
    273132.64649    207998.87647  21845522.384    21845522.158    21845534.067
       240.000         209.000
    399952.65649    305886.36247  21539900.623    21539900.659    21539913.250
       236.000         203.000
  -1193536.30049   -916006.53246  24260409.212    24260410.397    24260429.006
       221.000         167.000
   1086675.18749    832175.46245  24433652.514    24433651.966    24433670.465
       211.000         158.000
  -1276880.03649   -979597.63446  22707074.326    22707074.611    22707091.037
       231.000         187.000
   -147683.32249   -112035.72947  20396407.958    20396407.848    20396418.810
       236.000         208.000
    735861.16249    561440.38145  25648491.217    25648489.361    25648515.804
       216.000         150.000
   -703170.14849   -533964.74145  24302559.712    24302560.259    24302580.406
       214.000         160.000
   1302245.44249    999092.34645  24811831.408    24811832.479    24811851.703
       212.000         150.000
 01 12 19 20  9 30.0010000  0 10G28G 2G27G26G31G 7G 8G10G11G13
   -314881.51649   -240930.47447  21162842.714    21162842.829    21162853.324
       237.000         206.000
    293760.85949    224072.75447  21849447.779    21849447.579    21849459.511
       241.000         209.000
    432360.49649    331139.15247  21546067.585    21546067.659    21546080.360
       234.000         202.000
  -1283170.60849   -985851.28846  24243352.276    24243353.449    24243372.071
       223.000         168.000
   1180712.91249    905451.32345  24451547.471    24451546.859    24451565.448
       215.000         162.000
  -1376608.28349  -1057307.69246  22688096.363    22688096.777    22688113.161
       231.000         187.000
   -156748.90749   -119099.80347  20394682.829    20394682.730    20394693.704
       236.000         208.000
    792149.25349    605301.02145  25659202.543    25659200.936    25659227.071
       209.000         148.000
   -757530.44449   -576323.28945  24292215.522    24292215.867    24292235.914
       215.000         160.000
   1404781.73349   1078990.30045  24831344.361    24831344.736    24831364.323
       216.000         154.000
 01 12 19 20 10  0.0010000  0 10G28G 2G27G26G31G 7G 8G10G11G13
   -335899.39949   -257308.03747  21158843.087    21158843.225    21158853.690
       238.000         206.000
    314506.94749    240238.48747  21853395.662    21853395.463    21853407.427
       241.000         210.000
    465134.55249    356677.31147  21552304.219    21552304.358    21552317.148
       234.000         201.000
  -1372446.46249  -1055416.71046  24226363.670    24226364.801    24226383.442
       222.000         169.000
   1274960.29049    978890.57846  24469482.303    24469481.662    24469500.342
       209.000         163.000
  -1476064.99449  -1134806.15947  22669170.114    22669170.615    22669186.964
       233.000         188.000
   -165439.80949   -125871.91847  20393028.962    20393028.889    20393039.865
       236.000         208.000
    848553.63849    649252.26845  25669935.532    25669934.574    25669960.430
       211.000         146.000
   -811559.37849   -618423.63145  24281934.422    24281934.571    24281954.478
       216.000         161.000
   1507343.55649   1158908.13145  24850862.190    24850862.055    24850881.850
       217.000         151.000
 01 12 19 20 10 30.0010000  0 10G28G 2G27G26G31G 7G 8G10G11G13
   -356647.90049   -273475.69247  21154894.798    21154894.909    21154905.338
       237.000         206.000
    335390.36249    256511.22547  21857369.771    21857369.512    21857381.453
       241.000         210.000
    498295.25449    382516.74847  21558614.498    21558614.645    21558627.492
       234.000         201.000
  -1461341.41849  -1124685.35446  24209447.583    24209448.639    24209467.222
       220.000         168.000
   1369434.71649   1052506.70546  24487460.382    24487459.655    24487478.440
       211.000         163.000
  -1575227.84149  -1212075.64647  22650299.747    22650300.345    22650316.715
       228.000         188.000
   -173734.96549   -132335.66547  20391450.390    20391450.349    20391461.325
       236.000         208.000
    905091.42549    693307.46545  25680694.428    25680693.485    25680719.178
       209.000         146.000
   -865234.34649   -660248.16045  24271720.637    24271720.616    24271740.378
       218.000         160.000
   1609948.25049   1238859.39445  24870388.080    24870387.597    24870407.573
       214.000         151.000
 01 12 19 20 11  0.0010000  0 10G28G 2G27G26G31G 7G 8G10G11G13
   -377135.23449   -289439.84247  21150996.190    21150996.283    21151006.698
       238.000         206.000
    356403.19349    272884.81447  21861368.509    21861368.196    21861380.090
       241.000         209.000
    531835.35249    408651.81647  21564996.978    21564997.128    21565010.025
       233.000         201.000
  -1549860.50449  -1193661.11046  24192603.077    24192604.006    24192622.509
       222.000         168.000
   1464125.90049   1126291.74646  24505479.727    24505478.929    24505497.792
       213.000         163.000
  -1674102.38049  -1289120.47547  22631484.246    22631484.944    22631501.371
       229.000         189.000
   -181640.81949   -138496.06447  20389945.942    20389945.909    20389956.892
       237.000         208.000
    961751.97549    737458.32845  25691476.177    25691475.542    25691501.368
       211.000         148.000
   -918560.60249   -701800.96445  24261573.054    24261573.031    24261592.578
       217.000         162.000
   1712585.79549   1318836.23145  24889920.026    24889919.400    24889939.514
       215.000         153.000
 01 12 19 20 11 30.0010000  0 10G28G 2G27G26G31G 7G 8G10G11G13
   -397373.10249   -305209.59047  21147145.078    21147145.140    21147155.541
       238.000         206.000
    377533.73949    289350.14047  21865389.495    21865389.213    21865401.136
       240.000         209.000
    565744.17649    435074.19947  21571449.608    21571449.741    21571462.697
       233.000         200.000
  -1638012.23049  -1262350.62046  24175828.501    24175829.275    24175847.692
       222.000         166.000
   1559020.07249   1200234.95946  24523537.567    24523536.829    24523555.797
       211.000         164.000
  -1772697.39449  -1365947.48747  22612722.002    22612722.741    22612739.200
       232.000         189.000
   -189167.29149   -144360.84247  20388513.734    20388513.695    20388524.659
       237.000         209.000
   1018521.55649    781694.15445  25702279.181    25702278.402    25702304.221
       211.000         149.000
   -971546.51149   -743088.57445  24251490.198    24251490.149    24251509.531
       216.000         162.000
   1815242.78649   1398828.22845  24909455.830    24909455.007    24909475.259
       213.000         155.000
 01 12 19 20 12  0.0010000  0 10G28G 2G27G26G31G 7G 8G10G11G13
   -417377.45649   -320797.38547  21143338.274    21143338.408    21143348.803
       237.000         206.000
    398766.29049    305894.94547  21869429.843    21869429.626    21869441.604
       240.000         209.000
    600006.88049    461772.33647  21577969.523    21577969.718    21577982.719
       233.000         201.000
  -1725809.38949  -1330763.82846  24159121.182    24159121.937    24159140.397
       219.000         164.000
   1654099.46149   1274322.49846  24541630.596    24541629.957    24541649.038
       213.000         166.000
  -1871026.10549  -1442567.01147  22594010.544    22594011.259    22594027.696
       234.000         190.000
   -196328.53149   -149941.03547  20387150.999    20387150.958    20387161.932
       237.000         209.000
   1075382.16149    826000.90845  25713099.090    25713098.569    25713124.407
       214.000         148.000
  -1024204.87149   -784120.94745  24241469.710    24241469.600    24241488.746
       219.000         162.000
   1917901.68849   1478821.66245  24928991.792    24928990.944    24929011.329
       214.000         154.000
 01 12 19 20 12 30.0010000  0 10G28G 2G27G26G31G 7G 8G10G11G13
   -437154.29649   -336207.89047  21139574.790    21139574.956    21139585.376
       238.000         206.000
    420094.83849    322514.56247  21873488.552    21873488.347    21873500.376
       241.000         209.000
    634618.10249    488742.03947  21584555.813    21584556.011    21584569.073
       234.000         201.000
  -1813254.84249  -1398902.97145  24142480.639    24142481.454    24142500.062
       217.000         162.000
   1749355.81149   1348547.94246  24559757.410    24559756.827    24559775.976
       216.000         168.000
  -1969091.92449  -1518981.69147  22575349.191    22575349.815    22575366.202
       234.000         191.000
   -203128.89349   -155240.02747  20385856.937    20385856.878    20385867.854
       238.000         208.000
   1132325.18049    870371.81545  25723935.547    25723934.678    25723960.146
       218.000         150.000
  -1076538.91749   -824900.61345  24231510.900    24231510.747    24231529.724
       219.000         162.000
   2020554.77849   1558810.57645  24948526.497    24948525.636    24948546.336
       216.000         156.000
 01 12 19 20 13  0.0010000  0 10G28G 2G27G26G31G 7G 8G10G11G13
   -456690.66449   -351431.00647  21135857.128    21135857.284    21135867.706
       237.000         206.000
    441532.44249    339219.16547  21877568.086    21877567.829    21877579.879
       241.000         208.000
    669591.57949    515994.03047  21591211.105    21591211.278    21591224.375
       234.000         201.000
  -1900332.79549  -1466755.75346  24125909.971    24125910.865    24125929.581
       214.000         163.000
   1844799.97249   1422919.72846  24577920.019    24577919.414    24577938.669
       215.000         168.000
  -2066879.38849  -1595179.47347  22556740.714    22556741.342    22556757.680
       234.000         191.000
   -209553.85449   -160246.50347  20384634.348    20384634.258    20384645.198
       237.000         208.000
   1189361.48149    914815.43145  25734789.486    25734788.514    25734813.548
       216.000         147.000
  -1128532.75249   -865415.17445  24221616.769    24221616.621    24221635.430
       218.000         162.000
   2123212.43349   1638803.03345  24968062.137    24968061.266    24968082.126
       213.000         154.000
 01 12 19 20 13 30.0010000  0  9G28G 2G27G26G31G 7G 8G11G13
   -475999.86549   -366477.10347  21132182.709    21132182.873    21132193.276
       237.000         206.000
    463066.15549    355998.65547  21881665.807    21881665.575    21881677.630
       239.000         208.000
    704915.16949    543518.82747  21597933.073    21597933.188    21597946.321
       234.000         201.000
  -1987053.39749  -1534330.05545  24109407.245    24109408.280    24109427.108
       214.000         161.000
   1940416.67149   1497425.94646  24596115.469    24596114.854    24596134.195
       215.000         167.000
  -2164398.87649  -1671168.45847  22538183.153    22538183.817    22538200.158
       233.000         191.000
   -215614.83049   -164969.35747  20383481.009    20383480.910    20383491.833
       236.000         208.000
  -1180196.18949   -905672.29846  24211785.430    24211785.346    24211804.062
       217.000         163.000
   2225860.06849   1718787.66845  24987595.771    24987594.855    24987615.894
       210.000         151.000
 01 12 19 20 14  0.0010000  0  9G28G 2G27G26G31G 7G 8G11G13
   -495072.84449   -381339.13247  21128553.165    21128553.361    21128563.793
       237.000         206.000
    484705.28049    372860.28447  21885783.469    21885783.319    21885795.433
       239.000         207.000
    740598.98749    571324.31847  21604723.602    21604723.645    21604736.835
       234.000         202.000
  -2073404.27149  -1601616.27245  24092974.965    24092976.063    24092994.997
       216.000         159.000
   2036212.90249   1572072.05346  24614345.070    24614344.447    24614363.865
       214.000         167.000
  -2261638.44149  -1746939.34047  22519678.875    22519679.561    22519695.899
       234.000         192.000
   -221301.04349   -169400.18947  20382398.912    20382398.846    20382409.814
       236.000         208.000
  -1231517.04649   -945662.47245  24202019.112    24202019.188    24202037.902
       216.000         162.000
   2328505.00749   1798770.19745  25007129.039    25007127.992    25007149.056
       211.000         149.000
 01 12 19 20 14 30.0010000  0  9G28G 2G27G26G31G 7G 8G11G13
   -513898.22349   -396008.22547  21124970.769    21124970.972    21124981.432
       237.000         206.000
    506461.04649    389812.80447  21889923.405    21889923.295    21889935.447
       240.000         208.000
    776655.02849    599419.85747  21611584.930    21611584.944    21611598.176
       235.000         201.000
  -2159371.32249  -1668603.41345  24076615.760    24076616.880    24076635.876
       218.000         160.000
   2132197.80249   1646865.17746  24632610.588    24632609.990    24632629.456
       219.000         168.000
  -2358584.40949  -1822481.46047  22501230.562    22501231.191    22501247.517
       235.000         192.000
   -226599.57749   -173528.93547  20381390.594    20381390.542    20381401.552
       236.000         208.000
  -1282481.25949   -985374.73945  24192320.514    24192320.885    24192339.608
       215.000         162.000
   2431156.47249   1878757.79745  25026663.432    25026662.296    25026683.401
       210.000         147.000
 01 12 19 20 15  0.0010000  0  9G28G 2G27G26G31G 7G 8G11G13
   -532491.14149   -410496.17747  21121432.660    21121432.862    21121443.303
       237.000         207.000
    528318.75049    406844.76547  21894082.855    21894082.712    21894094.878
       240.000         208.000
    813069.07949    627794.36447  21618514.414    21618514.380    21618527.642
       235.000         201.000
  -2244966.35649  -1735300.67745  24060327.380    24060328.514    24060347.471
       214.000         159.000
   2228354.56249   1721792.25246  24650908.916    24650908.215    24650927.726
       219.000         168.000
  -2455248.89249  -1897804.23847  22482835.885    22482836.432    22482852.676
       234.000         192.000
   -231523.60049   -177365.85447  20380453.615    20380453.557    20380464.525
       237.000         208.000
  -1333100.65249  -1024818.32245  24182687.506    24182688.173    24182706.905
       217.000         162.000
   2533798.04149   1958737.68445  25046195.605    25046194.555    25046215.799
       209.000         146.000
 01 12 19 20 15 30.0010000  0  9G28G 2G27G26G31G 7G 8G11G13
   -550830.07649   -424786.21847  21117942.954    21117943.102    21117953.518
       238.000         208.000
    550300.11849    423973.07847  21898265.825    21898265.665    21898277.791
       239.000         206.000
    849863.54149    656465.29247  21625516.304    21625516.233    21625529.490
       235.000         201.000
  -2330164.93549  -1801689.00945  24044114.521    24044115.627    24044134.522
       218.000         160.000
   2324702.52049   1796868.31046  24669243.747    24669242.825    24669262.344
       218.000         168.000
  -2551607.85449  -1972888.97447  22464499.353    22464499.825    22464515.965
       234.000         192.000
   -236050.12849   -180893.04347  20379592.282    20379592.198    20379603.130
       236.000         207.000
  -1383350.85349  -1063974.21045  24173124.838    24173125.750    24173144.454
       216.000         161.000
   2636449.02549   2038724.90245  25065729.126    25065728.421    25065749.861
       203.000         144.000
 01 12 19 20 16  0.0010000  0  9G28G 2G27G26G31G 7G 8G11G13
   -568882.00949   -438852.62547  21114507.882    21114507.971    21114518.364
       240.000         208.000
    572438.23349    441223.53647  21902478.529    21902478.389    21902490.510
       240.000         206.000
    887072.28449    685459.03447  21632597.046    21632596.942    21632610.167
       236.000         201.000
  -2414930.95549  -1867740.27545  24027984.001    24027985.051    24028003.841
       219.000         160.000
   2421272.40949   1872117.28346  24687620.825    24687619.740    24687639.191
       218.000         165.000
  -2647625.66649  -2047707.88647  22446227.678    22446228.123    22446244.137
       235.000         192.000
   -240144.32549   -184083.34747  20378813.129    20378813.092    20378824.027
       237.000         207.000
  -1433195.63049  -1102814.20445  24163639.469    24163640.484    24163659.116
       216.000         162.000
   2739140.89149   2118744.03745  25085270.261    25085270.023    25085291.644
       200.000         142.000
 01 12 19 20 16 30.0010000  0  9G28G 2G27G26G31G 7G 8G11G13
   -586627.15949   -452679.97647  21111131.203    21111131.223    21111141.578
       238.000         208.000
    594753.14249    458611.75847  21906724.936    21906724.792    21906736.875
       240.000         206.000
    924715.93049    714791.67347  21639760.523    21639760.399    21639773.584
       235.000         200.000
  -2499241.54549  -1933436.66945  24011940.169    24011941.211    24011959.822
       220.000         161.000
   2518082.01449   1947553.03646  24706043.497    24706042.272    24706061.701
       218.000         166.000
  -2743279.71549  -2122243.35747  22428025.172    22428025.619    22428041.548
       233.000         192.000
   -243784.94249   -186920.20447  20378120.279    20378120.276    20378131.266
       236.000         208.000
  -1482612.56049  -1141320.77245  24154235.713    24154236.659    24154255.211
       217.000         162.000
   2841891.60249   2198808.93245  25104822.336    25104822.735    25104844.611
       198.000         139.000
 01 12 19 20 17  0.0010000  0  9G28G 2G27G26G31G 7G 8G11G13
   -604112.00349   -466304.49147  21107803.917    21107803.951    21107814.316
       237.000         207.000
    617198.57749    476101.68647  21910996.216    21910996.055    21911008.124
       240.000         207.000
    962748.81349    744427.60647  21646998.002    21646997.893    21647011.056
       234.000         200.000
  -2583140.35949  -1998812.18445  23995974.736    23995975.701    23995994.224
       220.000         162.000
   2615082.62049   2023137.63046  24724502.364    24724501.150    24724520.515
       217.000         168.000
  -2838614.14349  -2196529.78047  22409883.454    22409883.922    22409899.813
       234.000         192.000
   -247016.67549   -189438.44847  20377505.293    20377505.284    20377516.317
       236.000         208.000
  -1531645.00149  -1179527.71745  24144905.220    24144906.072    24144924.482
       217.000         161.000
   2944653.00349   2278882.16945  25124376.166    25124377.485    25124399.496
       197.000         141.000
 01 12 19 20 17 30.0010000  0  9G28G 2G27G26G31G 7G 8G11G13
   -621320.80349   -479713.91347  21104529.094    21104529.177    21104539.578
       237.000         207.000
    639790.39349    493705.68047  21915295.336    21915295.173    21915307.255
       239.000         207.000
   1001187.51849    774379.76647  21654312.647    21654312.607    21654325.746
       235.000         200.000
  -2666608.52349  -2063852.11546  23980091.201    23980092.108    23980110.604
       219.000         163.000
   2712288.14449   2098881.91946  24743000.289    24742999.022    24743018.315
       218.000         167.000
  -2933610.41649  -2270552.71347  22391806.119    22391806.576    22391822.436
       235.000         193.000
   -249822.24649   -191624.61847  20376971.444    20376971.418    20376982.453
       236.000         208.000
  -1580274.20649  -1217420.44346  24135651.453    24135652.158    24135670.530
       217.000         163.000
   3047438.67349   2358974.33645  25143934.851    25143936.509    25143959.614
       195.000         135.000
 01 12 19 20 18  0.0010000  0  9G28G 2G27G26G31G 7G 8G11G13
   -638240.96349   -492898.42347  21101309.220    21101309.341    21101319.741
       237.000         207.000
    662541.46349    511433.75947  21919624.699    21919624.555    21919636.676
       239.000         207.000
   1040045.52449    804658.65247  21661707.092    21661707.097    21661720.218
       235.000         200.000
  -2749630.31949  -2128544.24946  23964292.589    23964293.454    23964311.819
       218.000         163.000
   2809709.33449   2174794.25746  24761539.256    24761537.927    24761557.142
       218.000         164.000
  -3028253.15249  -2344300.16847  22373796.051    22373796.509    22373812.320
       234.000         193.000
   -252187.15449   -193467.41547  20376521.396    20376521.393    20376532.456
       235.000         208.000
  -1628484.46549  -1254986.68445  24126477.374    24126477.939    24126496.361
       217.000         162.000
   3150259.68149   2439094.03245  25163500.828    25163503.642    25163525.653
       195.000         135.000
 01 12 19 20 18 30.0010000  0  9G28G 2G27G26G31G 7G 8G11G13
   -654869.96849   -505856.06847  21098144.812    21098144.930    21098155.296
       237.000         207.000
    685454.56649    529288.09647  21923984.908    21923984.786    21923996.897
       240.000         206.000
   1079326.07449    835266.78847  21669181.987    21669181.996    21669195.082
       234.000         199.000
  -2832200.36849  -2192884.37046  23948579.875    23948580.801    23948598.880
       221.000         164.000
   2907346.69349   2250874.98545  24780119.330    24780117.959    24780137.123
       216.000         162.000
  -3122537.33749  -2417768.23847  22355854.182    22355854.672    22355870.424
       234.000         193.000
   -254107.45049   -194963.75847  20376155.959    20376155.969    20376167.080
       236.000         208.000
  -1676270.59649  -1292222.41446  24117383.967    24117384.422    24117402.942
       216.000         163.000
   3253116.84049   2519241.84844  25183073.310    25183075.931    25183098.414
       196.000         131.000
 01 12 19 20 19  0.0010000  0  9G28G 2G27G26G31G 7G 8G11G13
   -671199.90849   -518580.67647  21095037.326    21095037.430    21095047.782
       237.000         207.000
    708537.66749    547274.90247  21928377.561    21928377.383    21928389.470
       240.000         206.000
   1119037.74549    866210.86847  21676738.904    21676738.927    21676751.981
       234.000         199.000
  -2914307.78749  -2256864.01446  23932955.169    23932956.164    23932974.029
       220.000         165.000
   3005205.94549   2327128.63246  24798741.602    24798740.215    24798759.388
       215.000         164.000
  -3216452.47149  -2490948.74047  22337982.542    22337983.084    22337998.760
       234.000         194.000
   -255573.61949   -196106.22947  20375876.995    20375876.983    20375888.125
       236.000         208.000
  -1723621.69149  -1329119.13546  24108373.328    24108373.739    24108392.314
       217.000         163.000
   3356016.05249   2599422.52244  25202654.501    25202657.029    25202679.509
       196.000         130.000
 01 12 19 20 19 30.0010000  0  9G28G 2G27G26G31G 7G 8G11G13
   -687233.54549   -531074.40247  21091986.108    21091986.291    21091996.675
       236.000         207.000
    731788.36849    565392.30347  21932802.117    21932801.894    21932813.953
       240.000         206.000
   1159178.68149    897489.45047  21684377.427    21684377.522    21684390.599
       234.000         198.000
  -2995952.39449  -2320483.01446  23917418.584    23917419.614    23917437.360
       221.000         165.000
   3103282.49149   2403551.61345  24817405.134    24817403.824    24817422.903
       216.000         162.000
  -3309998.76249  -2563841.82147  22320181.158    22320181.706    22320197.308
       235.000         195.000
   -256586.71649   -196895.65947  20375684.332    20375684.252    20375695.347
       236.000         208.000
  -1770537.40249  -1365676.55945  24099445.594    24099445.904    24099464.534
       218.000         162.000
   3458953.08249   2679632.52445  25222242.746    25222245.207    25222268.162
       199.000         132.000
 01 12 19 20 20  0.0010000  0  9G28G 2G27G26G31G 7G 8G11G13
   -702952.41649   -543322.86047  21088994.779    21088995.014    21089005.473
       237.000         207.000
    755225.24449    583654.77447  21937262.044    21937261.821    21937273.895
       240.000         206.000
   1199768.09549    929117.48447  21692101.319    21692101.455    21692114.554
       234.000         198.000
  -3077112.63849  -2383724.59846  23901974.228    23901975.209    23901992.855
       221.000         166.000
   3201592.71349   2480156.60845  24836113.139    24836111.887    24836130.966
       217.000         162.000
  -3403155.10849  -2636431.05747  22302454.002    22302454.527    22302470.079
       235.000         195.000
   -257126.78749   -197316.49047  20375581.622    20375581.523    20375592.542
       237.000         207.000
  -1816996.68949  -1401878.32446  24090604.702    24090604.958    24090623.536
       220.000         164.000
   3561944.34149   2759884.91344  25241842.040    25241844.191    25241866.910
       197.000         129.000
 01 12 19 20 20 30.0010000  0  9G28G 2G27G26G31G 7G 8G11G13
   -718389.96549   -555352.10447  21086057.007    21086057.271    21086067.796
       237.000         207.000
    778815.02649    602036.38247  21941751.029    21941750.825    21941762.962
       240.000         207.000
   1240773.02649    961069.30147  21699904.333    21699904.471    21699917.607
       235.000         198.000
  -3157819.15649  -2446612.61046  23886616.161    23886617.174    23886634.552
       222.000         167.000
   3300101.26049   2556916.17946  24854858.964    24854857.677    24854876.791
       219.000         168.000
  -3495952.52849  -2708740.60847  22284795.153    22284795.636    22284811.176
       235.000         195.000
   -257225.67049   -197393.53347  20375562.798    20375562.686    20375573.716
       236.000         207.000
  -1863030.03749  -1437748.17446  24081844.827    24081845.095    24081863.579
       220.000         164.000
   3664954.79348   2840152.19944  25261444.970    25261446.717    25261469.409
       187.000         127.000
 01 12 19 20 21  0.0010000  0  9G28G 2G27G26G31G 7G 8G11G13
   -733553.99649   -567168.21747  21083171.349    21083171.610    21083182.151
       236.000         207.000
    802550.06349    620531.17647  21946267.732    21946267.498    21946279.639
       240.000         207.000
   1282186.30449    993339.31647  21707785.148    21707785.218    21707798.361
       235.000         198.000
  -3238076.92849  -2509150.95146  23871343.430    23871344.483    23871361.821
       222.000         168.000
   3398798.12949   2633822.50045  24873640.634    24873639.324    24873658.384
       217.000         160.000
  -3588396.36649  -2780774.62947  22267203.581    22267204.034    22267219.512
       235.000         196.000
   -256889.80649   -197131.80447  20375626.673    20375626.594    20375637.630
       236.000         207.000
  -1908642.64349  -1473290.17446  24073164.894    24073165.202    24073183.602
       220.000         164.000
   3767974.56649   2920426.68645  25281049.381    25281050.863    25281073.779
       197.000         134.000
 01 12 19 20 21 30.0010000  0  9G28G 2G27G26G31G 7G 8G11G13
   -748423.62449   -578754.93847  21080341.765    21080342.000    21080352.511
       237.000         206.000
    826451.72249    639155.79347  21950816.193    21950815.907    21950827.978
       241.000         207.000
   1324029.74749   1025944.51547  21715747.916    21715747.872    21715760.956
       235.000         198.000
  -3317861.88349  -2571320.85546  23856160.736    23856161.764    23856179.297
       221.000         169.000
   3497702.34049   2710890.31745  24892461.706    24892460.400    24892479.500
       213.000         158.000
  -3680462.82749  -2852514.58947  22249683.897    22249684.263    22249699.630
       235.000         196.000
   -256096.39849   -196513.55547  20375777.659    20375777.587    20375788.628
       236.000         207.000
  -1953810.42949  -1508485.57446  24064569.402    24064569.894    24064588.244
       218.000         163.000
   3871023.24649   3000723.77945  25300659.552    25300660.770    25300683.692
       198.000         135.000
 01 12 19 20 22  0.0010000  0  9G28G 2G27G26G31G 7G 8G11G13
   -762917.50549   -590048.86947  21077583.640    21077583.872    21077594.363
       236.000         206.000
    850601.49449    657973.74647  21955411.862    21955411.535    21955423.540
       241.000         207.000
   1366385.48049   1058948.88847  21723808.184    21723808.016    21723821.032
       236.000         198.000
  -3397089.84549  -2633056.74446  23841084.063    23841085.052    23841102.656
       222.000         168.000
   3596893.22049   2788181.60845  24911337.332    24911336.036    24911355.110
       215.000         159.000
  -3772068.21749  -2923895.25847  22232251.949    22232252.247    22232267.465
       237.000         196.000
   -254762.74149   -195474.33347  20376031.426    20376031.373    20376042.417
       236.000         207.000
  -1998449.28149  -1543268.81346  24056074.421    24056075.156    24056093.500
       216.000         163.000
   3974180.41948   3081105.41044  25320290.654    25320291.315    25320314.272
       194.000         128.000
 01 12 19 20 22 30.0010000  0  9G28G 2G27G26G31G 7G 8G11G13
   -777067.19249   -601074.59147  21074891.070    21074891.253    21074901.730
       237.000         206.000
    874968.17849    676960.72347  21960048.767    21960048.437    21960060.393
       241.000         207.000
   1409222.47649   1092328.27547  21731960.000    21731959.775    21731972.694
       236.000         198.000
  -3475789.55349  -2694380.99946  23826107.891    23826108.864    23826126.352
       220.000         168.000
   3696337.25949   2865670.13645  24930261.098    24930259.812    24930278.915
       216.000         155.000
  -3863241.50849  -2994939.22147  22214902.259    22214902.473    22214917.567
       236.000         197.000
   -252918.81949   -194037.49747  20376382.277    20376382.247    20376393.294
       236.000         207.000
  -2042588.08449  -1577662.41946  24047674.697    24047675.578    24047693.901
       218.000         164.000
   4077412.41848   3161545.33344  25339936.351    25339936.385    25339959.075
       190.000         114.000
 01 12 19 20 23  0.0010000  0  9G28G 2G27G26G31G 7G 8G11G13
   -790928.07349   -611875.27747  21072253.509    21072253.646    21072264.066
       237.000         207.000
    899496.60349    696073.73547  21964716.411    21964716.087    21964728.013
       241.000         207.000
   1452486.02149   1126040.03547  21740192.986    21740192.692    21740205.528
       235.000         198.000
  -3554013.48249  -2755334.51146  23811222.233    23811223.182    23811240.686
       220.000         168.000
   3795977.09549   2943311.25445  24949222.119    24949220.841    24949240.054
       216.000         160.000
  -3954035.62849  -3065687.71247  22197624.681    22197624.857    22197639.872
       237.000         198.000
   -250618.55949   -192245.07847  20376819.991    20376819.961    20376831.007
       236.000         207.000
  -2086279.11049  -1611707.11546  24039360.362    24039361.243    24039379.535
       219.000         165.000
                   3241999.30654  25359585.611
       184.000         105.000
 01 12 19 20 23 30.0010000  0  9G28G 2G27G26G31G 7G 8G11G13
   -804483.66149   -622438.07647  21069673.985    21069674.100    21069684.490
       237.000         207.000
    924203.66649    715325.94147  21969418.040    21969417.721    21969429.634
       241.000         207.000
   1496193.34849   1160097.59647  21748510.317    21748510.025    21748522.823
       235.000         198.000
  -3631742.15249  -2815902.10946  23796430.843    23796431.776    23796449.441
       220.000         168.000
   3895827.19449   3021116.24345  24968223.186    24968221.896    24968241.178
       215.000         154.000
  -4044431.62649  -3136125.98047  22180422.812    22180422.971    22180437.958
       236.000         198.000
   -247843.69849   -190082.84247  20377348.038    20377348.003    20377359.028
       235.000         207.000
  -2129503.28049  -1645388.04846  24031134.974    24031135.837    24031154.013
       221.000         166.000
                   3322478.73454  25379241.407
       173.000          95.000
 01 12 19 20 24  0.0010000  0  9G28G 2G27G26G31G 7G 8G11G13
   -817761.24849   -632784.24347  21067147.322    21067147.450    21067157.827
       237.000         206.000
    949062.32349    734696.26747  21974148.525    21974148.215    21974160.109
       241.000         207.000
   1540317.93049   1194480.28647  21756907.074    21756906.761    21756919.544
       235.000         199.000
  -3708999.91849  -2876102.75246  23781729.046    23781730.008    23781747.725
       221.000         170.000
   3995858.54349   3099062.42345  24987258.679    24987257.398    24987276.907
       214.000         158.000
  -4134454.15249  -3206273.21647  22163291.961    22163292.128    22163307.117
       236.000         198.000
   -244620.06149   -187570.91047  20377961.448    20377961.411    20377972.499
       235.000         207.000
  -2172285.11649  -1678724.32046  24022993.873    24022994.568    24023012.679
       222.000         167.000
                   3402960.92853  25398897.726
       172.000          80.000
 01 12 19 20 24 30.0010000  0  8G28G 2G27G26G31G 7G 8G11
   -830728.83849   -642888.85347  21064679.622    21064679.774    21064690.172
       237.000         206.000
    974104.68249    754209.74447  21978913.997    21978913.667    21978925.559
       241.000         207.000
   1584892.13549   1229213.33447  21765389.339    21765389.045    21765401.829
       234.000         198.000
  -3785752.33349  -2935909.62046  23767123.403    23767124.380    23767141.994
       220.000         169.000
   4096100.91349   3177173.08245  25006334.389    25006333.059    25006352.634
       214.000         154.000
  -4224069.00149  -3276102.78247  22146238.663    22146238.862    22146253.835
       235.000         197.000
   -240914.41649   -184683.38647  20378666.547    20378666.543    20378677.675
       235.000         207.000
  -2214590.06949  -1711689.00646  24014943.457    24014944.076    24014962.047
       223.000         168.000
 01 12 19 20 25  0.0010000  0  8G28G 2G27G26G31G 7G 8G11
   -843410.76449   -652770.86847  21062266.299    21062266.467    21062276.836
       237.000         206.000
    999306.97449    773847.84247  21983709.888    21983709.560    21983721.482
       241.000         207.000
   1629892.47249   1264278.42747  21773952.704    21773952.421    21773965.209
       235.000         198.000
  -3862020.54549  -2995339.19346  23752609.917    23752610.888    23752628.387
       220.000         170.000
   4196528.25649   3255427.85845  25025445.284    25025443.905    25025463.677
       210.000         155.000
  -4313297.73149  -3345631.45947  22129258.839    22129259.051    22129274.033
       235.000         197.000
   -236749.14849   -181437.71147  20379459.135    20379459.142    20379470.296
       235.000         207.000
  -2256439.41849  -1744298.70046  24006979.576    24006980.246    24006998.112
       220.000         168.000
 01 12 19 20 25 30.0010000  0  8G28G 2G27G26G31G 7G 8G11
   -855815.56449   -662436.94647  21059905.752    21059905.910    21059916.232
       237.000         206.000
   1024660.73949    793603.97647  21988534.584    21988534.258    21988546.230
       241.000         207.000
   1675310.83649   1299669.25347  21782595.612    21782595.343    21782608.138
       234.000         198.000
  -3937810.44749  -3054396.07146  23738187.493    23738188.451    23738205.829
       221.000         171.000
   4297129.91349   3333818.50745  25044589.444    25044588.048    25044607.803
       213.000         153.000
  -4402146.75049  -3414864.26247  22112351.267    22112351.505    22112366.468
       236.000         197.000
   -232131.90249   -177839.84847  20380337.777    20380337.782    20380348.914
       236.000         208.000
  -2297839.33549  -1776558.18246  23999101.164    23999101.928    23999119.707
       220.000         168.000
 01 12 19 20 26  0.0010000  0  8G28G 2G27G26G31G 7G 8G11
   -867946.22649   -671889.41147  21057597.471    21057597.554    21057607.783
       238.000         206.000
   1050163.35749    813476.10547  21993387.524    21993387.243    21993399.274
       240.000         207.000
   1721144.74049   1335383.89547  21791317.510    21791317.300    21791330.156
       234.000         198.000
  -4013122.17349  -3113080.34546  23723856.074    23723856.969    23723874.208
       221.000         171.000
   4397901.20949   3412341.31745  25063765.863    25063764.373    25063784.275
       210.000         151.000
  -4490616.55149  -3483801.55647  22095515.889    22095516.109    22095531.055
       236.000         198.000
   -227063.83749   -173890.70247  20381302.275    20381302.233    20381313.300
       236.000         208.000
  -2338790.03349  -1808467.63746  23991308.245    23991309.079    23991326.798
       219.000         167.000
 01 12 19 20 26 30.0010000  0  8G28G 2G27G26G31G 7G 8G11
   -879779.60549   -681110.22747  21055345.698    21055345.774    21055355.920
       238.000         206.000
   1075838.45149    833482.62747  21998273.335    21998273.090    21998285.131
       241.000         207.000
   1767418.27149   1371441.09747  21800123.105    21800122.919    21800135.840
       234.000         198.000
  -4087929.61049  -3171371.65946  23709620.590    23709621.447    23709638.549
       221.000         172.000
   4498863.45649   3491012.95345  25082978.684    25082977.046    25082996.978
       212.000         148.000
  -4578681.25149  -3552423.19147  22078757.520    22078757.783    22078772.715
       235.000         198.000
   -221520.24549   -169571.01747  20382357.247    20382357.191    20382368.217
       237.000         208.000
  -2379265.22949  -1840006.58446  23983605.907    23983606.720    23983624.420
       219.000         169.000
 01 12 19 20 27  0.0010000  0  8G28G 2G27G26G31G 7G 8G11
   -891344.85549   -690122.10947  21053144.900    21053144.974    21053155.093
       238.000         206.000
   1101656.70949    853600.71147  22003186.381    22003186.161    22003198.238
       240.000         207.000
   1814102.32049   1407818.19447  21809006.775    21809006.647    21809019.660
       233.000         198.000
  -4162259.43049  -3229290.81146  23695475.913    23695476.812    23695493.848
       224.000         173.000
   4599985.14649   3569808.80045  25102221.772    25102220.024    25102240.033
       210.000         147.000
  -4666367.96549  -3620750.29147  22062071.063    22062071.401    22062086.282
       235.000         198.000
   -215529.15949   -164902.63447  20383497.313    20383497.250    20383508.303
       236.000         208.000
  -2419291.71749  -1871195.87746  23975989.040    23975989.758    23976007.476
       220.000         168.000
 01 12 19 20 27 30.0010000  0  8G28G 2G27G26G31G 7G 8G11
   -902609.35949   -698899.64647  21051001.374    21051001.413    21051011.528
       238.000         207.000
   1127651.26749    873856.17047  22008132.953    22008132.782    22008144.913
       240.000         208.000
   1861230.25849   1444541.17947  21817974.872    21817974.823    21817987.967
       233.000         197.000
  -4236076.04149  -3286810.07046  23681428.973    23681429.887    23681446.860
       222.000         173.000
   4701297.23749   3648753.02145  25121501.018    25121499.230    25121519.276
       210.000         147.000
  -4753641.43049  -3688755.37847  22045463.291    22045463.678    22045478.507
       236.000         199.000
   -209056.42149   -159858.94447  20384728.976    20384728.974    20384740.046
       236.000         209.000
  -2458834.12849  -1902007.97546  23968464.300    23968464.939    23968482.645
       221.000         169.000
 01 12 19 20 28  0.0010000  0  8G28G 2G27G26G31G 7G 8G11
   -913565.28949   -707436.74047  21048916.639    21048916.613    21048926.697
       239.000         207.000
   1153830.11549    894255.23047  22013114.678    22013114.477    22013126.702
       241.000         208.000
   1908810.21849   1481616.38947  21827028.989    21827029.010    21827042.294
       232.000         197.000
  -4309369.08149  -3343921.34146  23667481.643    23667482.582    23667499.506
       223.000         172.000
   4802805.49249   3727850.12645  25140817.474    25140815.711    25140835.854
       207.000         140.000
  -4840491.70149  -3756430.70847  22028936.138    22028936.511    22028951.282
       236.000         200.000
   -202092.82649   -154432.77147  20386054.153    20386054.112    20386065.172
       237.000         209.000
  -2497882.27349  -1932434.93046  23961033.646    23961034.159    23961051.852
       221.000         170.000
 01 12 19 20 28 30.0010000  0  8G28G 2G27G26G31G 7G 8G11
   -924248.14849   -715761.04347  21046883.778    21046883.743    21046893.818
       237.000         207.000
   1180158.34149    914770.69147  22018124.850    22018124.613    22018136.898
       240.000         208.000
   1956807.53649   1519016.81547  21836162.588    21836162.641    21836176.060
       232.000         197.000
  -4382171.30949  -3400650.16846  23653627.753    23653628.680    23653645.601
       222.000         171.000
   4904472.37549   3807070.84545  25160164.110    25160162.423    25160182.660
       209.000         146.000
  -4926951.81449  -3823802.02047  22012483.219    22012483.580    22012498.331
       237.000         200.000
   -194672.26549   -148650.51247  20387466.307    20387466.218    20387477.252
       237.000         209.000
  -2536468.79149  -1962502.19246  23953690.740    23953691.253    23953708.912
       220.000         171.000
 01 12 19 20 29  0.0010000  0  8G28G 2G27G26G31G 7G 8G11
   -934639.71649   -723858.36547  21044906.186    21044906.252    21044916.405
       236.000         207.000
   1206654.40049    935416.93147  22023166.933    22023166.693    22023179.001
       240.000         208.000
   2005240.80749   1556756.93847  21845379.147    21845379.195    21845392.775
       232.000         197.000
  -4454461.60949  -3456980.11046  23639871.158    23639872.125    23639889.093
       221.000         170.000
   5006314.41149   3886428.02945  25179544.097    25179542.412    25179562.771
       206.000         141.000
  -5013001.03849  -3890853.16347  21996108.501    21996108.825    21996123.552
       237.000         200.000
   -186775.34049   -142497.07347  20388969.089    20388968.970    20388979.995
       237.000         209.000
  -2574572.99549  -1992193.62546  23946439.609    23946440.152    23946457.758
       222.000         171.000
 01 12 19 20 29 30.0010000  0  8G28G 2G27G26G31G 7G 8G11
   -944779.61449   -731759.58447  21042976.484    21042976.639    21042986.893
       237.000         207.000
   1233278.96349    956163.29947  22028233.418    22028233.204    22028245.533
       239.000         208.000
   2054070.73049   1594806.14347  21854671.263    21854671.295    21854684.946
       233.000         197.000
  -4526277.02349  -3512940.00946  23626204.863    23626205.918    23626222.954
       221.000         169.000
   5108289.94649   3965889.27045  25198949.794    25198948.017    25198968.273
       209.000         140.000
  -5098676.70849  -3957613.22847  21979804.823    21979805.142    21979819.832
       237.000         199.000
   -178440.04549   -136002.04747  20390555.276    20390555.167    20390566.167
       237.000         209.000
  -2612231.92949  -2021538.10946  23939273.197    23939273.778    23939291.321
       221.000         172.000
 01 12 19 20 30  0.0010000  0  8G28G 2G27G26G31G 7G 8G11
   -954648.69749   -739449.77247  21041098.456    21041098.620    21041108.910
       237.000         208.000
   1260051.51349    977024.98547  22033327.987    22033327.840    22033340.231
       239.000         207.000
   2103316.90949   1633179.70847  21864042.599    21864042.594    21864056.318
       233.000         196.000
  -4597595.62749  -3568512.78446  23612633.073    23612634.218    23612651.307
       222.000         170.000
   5210416.05349   4045467.79045  25218384.137    25218382.150    25218402.486
       204.000         139.000
  -5183957.41049  -4024065.52047  21963576.255    21963576.615    21963591.237
       237.000         200.000
   -169646.07849   -129149.61247  20392228.738    20392228.637    20392239.637
       237.000         210.000
  -2649423.81049  -2050518.66946  23932195.659    23932196.275    23932213.783
       221.000         171.000
 01 12 19 20 30 30.0010000  0  8G28G 2G27G26G31G 7G 8G11
   -964239.60449   -746923.21147  21039273.413    21039273.548    21039283.838
       238.000         207.000
   1286979.67849    998007.93247  22038452.311    22038452.140    22038464.540
       240.000         207.000
   2152987.18049   1671883.72947  21873494.632    21873494.613    21873508.362
       233.000         197.000
  -4668407.42349  -3623690.62946  23599157.731    23599159.001    23599176.101
       222.000         170.000
   5312698.36049   4125167.98145  25237848.355    25237846.121    25237866.408
       204.000         137.000
  -5268833.65349  -4090202.66147  21947424.615    21947425.054    21947439.609
       237.000         200.000
   -160384.86949   -121933.10947  20393991.106    20393991.001    20394001.999
       237.000         209.000
  -2686138.87149  -2079127.70046  23925208.830    23925209.483    23925227.015
       222.000         172.000
 01 12 19 20 31  0.0010000  0  8G28G 2G27G26G31G 7G 8G11
   -973543.95249   -754173.34547  21037502.893    21037502.983    21037513.246
       237.000         207.000
   1314072.34149   1019119.05947  22043607.987    22043607.752    22043620.173
       240.000         208.000
   2203090.46449   1710925.16147  21883029.068    21883029.040    21883042.804
       233.000         196.000
  -4738701.45349  -3678465.04546  23585780.949    23585782.315    23585799.440
       222.000         170.000
   5415143.75449   4204995.33245  25257343.501    25257341.140    25257361.257
       207.000         137.000
  -5353294.46749  -4156016.09047  21931352.042    21931352.527    21931367.053
       237.000         200.000
   -150646.50849   -114344.79147  20395844.216    20395844.129    20395855.161
       236.000         209.000
  -2722366.07249  -2107356.58146  23918314.832    23918315.515    23918333.057
       221.000         172.000
 01 12 19 20 31 30.0010000  0  8G28G 2G27G26G31G 7G 8G11
   -982584.32849   -761217.78647  21035782.513    21035782.646    21035792.907
       237.000         208.000
   1341307.26649   1040341.04147  22048790.686    22048790.424    22048802.856
       239.000         207.000
   2253604.61249   1750286.72747  21892641.719    21892641.655    21892655.409
       234.000         197.000
  -4808497.44349  -3732851.37646  23572499.039    23572500.428    23572517.528
       222.000         171.000
   5517727.44349   4284930.46845  25276864.639    25276862.345    25276882.579
       202.000         137.000
  -5437360.24549  -4221521.70247  21915354.679    21915355.147    21915369.682
       237.000         200.000
   -140452.11649   -106401.12547  20397784.056    20397784.029    20397795.079
       236.000         208.000
  -2758125.35749  -2135220.86946  23911509.823    23911510.583    23911528.109
       220.000         171.000
 01 12 19 20 32  0.0010000  0  8G28G 2G27G26G31G 7G 8G11
   -991340.44549   -768040.72347  21034116.322    21034116.418    21034126.699
       238.000         208.000
   1368705.07149   1061689.93847  22054004.292    22054004.077    22054016.507
       239.000         207.000
   2304550.43749   1789984.66447  21902336.516    21902336.430    21902350.146
       233.000         196.000
  -4877772.69649  -3786831.95546  23559316.326    23559317.646    23559334.709
       225.000         172.000
   5620467.90949   4364987.69145  25296415.653    25296413.509    25296433.746
       204.000         138.000
  -5521008.45749  -4286701.94947  21899436.762    21899437.251    21899451.790
       238.000         201.000
   -129780.16749    -98085.33247  20399814.819    20399814.832    20399825.890
       237.000         208.000
  -2793394.25249  -2162703.03746  23904798.212    23904798.991    23904816.450
       221.000         172.000
 01 12 19 20 32 30.0010000  0  8G28G 2G27G26G31G 7G 8G11
   -999836.50749   -774661.02747  21032499.652    21032499.690    21032509.957
       238.000         208.000
   1396241.97849   1083147.22047  22059244.382    22059244.175    22059256.625
       239.000         207.000
   2355904.12149   1830000.40847  21912108.921    21912108.816    21912122.526
       233.000         196.000
  -4946548.57249  -3840423.41246  23546228.713    23546229.935    23546246.924
       224.000         173.000
   5723339.23649   4445146.92045  25315991.451    25315989.496    25316009.719
       206.000         137.000
  -5604260.89749  -4351573.81447  21883594.254    21883594.711    21883609.203
       239.000         202.000
   -118653.43649    -89415.17447  20401932.159    20401932.171    20401943.237
       237.000         208.000
  -2828194.12049  -2189819.72546  23898175.979    23898176.715    23898194.045
       222.000         172.000
 01 12 19 20 33  0.0010000  0  8G28G 2G27G26G31G 7G 8G11
  -1008083.97549   -781087.60447  21030930.179    21030930.234    21030940.526
       237.000         207.000
   1423906.74649   1104704.13947  22064508.851    22064508.640    22064521.103
       239.000         207.000
   2407654.28149   1870325.09347  21921956.715    21921956.632    21921970.356
       231.000         196.000
  -5014834.03549  -3893632.72746  23533234.380    23533235.516    23533252.467
       224.000         174.000
   5826327.91949   4525397.62544  25335589.552    25335587.694    25335608.043
       204.000         131.000
  -5687126.84949  -4416144.51547  21867825.353    21867825.757    21867840.152
       240.000         203.000
   -107082.25449    -80398.69547  20404134.134    20404134.089    20404145.159
       237.000         208.000
  -2862534.20949  -2216578.14346  23891641.300    23891641.931    23891659.116
       222.000         173.000
 01 12 19 20 33 30.0010000  0  8G28G 2G27G26G31G 7G 8G11
  -1016045.11149   -787291.06447  21029415.177    21029415.246    21029425.539
       237.000         207.000
   1451737.52749   1126390.42547  22069804.944    22069804.712    22069817.184
       239.000         207.000
   2459839.14549   1910988.50647  21931887.248    21931887.176    21931900.911
       232.000         195.000
  -5082588.86049  -3946428.55846  23520340.981    23520342.101    23520359.005
       226.000         175.000
   5929469.86749   4605767.77644  25355216.991    25355215.099    25355235.359
       203.000         124.000
  -5769566.45449  -4480383.00547  21852137.577    21852137.941    21852152.219
       240.000         203.000
    -95027.64749    -71005.51547  20406428.082    20406428.031    20406439.077
       237.000         208.000
  -2896374.35249  -2242946.98846  23885201.678    23885202.298    23885219.372
       222.000         174.000
 01 12 19 20 34  0.0010000  0  7G28G 2G27G26G 7G 8G11
  -1023720.12349   -793271.56847  21027954.598    21027954.698    21027965.003
       236.000         207.000
   1479734.59749   1148206.28947  22075132.571    22075132.390    22075144.901
       238.000         206.000
   2512458.95549   1951990.83747  21941900.547    21941900.481    21941914.231
       232.000         195.000
  -5149810.51949  -3998808.93946  23507549.078    23507550.144    23507567.019
       225.000         176.000
  -5851577.49949  -4544287.55447  21836531.264    21836531.637    21836545.851
       240.000         203.000
    -82488.45049    -61234.73847  20408814.254    20408814.170    20408825.203
       237.000         208.000
  -2929712.06849  -2268924.32846  23878857.622    23878858.218    23878875.304
       223.000         174.000
 01 12 19 20 34 30.0010000  0  7G28G 2G27G26G 7G 8G11
  -1031128.01249   -799043.92047  21026544.879    21026545.006    21026555.305
       237.000         207.000
   1507879.27249   1170137.16547  22080488.244    22080488.143    22080500.683
       238.000         206.000
   2565494.91049   1993317.42747  21951993.065    21951992.984    21952006.731
       233.000         195.000
  -5216515.63749  -4050786.81846  23494855.547    23494856.516    23494873.344
       226.000         177.000
  -5933176.96249  -4607871.40247  21821003.234    21821003.646    21821017.810
       240.000         203.000
    -69482.51449    -51100.27947  20411289.264    20411289.147    20411300.165
       237.000         209.000
  -2962564.27549  -2294523.33946  23872605.943    23872606.535    23872623.705
       223.000         175.000
 01 12 19 20 35  0.0010000  0  7G28G 2G27G26G 7G 8G11
  -1038274.24049   -804612.38147  21025184.971    21025185.119    21025195.424
       237.000         207.000
   1536166.20449   1192178.89147  22085871.098    22085870.973    22085883.516
       238.000         206.000
   2618941.80849   2034964.22947  21962163.856    21962163.696    21962177.439
       232.000         194.000
  -5282707.18049  -4102364.51146  23482259.707    23482260.598    23482277.379
       226.000         176.000
  -6014368.20349  -4671137.15347  21805552.947    21805553.355    21805567.464
       239.000         203.000
    -56014.05549    -40605.41247  20413852.284    20413852.160    20413863.161
       236.000         210.000
  -2994934.12849  -2319746.48846  23866446.095    23866446.654    23866463.886
       223.000         174.000
 01 12 19 20 35 30.0010000  0  7G28G 2G27G26G 7G 8G11
  -1045177.39749   -809991.44047  21023871.313    21023871.478    21023881.787
       238.000         208.000
   1564577.37249   1214317.41547  22091277.633    22091277.486    22091289.993
       239.000         207.000
   2672781.38449   2076917.00647  21972409.326    21972409.127    21972422.862
       233.000         194.000
  -5348401.17249  -4153554.50446  23469758.461    23469759.331    23469776.097
       225.000         175.000
  -6095167.43649  -4734097.45147  21790177.239    21790177.650    21790191.701
       239.000         203.000
    -42100.30649    -29763.56747  20416499.962    20416499.851    20416510.911
       238.000         209.000
  -3026837.64649  -2344606.25546  23860375.026    23860375.553    23860392.762
       224.000         174.000
 01 12 19 20 36  0.0000000  0  7G28G 2G27G26G 7G 8G11
  -1051799.88549   -815151.78947  21022611.145    21022611.268    21022621.552
       238.000         208.000
   1593149.39849   1236581.29047  22096714.765    22096714.595    22096727.112
       239.000         207.000
   2727049.44349   2119203.67247  21982736.297    21982736.094    21982749.813
       233.000         194.000
  -5413555.64049  -4204324.08446  23457359.827    23457360.739    23457377.464
       224.000         175.000
  -6175532.55649  -4796719.48047  21774884.085    21774884.520    21774898.552
       238.000         203.000
    -27703.41949    -18545.23947  20419239.540    20419239.488    20419250.600
       237.000         209.000
  -3058234.03449  -2369070.86346  23854400.443    23854400.927    23854418.107
       223.000         175.000
 01 12 19 20 36 30.0000000  0  7G28G 2G27G26G 7G 8G11
  -1058180.12649   -820123.36547  21021397.067    21021397.170    21021407.395
       238.000         208.000
   1621846.90949   1258942.95547  22102175.711    22102175.574    22102188.128
       238.000         207.000
   2781711.86949   2161797.63847  21993138.239    21993138.087    21993151.805
       231.000         194.000
  -5478210.24549  -4254704.14846  23445056.194    23445057.227    23445073.917
       222.000         174.000
  -6255504.83549  -4859035.39747  21759665.631    21759666.137    21759680.144
       237.000         203.000
    -12858.87749     -6978.08747  20422064.364    20422064.310    20422075.457
       237.000         209.000
  -3089161.27449  -2393169.89746  23848515.037    23848515.546    23848532.663
       223.000         175.000
 01 12 19 20 37  0.0000000  0  7G28G 2G27G26G 7G 8G11
  -1064263.37949   -824863.53547  21020239.490    21020239.576    21020249.761
       238.000         208.000
   1650723.69249   1281444.29747  22107670.764    22107670.673    22107683.250
       238.000         206.000
   2836821.61149   2204740.16047  22003625.301    22003625.198    22003638.937
       231.000         193.000
  -5542306.13549  -4304648.85346  23432858.828    23432860.001    23432876.677
       223.000         174.000
  -6335024.93249  -4920998.97447  21744533.324    21744533.821    21744547.786
       238.000         203.000
      2488.20749      4980.63847  20424984.880    20424984.790    20424995.936
       238.000         210.000
  -3119561.58049  -2416858.33746  23842729.917    23842730.470    23842747.430
       224.000         175.000
 01 12 19 20 37 30.0000000  0  7G28G 2G27G26G 7G 8G11
  -1070102.73449   -829413.65647  21019128.240    21019128.347    21019138.547
       237.000         208.000
   1679727.09849   1304044.30247  22113189.977    22113189.877    22113202.441
       239.000         206.000
   2892325.83249   2247990.06247  22014187.460    22014187.391    22014201.139
       232.000         194.000
  -5605893.83649  -4354197.56846  23420758.326    23420759.545    23420776.154
       224.000         177.000
  -6414143.83849  -4982649.93747  21729477.381    21729477.863    21729491.764
       238.000         203.000
     18285.98249     17290.55847  20427991.136    20427991.048    20428002.171
       238.000         209.000
  -3149485.79249  -2440175.79946  23837035.327    23837035.978    23837052.832
       223.000         175.000
 01 12 19 20 38  0.0000000  0  7G28G 2G27G26G 7G 8G11
  -1075684.02849   -833762.69347  21018066.136    21018066.261    21018076.466
       238.000         208.000
   1708871.77349   1326754.39047  22118736.161    22118735.990    22118748.506
       238.000         205.000
   2948239.03949   2291558.64647  22024827.541    22024827.438    22024841.168
       232.000         193.000
  -5668956.57249  -4403337.22246  23408757.959    23408759.046    23408775.524
       226.000         178.000
  -6492844.95749  -5043975.34647  21714500.934    21714501.419    21714515.248
       238.000         203.000
     34549.93349     29963.74347  20431086.068    20431085.978    20431097.087
       237.000         209.000
  -3178916.99249  -2463109.08346  23831434.717    23831435.334    23831452.078
       224.000         175.000
 01 12 19 20 38 30.0000000  0  7G28G 2G27G26G 7G 8G11
  -1081006.03449   -837909.69447  21017053.420    21017053.521    21017063.712
       238.000         208.000
   1738159.12949   1349575.64947  22124309.371    22124309.213    22124321.725
       237.000         205.000
   3004562.41949   2335446.85547  22035545.707    22035545.549    22035559.267
       232.000         194.000
  -5731490.99649  -4452065.20246  23396858.132    23396859.103    23396875.447
       226.000         180.000
  -6571125.26849  -5104972.85947  21699604.655    21699605.073    21699618.829
       239.000         204.000
     51282.37949     43001.99347  20434270.149    20434270.077    20434281.162
       238.000         209.000
  -3207852.05449  -2485655.77346  23825928.577    23825929.129    23825945.786
       224.000         176.000
 01 12 19 20 39  0.0000000  0  7G28G 2G27G26G 7G 8G11
  -1086070.66449   -841856.13647  21016089.599    21016089.724    21016099.889
       236.000         207.000
   1767587.79749   1372507.03047  22129909.478    22129909.309    22129921.863
       238.000         205.000
   3061294.33549   2379653.39647  22046341.564    22046341.381    22046355.122
       231.000         193.000
  -5793496.40649  -4500380.96246  23385059.025    23385059.867    23385076.026
       227.000         181.000
  -6648984.68949  -5165642.40247  21684788.559    21684788.854    21684802.536
       239.000         205.000
     68482.44649     56404.61547  20437543.274    20437543.161    20437554.248
       237.000         209.000
  -3236290.86049  -2507815.76746  23820516.875    23820517.343    23820533.981
       224.000         175.000
 01 12 19 20 39 30.0000000  0  7G28G 2G27G26G 7G 8G11
  -1090869.24949   -845595.27847  21015176.437    21015176.570    21015186.692
       237.000         207.000
   1797166.76349   1395555.52347  22135538.176    22135538.016    22135550.625
       238.000         205.000
   3118443.56349   2424185.11947  22057216.788    22057216.616    22057230.391
       232.000         193.000
  -5854962.05749  -4548276.13446  23373362.616    23373363.364    23373379.366
       227.000         181.000
  -6726412.40749  -5225975.55447  21670054.633    21670054.801    21670068.404
       241.000         206.000
     86159.92849     70179.24747  20440907.292    20440907.118    20440918.191
       238.000         209.000
  -3264222.28149  -2529580.39446  23815201.617    23815202.069    23815218.725
       224.000         176.000
 01 12 19 20 40  0.0000000  0  7G28G 2G27G26G 7G 8G11
  -1095422.70949   -849143.40747  21014309.909    21014310.055    21014320.183
       236.000         207.000
   1826875.51649   1418705.14347  22141191.642    22141191.427    22141204.082
       238.000         205.000
   3175989.38749   2469025.88847  22068167.479    22068167.320    22068181.156
       232.000         194.000
  -5915906.40949  -4595765.08946  23361765.211    23361765.982    23361781.938
       224.000         180.000
  -6803427.35849  -5285987.06547  21655399.178    21655399.292    21655412.841
       240.000         206.000
    104295.06449     84310.51547  20444358.378    20444358.165    20444369.245
       237.000         209.000
  -3291665.23249  -2550964.39746  23809979.250    23809979.733    23809996.417
       224.000         177.000
 01 12 19 20 40 30.0000000  0  7G28G 2G27G26G 7G 8G11
  -1099744.75349   -852511.22647  21013487.419    21013487.550    21013497.723
       237.000         207.000
   1856700.81349   1441945.56847  22146867.303    22146867.068    22146879.687
       239.000         205.000
   3233918.24949   2514165.11947  22079191.084    22079190.912    22079204.810
       232.000         193.000
  -5976340.75049  -4642856.63746  23350264.680    23350265.544    23350281.588
       224.000         180.000
  -6880041.15449  -5345685.98947  21640819.955    21640820.084    21640833.623
       240.000         206.000
    122875.08749     98788.43647  20447894.001    20447893.820    20447904.956
       237.000         209.000
  -3318631.19049  -2571976.71146  23804847.652    23804848.180    23804864.877
       224.000         176.000
 01 12 19 20 41  0.0000000  0  7G28G 2G27G26G 7G 8G11
  -1103780.22349   -855655.73347  21012719.511    21012719.629    21012729.754
       237.000         206.000
   1886698.27349   1465320.15747  22152575.720    22152575.473    22152588.048
       238.000         205.000
   3292285.34349   2559645.82947  22090298.072    22090297.900    22090311.832
       231.000         192.000
  -6036207.74149  -4689506.08346  23338872.018    23338873.028    23338889.155
       224.000         179.000
  -6956196.74649  -5405027.86647  21626327.864    21626328.040    21626341.593
       240.000         206.000
    141956.39249    113656.97647  20451524.908    20451524.839    20451536.044
       236.000         209.000
  -3345062.80749  -2592572.63646  23799817.827    23799818.355    23799834.979
       225.000         178.000
 01 12 19 20 41 30.0000000  0  7G28G 2G27G26G 7G 8G11
  -1107555.30549   -858597.34747  21012001.131    21012001.254    21012011.314
       236.000         206.000
   1916842.15549   1488808.83747  22158311.981    22158311.717    22158324.260
       239.000         205.000
   3351064.66049   2605447.74847  22101483.528    22101483.332    22101497.286
       231.000         191.000
  -6095531.19349  -4735732.00946  23327582.909    23327583.960    23327600.110
       223.000         178.000
  -7031918.18549  -5464031.44547  21611918.381    21611918.598    21611932.152
       240.000         207.000
    161513.64949    128896.39047  20455246.477    20455246.467    20455257.709
       238.000         210.000
  -3370984.19949  -2612770.97446  23794885.208    23794885.643    23794902.194
       225.000         176.000
 01 12 19 20 42  0.0000000  0  7G28G 2G27G26G 7G 8G11
  -1111077.92849   -861342.23747  21011330.762    21011330.896    21011340.929
       236.000         206.000
   1947124.77349   1512405.62847  22164074.663    22164074.366    22164086.906
       239.000         204.000
   3410248.41849   2651564.82347  22112745.890    22112745.697    22112759.708
       230.000         191.000
  -6154316.95049  -4781538.93946  23316396.178    23316397.224    23316413.354
       226.000         177.000
  -7107211.69949  -5522701.57447  21597590.377    21597590.596    21597604.125
       240.000         206.000
    181539.90249    144501.25047  20459057.463    20459057.391    20459068.611
       239.000         210.000
  -3396401.29049  -2632576.34646  23790048.528    23790048.882    23790065.324
       225.000         176.000
 01 12 19 20 42 30.0000000  0  7G28G 2G27G26G 7G 8G11
  -1114331.88049   -863877.78447  21010711.501    21010711.667    21010721.705
       237.000         207.000
   1977562.92049   1536123.60847  22169866.938    22169866.624    22169879.166
       239.000         205.000
   3469852.99849   2698009.80747  22124088.314    22124088.150    22124102.222
       229.000         190.000
  -6212546.23549  -4826912.27146  23305315.469    23305316.453    23305332.525
       228.000         179.000
  -7182058.70149  -5581023.77347  21583347.347    21583347.557    21583361.077
       240.000         206.000
    202052.77649    160485.29647  20462961.104    20462960.936    20462972.071
       240.000         209.000
  -3421295.85249  -2651974.56946  23785311.223    23785311.531    23785327.888
       226.000         176.000
 01 12 19 20 43  0.0000000  0  7G28G 2G27G26G 7G 8G11
  -1117339.93149   -866221.72347  21010139.040    21010139.217    21010149.265
       237.000         207.000
   2008133.97849   1559945.15247  22175684.470    22175684.162    22175696.705
       238.000         204.000
   3529855.34749   2744764.74147  22135506.455    22135506.293    22135520.455
       230.000         190.000
  -6270240.04649  -4871868.33146  23294336.706    23294337.637    23294353.636
       229.000         179.000
  -7256480.53249  -5639014.67247  21569185.209    21569185.431    21569198.960
       240.000         206.000
    223029.90949    176831.10247  20466953.017    20466952.806    20466963.889
       239.000         209.000
  -3445688.85949  -2670981.97146  23780669.276    23780669.616    23780685.884
       225.000         176.000
 01 12 19 20 43 30.0000000  0  7G28G 2G27G26G 7G 8G11
  -1120091.22349   -868365.58547  21009615.498    21009615.663    21009625.680
       236.000         207.000
   2038849.49949   1583879.27047  22181529.414    22181529.165    22181541.722
       237.000         204.000
   3590266.46349   2791838.20047  22147002.393    22147002.231    22147016.474
       229.000         191.000
  -6327385.16449  -4916396.84446  23283462.362    23283463.254    23283479.141
       228.000         177.000
  -7330464.27849  -5696664.19847  21555106.427    21555106.675    21555120.224
       240.000         207.000
    244483.47849    193548.16147  20471035.503    20471035.308    20471046.372
       238.000         209.000
  -3469567.12249  -2689588.26646  23776125.231    23776125.635    23776141.843
       226.000         177.000
 01 12 19 20 44  0.0000000  0  7G28G 2G27G26G 7G 8G11
  -1122600.95949   -870321.22547  21009137.866    21009138.042    21009148.045
       237.000         206.000
   2069694.64849   1607914.39147  22187399.093    22187398.839    22187411.400
       239.000         204.000
   3651071.09149   2839218.28147  22158573.241    22158573.068    22158587.403
       230.000         191.000
  -6383994.59249  -4960507.94246  23272689.968    23272690.790    23272706.555
       229.000         178.000
  -7404023.11449  -5753982.63447  21541108.510    21541108.777    21541122.339
       241.000         207.000
    266399.37949    210625.47247  20475205.946    20475205.769    20475216.838
       239.000         209.000
  -3492944.00449  -2707803.88346  23771676.552    23771677.028    23771693.219
       225.000         177.000
 01 12 19 20 44 30.0000000  0  7G28G 2G27G26G 7G 8G11
  -1124857.40949   -872079.50047  21008708.416    21008708.615    21008718.615
       236.000         206.000
   2100681.45849   1632059.89747  22193295.796    22193295.496    22193308.067
       238.000         204.000
   3712281.00149   2886914.16947  22170221.195    22170221.023    22170235.450
       229.000         190.000
  -6440054.50349  -5004190.84046  23262021.973    23262022.859    23262038.541
       227.000         178.000
  -7477143.61449  -5810959.50747  21527194.048    21527194.301    21527207.851
       241.000         208.000
    288789.91849    228072.63447  20479466.744    20479466.574    20479477.656
       239.000         209.000
  -3515805.84049  -2725618.18346  23767325.867    23767326.421    23767342.631
       225.000         178.000
 01 12 19 20 45  0.0000000  0  7G28G 2G27G26G 7G 8G11
  -1126829.58849   -873616.26747  21008333.177    21008333.333    21008343.327
       237.000         207.000
   2131841.64349   1656340.50647  22199225.469    22199225.135    22199237.727
       237.000         204.000
   3773927.36749   2934950.15647  22181952.173    22181952.030    22181966.533
       228.000         190.000
  -6495531.57949  -5047419.58146  23251464.888    23251465.801    23251481.449
       226.000         179.000
  -7549792.74149  -5867569.07647  21513369.407    21513369.570    21513383.060
       242.000         208.000
    311687.47049    245914.86547  20483824.089    20483823.898    20483834.936
       239.000         210.000
  -3538119.65449  -2743005.46646  23763079.487    23763080.113    23763096.376
       224.000         177.000
 01 12 19 20 45 30.0000000  0  7G28G 2G27G26G 7G 8G11
  -1128575.78849   -874976.93647  21008000.946    21008001.057    21008011.035
       237.000         207.000
   2163117.13549   1680710.96947  22205177.052    22205176.704    22205189.332
       237.000         203.000
   3835951.59649   2983280.58947  22193755.061    22193754.928    22193769.498
       229.000         189.000
  -6550482.25449  -5090238.13846  23241007.895    23241008.868    23241024.554
       226.000         180.000
  -7622027.22249  -5923855.53747  21499623.601    21499623.744    21499637.165
       241.000         209.000
    335034.15749    264107.06847  20488266.937    20488266.693    20488277.700
       239.000         210.000
  -3559941.70549  -2760009.55346  23758926.753    23758927.423    23758943.710
       225.000         178.000
 01 12 19 20 46  0.0000000  0  7G28G 2G27G26G 7G 8G11
  -1130044.84249   -876121.65147  21007721.383    21007721.508    21007731.495
       237.000         207.000
   2194559.53549   1705211.48947  22211160.304    22211160.025    22211172.682
       237.000         203.000
   3898404.76649   3031945.25047  22205639.505    22205639.433    22205654.072
       228.000         189.000
  -6604853.30049  -5132605.03146  23230661.133    23230662.232    23230677.980
       224.000         179.000
  -7693793.99649  -5979777.55547  21485966.760    21485966.905    21485980.270
       241.000         209.000
    358882.05449    282689.83147  20492805.026    20492804.805    20492815.838
       238.000         209.000
  -3581218.95149  -2776589.13646  23754877.736    23754878.423    23754894.692
       224.000         177.000
 01 12 19 20 46 30.0000000  0  7G28G 2G27G26G 7G 8G11
  -1131290.00449   -877091.90847  21007484.414    21007484.561    21007494.542
       237.000         207.000
   2226116.19449   1729801.03747  22217165.387    22217165.095    22217177.748
       238.000         203.000
   3961233.64549   3080902.67147  22217595.549    22217595.458    22217610.130
       228.000         189.000
  -6658695.71849  -5174560.00746  23220414.965    23220416.140    23220432.028
       225.000         181.000
  -7765144.26749  -6035375.03047  21472389.095    21472389.307    21472402.631
       241.000         209.000
    383179.07049    301622.54347  20497428.476    20497428.340    20497439.426
       237.000         208.000
  -3602002.89249  -2792784.34146  23750922.704    23750923.296    23750939.539
       226.000         179.000
 01 12 19 20 47  0.0000000  0  7G28G 2G27G26G 7G 8G11
  -1132273.59549   -877858.34547  21007297.245    21007297.382    21007307.356
       236.000         207.000
   2257825.18049   1754509.28747  22223199.485    22223199.176    22223211.797
       238.000         203.000
   4024475.92149   3130182.23347  22229630.286    22229630.184    22229644.861
       229.000         188.000
  -6711969.83749  -5216072.14646  23210277.122    23210278.258    23210294.249
       226.000         181.000
  -7836038.83949  -6090617.41447  21458898.203    21458898.410    21458911.710
       241.000         209.000
    407963.82549    320935.32047  20502144.743    20502144.693    20502155.817
       237.000         208.000
  -3622253.96149  -2808564.32746  23747068.986    23747069.562    23747085.732
       225.000         176.000
 01 12 19 20 47 30.0000000  0  7G28G 2G27G26G 7G 8G11
  -1133001.82249   -878425.79447  21007158.640    21007158.788    21007168.808
       236.000         207.000
   2289680.69949   1779331.71747  22229261.438    22229261.139    22229273.747
       238.000         203.000
   4088125.16949   3179778.90846  22241742.537    22241742.379    22241757.045
       228.000         187.000
  -6764680.05649  -5257144.88646  23200246.676    23200247.738    23200263.724
       227.000         181.000
  -7906482.17449  -6145508.18647  21445493.157    21445493.388    21445506.666
       240.000         209.000
    433230.56849    340623.66447  20506952.845    20506952.806    20506963.931
       237.000         208.000
  -3641976.69349  -2823932.62846  23743315.706    23743316.339    23743332.467
       224.000         176.000
 01 12 19 20 48  0.0000000  0  7G28G 2G27G26G 7G 8G11
  -1133496.41349   -878811.18547  21007064.572    21007064.685    21007074.713
       237.000         207.000
   2321662.03149   1804252.18747  22235347.323    22235347.054    22235359.638
       238.000         203.000
   4152160.04049   3229676.06246  22253928.197    22253927.968    22253942.595
       228.000         187.000
  -6816845.39849  -5297793.05846  23190320.026    23190320.951    23190336.862
       228.000         181.000
  -7976493.54349  -6200062.36347  21432170.347    21432170.558    21432183.842
       241.000         209.000
    458959.00449    360671.76147  20511848.870    20511848.799    20511859.920
       238.000         208.000
  -3661190.72849  -2838904.55246  23739659.154    23739659.896    23739676.006
       223.000         176.000
 01 12 19 20 48 30.0000000  0  7G28G 2G27G26G 7G 8G11
  -1133766.08449   -879021.31947  21007013.346    21007013.386    21007023.417
       237.000         207.000
   2353760.04549   1829263.58147  22241455.412    22241455.157    22241467.739
       238.000         203.000
   4216571.16249   3279866.41046  22266185.399    22266185.124    22266199.746
       227.000         186.000
  -6868473.38649  -5338022.51046  23180495.539    23180496.418    23180512.233
       229.000         181.000
  -8046080.86549  -6254286.11247  21418928.208    21418928.428    21418941.725
       241.000         209.000
    485140.70749    381073.05947  20516831.098    20516831.021    20516842.169
       237.000         207.000
  -3679903.29849  -2853485.72846  23736098.060    23736098.891    23736115.017
       224.000         177.000
 01 12 19 20 49  0.0000000  0  7G28G 2G27G26G 7G 8G11
  -1133793.69849   -879042.83947  21007008.137    21007008.154    21007018.182
       236.000         207.000
   2385992.61949   1854379.82247  22247589.175    22247588.879    22247601.448
       239.000         203.000
   4281375.61749   3330363.24646  22278517.325    22278517.113    22278531.736
       227.000         185.000
  -6919544.76049  -5377818.24246  23170776.949    23170777.802    23170793.483
       229.000         181.000
  -8115224.92449  -6308164.46847  21405770.452    21405770.649    21405783.943
       241.000         208.000
    511793.81149    401841.68447  20521902.955    20521902.910    20521914.138
       236.000         207.000
  -3698095.27749  -2867661.25246  23732636.159    23732636.972    23732653.127
       224.000         178.000
 01 12 19 20 49 30.0000000  0  7G28G 2G27G26G 7G 8G11
  -1133573.73949   -878871.44947  21007050.005    21007050.026    21007060.031
       237.000         207.000
   2418365.44949   1879605.34747  22253749.643    22253749.301    22253761.841
       239.000         203.000
   4346578.68749   3381170.68246  22290925.085    22290924.949    22290939.590
       226.000         185.000
  -6970052.08649  -5417174.44846  23161165.668    23161166.507    23161182.095
       228.000         181.000
  -8183918.81149  -6361692.04347  21392698.394    21392698.549    21392711.793
       242.000         208.000
    538924.22949    422982.24347  20527065.578    20527065.593    20527076.936
       235.000         206.000
  -3715759.64749  -2881425.66246  23729274.692    23729275.509    23729291.664
       225.000         178.000
 01 12 19 20 50  0.0000000  0  7G28G 2G27G26G 7G 8G11
  -1133156.76949   -878546.53847  21007129.322    21007129.376    21007139.385
       236.000         207.000
   2450828.75349   1904901.37547  22259927.174    22259926.900    22259939.451
       238.000         203.000
   4412129.61949   3432249.18646  22303399.077    22303398.966    22303413.633
       226.000         185.000
  -7020044.10249  -5456129.12546  23151652.350    23151653.248    23151668.746
       228.000         182.000
  -8252211.11249  -6414906.69247  21379702.724    21379702.863    21379716.015
       242.000         208.000
    566482.53249    444456.22247  20532309.609    20532309.678    20532321.128
       235.000         206.000
  -3732945.45049  -2894817.15946  23726004.364    23726005.112    23726021.246
       225.000         178.000
 01 12 19 20 50 30.0000000  0  7G28G 2G27G26G 7G 8G11
  -1132524.12849   -878053.57147  21007249.706    21007249.774    21007259.772
       238.000         208.000
   2483401.19949   1930282.44747  22266125.433    22266125.239    22266137.833
       238.000         203.000
   4478046.34649   3483612.72746  22315942.675    22315942.573    22315957.322
       227.000         185.000
  -7069500.48149  -5494666.41646  23142240.845    23142241.865    23142257.347
       227.000         181.000
  -8320081.99749  -6467792.97147  21366787.222    21366787.370    21366800.429
       242.000         208.000
    594487.62049    466278.34147  20537638.752    20537638.832    20537650.273
       236.000         205.000
  -3749631.89249  -2907819.54246  23722828.980    23722829.719    23722845.828
       225.000         178.000
 01 12 19 20 51  0.0000000  0  7G28G 2G27G26G 7G 8G11
  -1131677.66749   -877393.99447  21007410.824    21007410.878    21007420.833
       237.000         208.000
   2516081.87849   1955747.85547  22272344.399    22272344.196    22272356.837
       238.000         204.000
   4544327.46049   3535260.20746  22328555.657    22328555.530    22328570.352
       227.000         186.000
  -7118420.88349  -5532786.07246  23132931.314    23132932.452    23132947.935
       227.000         180.000
  -8387531.17949  -6520350.65847  21353952.010    21353952.147    21353965.120
       243.000         208.000
    622938.91549    488448.15647  20543052.936    20543052.965    20543064.330
       237.000         205.000
  -3765819.20249  -2920432.97046  23719748.644    23719749.316    23719765.380
       226.000         178.000
 01 12 19 20 51 30.0000000  0  7G28G 2G27G26G 7G 8G11
  -1130559.94849   -876523.04647  21007623.550    21007623.598    21007633.501
       239.000         208.000
   2548928.85049   1981342.84347  22278595.149    22278594.850    22278607.498
       240.000         204.000
   4611030.14249   3587236.19746  22341248.826    22341248.713    22341263.598
       228.000         186.000
  -7166745.84049  -5570441.74646  23123735.234    23123736.369    23123751.816
       228.000         181.000
  -8454499.47849  -6572533.63247  21341208.284    21341208.415    21341221.341
       243.000         208.000
    651894.65349    511011.05347  20548563.187    20548563.095    20548574.365
       239.000         205.000
  -3781448.42349  -2932611.52546  23716774.579    23716775.165    23716791.143
       226.000         178.000
 01 12 19 20 52  0.0000000  0  7G28G 2G27G26G 7G 8G11
  -1129250.40249   -875502.62747  21007872.785    21007872.817    21007882.665
       238.000         208.000
   2581862.78449   2007005.59447  22284862.397    22284862.043    22284874.719
       238.000         204.000
   4678074.69149   3639478.58746  22354007.062    22354006.958    22354021.906
       228.000         186.000
  -7214553.27949  -5607694.15946  23114637.693    23114638.810    23114654.206
       228.000         181.000
  -8521065.05849  -6624402.80647  21328541.117    21328541.310    21328554.190
       243.000         208.000
    681275.83149    533905.45647  20554154.385    20554154.218    20554165.364
       238.000         205.000
  -3796597.53849  -2944415.95646  23713891.946    23713892.393    23713908.298
       227.000         179.000
 01 12 19 20 52 30.0000000  0  7G28G 2G27G26G 7G 8G11
  -1127698.48349   -874293.34847  21008168.130    21008168.162    21008177.986
       239.000         208.000
   2614935.26649   2032776.29847  22291155.761    22291155.517    22291168.305
       237.000         203.000
   4745511.75449   3692026.81846  22366839.899    22366839.866    22366854.921
       227.000         185.000
  -7261790.32649  -5644502.12246  23105648.812    23105649.840    23105665.172
       229.000         183.000
  -8587175.16449  -6675917.07047  21315960.681    21315960.877    21315973.699
       243.000         208.000
    711134.10549    557171.62447  20559836.247    20559836.081    20559847.170
       238.000         205.000
  -3811214.46049  -2955805.69346  23711110.501    23711110.889    23711126.776
       227.000         180.000
 01 12 19 20 53  0.0000000  0  7G28G 2G27G26G 7G 8G11
  -1125864.86649   -872864.55747  21008517.081    21008517.108    21008526.929
       238.000         208.000
   2648185.43749   2058685.47147  22297482.812    22297482.761    22297495.696
       236.000         203.000
   4813379.74549   3744910.85146  22379754.697    22379754.779    22379769.920
       225.000         184.000
  -7308416.52249  -5680834.09146  23096776.170    23096777.126    23096792.374
       228.000         183.000
  -8652789.64649  -6727045.13247  21303474.583    21303474.768    21303487.503
       242.000         208.000
    741508.94449    580840.32047  20565616.336    20565616.216    20565627.323
       236.000         205.000
  -3825258.21849  -2966748.80646  23708437.951    23708438.412    23708454.344
       226.000         179.000
 01 12 19 20 53 30.0000000  0  7G28G 2G27G26G 7G 8G11
  -1123784.22049   -871243.26947  21008913.002    21008913.058    21008922.872
       238.000         208.000
   2681579.11549   2084706.46847  22303837.413    22303837.382    22303850.356
       237.000         204.000
   4881643.60949   3798103.34146  22392744.872    22392745.002    22392760.239
       224.000         183.000
  -7354465.02949  -5716715.93146  23088013.445    23088014.325    23088029.461
       228.000         182.000
  -8717941.89349  -6777813.00847  21291076.435    21291076.621    21291089.260
       242.000         208.000
    772365.91449    604884.70447  20571488.199    20571488.118    20571499.229
       237.000         205.000
  -3838761.73149  -2977270.95146  23705868.135    23705868.699    23705884.685
       224.000         178.000
 01 12 19 20 54  0.0000000  0  7G28G 2G27G26G 7G 8G11
  -1121500.50749   -869463.74647  21009347.579    21009347.632    21009357.422
       238.000         208.000
   2715073.19449   2110805.70447  22310211.349    22310211.177    22310224.125
       238.000         204.000
   4950259.33049   3851570.01646  22405802.041    22405802.194    22405817.499
       225.000         183.000
  -7399977.64149  -5752180.18546  23079352.591    23079353.474    23079368.515
       228.000         181.000
  -8782673.79249  -6828253.33947  21278758.317    21278758.472    21278771.048
       243.000         209.000
    803662.32749    629271.51847  20577443.723    20577443.677    20577454.761
       238.000         205.000
  -3851767.70049  -2987405.39646  23703393.039    23703393.668    23703409.690
       225.000         179.000
 01 12 19 20 54 30.0000000  0  7G28G 2G27G26G 7G 8G11
  -1118979.25749   -867499.12647  21009827.364    21009827.434    21009837.178
       238.000         208.000
   2748702.29449   2137010.15147  22316610.984    22316610.684    22316623.608
       238.000         203.000
   5019260.82949   3905337.28246  22418932.736    22418932.826    22418948.166
       225.000         182.000
  -7444918.36849  -5787198.81146  23070800.512    23070801.414    23070816.388
       227.000         180.000
  -8846949.47649  -6878338.18247  21266527.049    21266527.152    21266539.666
       244.000         209.000
    835433.04449    654027.91447  20583489.575    20583489.481    20583500.533
       238.000         205.000
  -3864240.30149  -2997124.21046  23701019.616    23701020.171    23701036.163
       227.000         178.000
 01 12 19 20 55  0.0000000  0  7G28G 2G27G26G 7G 8G11
  -1116225.60249   -865353.40247  21010351.360    21010351.426    21010361.161
       238.000         207.000
   2782461.87849   2163316.28647  22323035.270    22323034.960    22323047.922
       236.000         203.000
   5088642.94049   3959401.13646  22432135.942    22432135.924    22432151.275
       226.000         183.000
  -7489290.57949  -5821774.44646  23062356.534    23062357.488    23062372.445
       226.000         179.000
  -8910772.58749  -6928070.37547  21254381.904    21254381.974    21254394.424
       243.000         208.000
    867673.58249    679150.40147  20589624.798    20589624.682    20589635.711
       237.000         205.000
  -3876183.05649  -3006430.15046  23698747.122    23698747.530    23698763.413
       227.000         178.000
 01 12 19 20 55 30.0000000  0  7G28G 2G27G26G 7G 8G11
  -1113255.98749   -863039.39647  21010916.445    21010916.521    21010926.262
       238.000         208.000
   2816336.06849   2189711.73047  22329481.217    22329480.967    22329494.074
       236.000         204.000
   5158388.86249   4013748.46846  22445408.388    22445408.258    22445423.616
       225.000         183.000
  -7533109.02949  -5855918.56146  23054017.941    23054018.941    23054033.898
       227.000         179.000
  -8974157.99649  -6977461.49447  21242319.984    21242320.067    21242332.454
       243.000         208.000
    900367.95249    704626.52647  20595846.322    20595846.234    20595857.246
       237.000         205.000
  -3887610.78749  -3015334.79446  23696572.508    23696572.871    23696588.660
       227.000         179.000
 01 12 19 20 56  0.0000000  0  7G28G 2G27G26G 7G 8G11
  -1110021.20849   -860518.77447  21011531.996    21011532.072    21011541.827
       238.000         208.000
   2850374.52749   2216235.16947  22335958.487    22335958.295    22335971.468
       237.000         204.000
   5228547.22549   4068417.18246  22458759.285    22458759.085    22458774.446
       225.000         184.000
  -7576323.09149  -5889591.73446  23045794.495    23045795.483    23045810.390
       227.000         181.000
  -9037055.26349  -7026472.25647  21230350.916    21230351.032    21230363.373
       242.000         207.000
    933566.05849    730495.16247  20602163.691    20602163.604    20602174.658
       237.000         205.000
  -3898473.32249  -3023799.01146  23694505.280    23694505.700    23694521.467
       226.000         179.000
 01 12 19 20 56 30.0000000  0  7G28G 2G27G26G 7G 8G11
  -1106602.59449   -857854.89647  21012182.529    21012182.613    21012192.360
       239.000         208.000
   2884496.52149   2242823.71047  22342451.812    22342451.575    22342464.737
       238.000         204.000
   5299036.24749   4123343.55846  22472173.015    22472172.809    22472188.214
       226.000         183.000
  -7619012.34549  -5922855.96546  23037671.025    23037671.928    23037686.751
       230.000         181.000
  -9099544.22749  -7075164.84947  21218459.546    21218459.683    21218471.999
       243.000         207.000
    967186.96749    756693.26847  20608561.444    20608561.419    20608572.562
       237.000         205.000
  -3908850.45149  -3031884.99246  23692530.365    23692530.898    23692546.660
       228.000         180.000
 01 12 19 20 57  0.0000000  0  7G28G 2G27G26G 7G 8G11
  -1102928.76749   -854992.15447  21012881.617    21012881.702    21012891.458
       238.000         208.000
   2918773.70349   2269533.16947  22348974.679    22348974.384    22348987.517
       237.000         203.000
   5369926.89349   4178582.87546  22485663.089    22485662.947    22485678.402
       225.000         183.000
  -7661103.95949  -5955654.50546  23029661.394    23029662.162    23029676.862
       230.000         183.000
  -9161552.11649  -7123482.58647  21206659.720    21206659.877    21206672.194
       242.000         207.000
   1001302.61949    783276.88047  20615053.398    20615053.377    20615064.607
       238.000         205.000
  -3918669.43149  -3039536.06646  23690661.810    23690662.340    23690678.093
       227.000         178.000
 01 12 19 20 57 30.0000000  0  7G28G 2G27G26G 7G 8G11
  -1099023.59649   -851949.14047  21013624.781    21013624.851    21013634.601
       239.000         208.000
   2953182.54449   2296345.23147  22355522.494    22355522.216    22355535.341
       236.000         204.000
   5441194.90949   4234116.25246  22499224.932    22499224.882    22499240.403
       225.000         182.000
  -7702620.31749  -5988004.78646  23021761.151    23021761.854    23021776.478
       230.000         184.000
  -9223101.49349  -7171443.03247  21194947.097    21194947.299    21194959.620
       241.000         207.000
   1035889.52249    810227.70347  20621635.052    20621635.040    20621646.321
       237.000         205.000
  -3927952.97149  -3046769.90546  23688895.301    23688895.691    23688911.420
       226.000         176.000
 01 12 19 20 58  0.0000000  0  7G28G 2G27G26G 7G 8G11
  -1094879.23249   -848719.74347  21014413.469    21014413.516    21014423.224
       239.000         207.000
   2987731.55949   2323266.51847  22362096.890    22362096.684    22362109.859
       236.000         203.000
   5512847.80449   4289949.52946  22512860.124    22512860.075    22512875.617
       225.000         181.000
  -7743551.87249  -6019899.38346  23013972.084    23013972.787    23013987.415
       229.000         185.000
  -9284182.90249  -7219038.83047  21183323.543    21183323.778    21183336.090
       241.000         207.000
   1070956.03149    837552.23947  20628307.980    20628307.977    20628319.289
       237.000         206.000
  -3936691.55049  -3053579.10546  23687232.430    23687232.751    23687248.411
       227.000         177.000
 01 12 19 20 58 30.0000000  0  7G28G 2G27G26G 7G 8G11
  -1090518.09149   -845321.43447  21015243.344    21015243.389    21015253.096
       238.000         207.000
   3022398.69149   2350279.85147  22368693.819    22368693.632    22368706.834
       236.000         203.000
   5584862.27449   4346064.56046  22526564.181    22526564.103    22526579.611
       225.000         179.000
  -7783920.05549  -6051354.98846  23006290.177    23006290.904    23006305.540
       230.000         185.000
  -9344817.86849  -7266286.74547  21171785.000    21171785.226    21171797.512
       243.000         208.000
   1106480.08349    865233.30647  20635068.054    20635068.012    20635079.325
       239.000         206.000
  -3944906.57549  -3059980.33846  23685669.039    23685669.420    23685685.039
       226.000         177.000
 01 12 19 20 59  0.0000000  0  7G28G 2G27G26G 7G 8G11
  -1085915.66349   -841735.10747  21016119.135    21016119.185    21016128.886
       238.000         207.000
   3057209.23749   2377404.92947  22375318.081    22375317.894    22375331.098
       236.000         202.000
   5657262.77949   4402480.38346  22540341.749    22540341.619    22540357.045
       224.000         179.000
  -7823698.40749  -6082350.99346  22998720.440    22998721.207    22998735.851
       228.000         184.000
  -9404980.22249  -7313166.39847  21160336.441    21160336.628    21160348.881
       242.000         209.000
   1142486.84249    893290.49647  20641920.035    20641919.917    20641931.192
       239.000         207.000
  -3952572.19749  -3065953.48146  23684210.162    23684210.619    23684226.202
       226.000         179.000
 01 12 19 20 59 30.0000000  0  7G28G 2G27G26G 7G 8G11
  -1081103.36749   -837985.24947  21017034.859    21017034.924    21017044.632
       238.000         207.000
   3092132.16749   2404617.58047  22381963.750    22381963.522    22381976.743
       235.000         202.000
   5730017.47049   4459172.20946  22554186.790    22554186.538    22554201.870
       225.000         178.000
  -7862917.03549  -6112910.84846  22991257.175    22991258.008    22991272.632
       228.000         184.000
  -9464700.12149  -7359701.27747  21148972.026    21148972.220    21148984.459
       242.000         210.000
   1178945.22849    921699.59947  20648857.966    20648857.791    20648868.994
       238.000         207.000
  -3959718.80449  -3071522.20246  23682850.209    23682850.647    23682866.162
       227.000         179.000
 01 12 19 21  0  0.0000000  0  7G28G 2G27G26G 7G 8G11
  -1076101.25049   -834087.48747  21017986.688    21017986.767    21017996.475
       239.000         207.000
   3127147.78449   2431902.45047  22388626.978    22388626.771    22388640.024
       236.000         202.000
   5803105.48949   4516123.76146  22568095.272    22568094.889    22568110.121
       225.000         178.000
  -7901594.63949  -6143049.13046  22983896.777    22983897.748    22983912.378
       230.000         183.000
  -9523996.36149  -7405906.03647  21137688.267    21137688.450    21137700.651
       244.000         211.000
   1215835.57649    950445.28647  20655878.060    20655877.839    20655888.975
       239.000         206.000
  -3966365.16149  -3076701.10446  23681585.528    23681585.838    23681601.372
       227.000         178.000
 01 12 19 21  0 30.0000000  0  7G28G 2G27G26G 7G 8G11
  -1070811.77249   -829965.80747  21018993.133    21018993.287    21019003.005
       238.000         206.000
   3162353.93049   2459335.78547  22395326.440    22395326.278    22395339.568
       235.000         202.000
   5876623.77749   4573410.59746  22582085.617    22582085.123    22582100.271
       225.000         178.000
  -7939632.39149  -6172688.81646  22976658.248    22976659.286    22976673.873
       229.000         183.000
  -9582770.18449  -7451703.71447  21126503.960    21126504.101    21126516.253
       243.000         211.000
   1253255.69549    979603.78747  20662998.852    20662998.648    20663009.763
       238.000         206.000
  -3972412.42249  -3081413.18346  23680434.776    23680435.037    23680450.612
       226.000         178.000
 01 12 19 21  1  0.0000000  0  7G28G 2G27G26G 7G 8G11
  -1065325.85349   -825691.06347  21020037.017    21020037.180    21020046.912
       239.000         207.000
   3197660.43149   2486847.31547  22402045.072    22402044.911    22402058.208
       235.000         202.000
   5950480.81849   4630961.40146  22596140.376    22596139.813    22596154.894
       225.000         177.000
  -7977119.85449  -6201899.70946  22969524.518    22969525.555    22969540.110
       229.000         184.000
  -9641111.31249  -7497164.23647  21115401.941    21115402.063    21115414.191
       243.000         211.000
   1291115.16549   1009104.64247  20670203.139    20670203.035    20670214.189
       237.000         205.000
  -3977950.58149  -3085728.56446  23679380.761    23679381.078    23679396.708
       226.000         177.000
 01 12 19 21  1 30.0000000  0  7G28G 2G27G26G 7G 8G11
  -1059620.94849   -821245.68247  21021122.658    21021122.798    21021132.518
       238.000         207.000
   3233090.19349   2514454.89247  22408787.183    22408787.008    22408800.296
       235.000         202.000
   6024698.70449   4688793.37446  22610263.683    22610263.120    22610278.170
       224.000         178.000
  -8014033.01149  -6230663.08946  22962500.148    22962501.143    22962515.627
       230.000         184.000
  -9698995.90149  -7542269.01247  21104386.771    21104386.921    21104399.030
       243.000         211.000
   1329436.79349   1038965.61947  20677495.338    20677495.347    20677506.586
       236.000         205.000
  -3982955.94649  -3089628.79346  23678428.053    23678428.501    23678444.123
       226.000         176.000
 01 12 19 21  2  0.0000000  0  7G28G 2G27G26G 7G 8G11
  -1053708.65949   -816638.69747  21022247.754    21022247.868    21022257.604
       238.000         207.000
   3268632.30249   2542150.01547  22415550.742    22415550.485    22415563.757
       236.000         201.000
   6099265.24749   4746897.04246  22624453.252    22624452.772    22624467.827
       225.000         178.000
  -8050382.30049  -6258987.09946  22955583.116    22955584.036    22955598.468
       230.000         185.000
  -9756434.42649  -7587026.20947  21093456.547    21093456.673    21093468.777
       244.000         212.000
   1368209.22549   1069177.86747  20684873.447    20684873.478    20684884.795
       238.000         205.000
  -3987438.99149  -3093122.00846  23677574.824    23677575.318    23677590.901
       226.000         176.000
 01 12 19 21  2 30.0000000  0  7G28G 2G27G26G 7G 8G11
  -1047571.58949   -811856.56547  21023415.617    21023415.721    21023425.438
       238.000         207.000
   3304304.63649   2569946.60447  22422338.984    22422338.724    22422351.994
       236.000         202.000
   6174197.13349   4805285.38946  22638712.289    22638711.912    22638727.022
       224.000         179.000
  -8086149.20549  -6286857.31546  22948776.841    22948777.744    22948792.177
       229.000         185.000
  -9813408.31349  -7631421.35447  21082614.735    21082614.850    21082626.920
       244.000         212.000
   1407450.25049   1099755.25247  20692340.873    20692340.838    20692352.170
       239.000         206.000
  -3991381.33149  -3096193.90046  23676824.705    23676825.088    23676840.576
       226.000         175.000
 01 12 19 21  3  0.0000000  0  7G28G 2G27G26G 7G 8G11
  -1041207.86749   -806897.82147  21024626.510    21024626.682    21024636.412
       239.000         207.000
   3340109.58449   2597846.52747  22429152.386    22429152.201    22429165.475
       236.000         202.000
   6249495.79149   4863959.54146  22653041.121    22653040.836    22653056.047
       224.000         179.000
  -8121330.25449  -6314271.02146  22942081.960    22942082.914    22942097.412
       230.000         186.000
  -9869914.41449  -7675451.98847  21071861.905    21071862.023    21071874.074
       244.000         211.000
   1447161.95349   1130699.38747  20699898.003    20699897.836    20699909.111
       240.000         206.000
  -3994779.81449  -3098841.98546  23676178.060    23676178.378    23676193.798
       227.000         175.000
 01 12 19 21  3 30.0000000  0  7G28G 2G27G26G 7G 8G11
  -1034630.22549   -801772.38147  21025878.197    21025878.363    21025888.118
       238.000         207.000
   3376034.66549   2625840.05447  22435988.668    22435988.557    22436001.833
       236.000         201.000
   6325147.82049   4922909.04146  22667437.176    22667437.009    22667452.319
       224.000         179.000
  -8155937.10649  -6341237.31046  22935496.338    22935497.336    22935511.906
       229.000         186.000
  -9925964.36549  -7719127.18647  21061195.861    21061196.006    21061208.028
       243.000         212.000
   1487332.05749   1162000.72847  20707542.347    20707542.066    20707553.295
       239.000         207.000
  -3997646.25449  -3101075.48946  23675632.505    23675632.861    23675648.319
       225.000         176.000
 01 12 19 21  4  0.0000000  0  7G28G 2G27G26G 7G 8G11
  -1027862.28049   -796498.65347  21027166.128    21027166.257    21027176.008
       239.000         207.000
   3412056.75549   2653909.16747  22442843.595    22442843.401    22442856.649
       238.000         201.000
   6401128.64649   4982114.74546  22681895.857    22681895.766    22681911.190
       224.000         179.000
  -8189992.51649  -6367773.91046  22929015.672    22929016.686    22929031.314
       230.000         187.000
  -9981580.94449  -7762464.69047  21050612.319    21050612.458    21050624.481
       243.000         211.000
   1527936.86449   1193640.79447  20715269.346    20715269.001    20715280.183
       240.000         207.000
  -4000003.57549  -3102912.28846  23675183.696    23675184.191    23675199.763
       226.000         177.000
 01 12 19 21  4 30.0000000  0  7G28G 2G27G26G 7G 8G11
  -1020842.81449   -791028.93147  21028501.944    21028502.022    21028511.752
       239.000         207.000
   3448237.69949   2682102.06247  22449728.753    22449728.479    22449741.667
       238.000         200.000
   6477498.98049   5041623.95346  22696428.704    22696428.661    22696444.202
       225.000         178.000
  -8223433.73649  -6393831.91146  22922651.889    22922652.928    22922667.574
       231.000         187.000
 -10036701.55749  -7805415.72847  21040123.166    21040123.281    21040135.298
       244.000         211.000
   1569038.03249   1225667.63847  20723090.742    20723090.363    20723101.548
       240.000         207.000
  -4001789.41749  -3104303.79146  23674843.707    23674844.284    23674859.879
       227.000         177.000
 01 12 19 21  5  0.0000000  0  7G28G 2G27G26G 7G 8G11
  -1013628.12949   -785407.09447  21029874.855    21029874.922    21029884.626
       238.000         207.000
   3484521.58649   2710375.16947  22456633.436    22456633.129    22456646.245
       235.000         199.000
   6554201.86349   5101392.29446  22711024.897    22711024.828    22711040.494
       224.000         179.000
  -8256316.13049  -6419454.46646  22916394.591    22916395.548    22916410.152
       231.000         186.000
 -10091381.57149  -7848023.44447  21029717.861    21029717.960    21029729.946
       243.000         211.000
   1610579.36149   1258037.46447  20730995.808    20730995.455    20731006.657
       239.000         207.000
  -4003058.99149  -3105293.01146  23674602.177    23674602.653    23674618.172
       227.000         176.000
 01 12 19 21  5 30.0000000  0  7G28G 2G27G26G 7G 8G11
  -1006157.19349   -779585.57947  21031296.504    21031296.594    21031306.291
       239.000         207.000
   3520969.98949   2738776.46247  22463569.256    22463569.036    22463582.113
       235.000         198.000
   6631297.57149   5161466.73646  22725695.856    22725695.763    22725711.514
       224.000         177.000
  -8288577.52749  -6444593.12046  22910255.577    22910256.412    22910270.889
       231.000         186.000
 -10145558.81149  -7890239.38647  21019408.287    21019408.326    21019420.265
       243.000         210.000
   1652621.94249   1290797.86647  20738996.225    20738995.922    20739007.126
       239.000         207.000
  -4003750.62649  -3105831.89546  23674470.758    23674471.043    23674486.443
       227.000         175.000
 01 12 19 21  6  0.0000000  0  7G28G 2G27G26G 7G 8G11
   -998486.06649   -773608.06447  21032756.275    21032756.355    21032766.077
       239.000         207.000
   3557527.46649   2767262.75047  22470525.842    22470525.689    22470538.728
       235.000         198.000
   6708729.27949   5221802.98346  22740430.734    22740430.634    22740446.496
       223.000         177.000
  -8320272.80749  -6469290.64846  22904224.175    22904224.953    22904239.339
       229.000         185.000
 -10199288.29649  -7932106.42847  21009183.896    21009183.899    21009195.809
       243.000         210.000
   1695110.07649   1323905.45447  20747081.428    20747081.151    20747092.383
       239.000         207.000
  -4003919.57749  -3105963.50646  23674438.608    23674438.842    23674454.177
       226.000         175.000
 01 12 19 21  6 30.0000000  0  7G28G 2G27G26G 7G 8G11
   -990590.52249   -767455.67747  21034258.709    21034258.809    21034268.536
       239.000         207.000
   3594218.36549   2795852.99847  22477507.923    22477507.756    22477520.776
       235.000         199.000
   6786520.32049   5282419.23246  22755234.026    22755233.869    22755249.826
       223.000         176.000
  -8351376.99649  -6493527.57546  22898305.063    22898305.933    22898320.246
       229.000         184.000
 -10252545.01249  -7973605.07747  20999049.402    20999049.425    20999061.334
       242.000         210.000
   1738067.97949   1357379.10247  20755256.041    20755255.789    20755267.015
       240.000         207.000
  -4003540.93049  -3105668.42046  23674510.409    23674510.788    23674526.149
       225.000         173.000
 01 12 19 21  7  0.0000000  0  7G28G 2G27G26G 7G 8G11
   -982501.70349   -761152.68647  21035797.833    21035798.025    21035807.751
       238.000         207.000
   3631012.14849   2824523.41447  22484509.607    22484509.406    22484522.432
       233.000         198.000
   6864639.00249   5343290.78346  22770099.640    22770099.457    22770115.494
       223.000         175.000
  -8381920.09349  -6517327.30646  22892492.621    22892493.645    22892507.946
       229.000         185.000
 -10305359.04249  -8014758.77947  20988999.138    20988999.178    20989011.086
       241.000         209.000
   1781464.72149   1391194.69247  20763514.202    20763513.958    20763525.153
       239.000         207.000
  -4002644.90349  -3104970.19446  23674680.597    23674681.177    23674696.620
       224.000         175.000
 01 12 19 21  7 30.0000000  0  7G28G 2G27G26G 7G 8G11
   -974177.05749   -754665.93747  21037381.918    21037382.141    21037391.843
       239.000         207.000
   3667952.08449   2853307.70747  22491539.068    22491538.862    22491551.930
       235.000         199.000
   6943127.19049   5404450.26346  22785035.515    22785035.341    22785051.442
       222.000         173.000
  -8411858.46549  -6540655.81546  22886795.350    22886796.451    22886810.749
       230.000         186.000
 -10357686.79049  -8055533.55247  20979041.335    20979041.439    20979053.353
       240.000         208.000
   1825342.95849   1425385.47547  20771864.018    20771863.756    20771874.953
       239.000         207.000
  -4001187.93349  -3103834.89646  23674957.703    23674958.370    23674973.846
       226.000         176.000
 01 12 19 21  8  0.0000000  0  7G28G 2G27G26G 7G 8G11
   -965646.55549   -748018.78047  21039005.252    21039005.435    21039015.149
       240.000         208.000
   3705008.70549   2882182.92347  22498590.700    22498590.542    22498603.665
       236.000         199.000
   7021954.13749   5465873.70646  22800035.887    22800035.723    22800051.871
       221.000         172.000
  -8441221.05949  -6563535.68446  22881207.781    22881208.853    22881223.142
       231.000         187.000
 -10409557.14749  -8095951.91647  20969170.576    20969170.740    20969182.657
       240.000         207.000
   1869672.91549   1459928.24847  20780299.793    20780299.518    20780310.739
       240.000         207.000
  -3999199.13049  -3102285.18946  23675336.274    23675336.805    23675352.253
       227.000         176.000
 01 12 19 21  8 30.0000000  0  7G28G 2G27G26G 7G 8G11
   -956910.35749   -741211.33647  21040667.740    21040667.880    21040677.621
       239.000         208.000
   3742182.14449   2911149.16247  22505664.575    22505664.444    22505677.631
       235.000         199.000
   7101118.62449   5527560.16046  22815100.540    22815100.334    22815116.495
       220.000         173.000
  -8470007.12549  -6585966.29647  22875729.975    22875731.006    22875745.292
       230.000         188.000
 -10460969.53549  -8136013.41747  20959386.980    20959387.190    20959399.109
       239.000         207.000
   1914454.18949   1494822.69847  20788821.416    20788821.168    20788832.435
       239.000         206.000
  -3996678.15449  -3100320.80646  23675816.058    23675816.496    23675831.906
       224.000         174.000
 01 12 19 21  9  0.0000000  0  7G28G 2G27G26G 7G 8G11
   -947929.96949   -734213.62847  21042376.651    21042376.802    21042386.533
       239.000         208.000
   3779511.41749   2940236.82447  22512768.131    22512768.009    22512781.229
       236.000         199.000
   7180658.36749   5589539.01446  22830236.665    22830236.391    22830252.528
       220.000         172.000
  -8498177.58849  -6607917.22747  22870369.353    22870370.319    22870384.626
       232.000         189.000
 -10511884.57649  -8175687.37447  20949698.082    20949698.282    20949710.193
       239.000         207.000
   1959725.40649   1530098.92047  20797436.277    20797436.030    20797447.361
       239.000         206.000
  -3993585.91049  -3097911.28446  23676404.349    23676404.874    23676420.201
       223.000         172.000
 01 12 19 21  9 30.0000000  0  7G28G 2G27G26G 7G 8G11
   -938766.77549   -727073.47147  21044120.363    21044120.506    21044130.194
       240.000         208.000
   3816935.46949   2969398.34447  22519889.772    22519889.611    22519902.811
       236.000         199.000
   7260511.20249   5651761.83146  22845432.415    22845432.079    22845448.133
       221.000         174.000
  -8525792.71849  -6629435.42247  22865114.385    22865115.288    22865129.627
       230.000         188.000
 -10562362.81049  -8215020.96447  20940092.322    20940092.520    20940104.392
       240.000         207.000
   2005425.34349   1565709.20847  20806132.691    20806132.470    20806143.869
       238.000         206.000
  -3989983.06849  -3095103.90446  23677089.765    23677090.421    23677105.675
       224.000         173.000
 01 12 19 21 10  0.0000000  0  7G28G 2G27G26G 7G 8G11
   -929366.59249   -719748.64847  21045909.204    21045909.327    21045918.952
       240.000         208.000
   3854509.11249   2998676.42747  22527039.911    22527039.696    22527052.852
       237.000         199.000
   7340730.56549   5714270.25346  22860697.958    22860697.553    22860713.485
       222.000         175.000
  -8552797.56449  -6650478.07646  22859975.485    22859976.361    22859990.728
       230.000         187.000
 -10612349.05949  -8253971.18747  20930580.195    20930580.385    20930592.214
       241.000         207.000
   2051608.11649   1601695.73647  20814920.956    20814920.777    20814932.254
       239.000         206.000
  -3985814.78949  -3091855.92946  23677882.961    23677883.629    23677898.798
       225.000         173.000
 01 12 19 21 10 30.0000000  0  7G28G 2G27G26G 7G 8G11
   -919774.45349   -712274.25747  21047734.571    21047734.655    21047744.260
       240.000         208.000
   3892187.96549   3028036.49247  22534210.059    22534209.826    22534222.937
       237.000         199.000
   7421270.34949   5777028.35246  22876024.429    22876023.967    22876039.820
       221.000         174.000
  -8579236.30249  -6671079.60846  22854944.284    22854945.122    22854959.512
       231.000         186.000
 -10661887.78749  -8292572.69747  20921153.238    20921153.415    20921165.217
       240.000         207.000
   2098228.59449   1638023.32447  20823792.521    20823792.378    20823803.927
       238.000         207.000
  -3981125.56549  -3088202.02146  23678775.509    23678776.028    23678791.101
       226.000         174.000
 01 12 19 21 11  0.0000000  0  7G28G 2G27G26G 7G 8G11
   -909956.12249   -704623.60547  21049602.947    21049603.012    21049612.629
       240.000         208.000
   3930006.73749   3057505.58347  22541406.746    22541406.534    22541419.681
       236.000         199.000
   7502163.99149   5840062.17746  22891418.173    22891417.702    22891433.494
       220.000         174.000
  -8605073.98649  -6691212.79746  22850027.522    22850028.304    22850042.635
       230.000         186.000
 -10710943.64949  -8330797.94647  20911818.179    20911818.339    20911830.093
       240.000         208.000
   2145321.14049   1674718.75547  20832753.942    20832753.833    20832765.413
       238.000         206.000
  -3975880.18749  -3084114.72646  23679773.894    23679774.294    23679789.293
       227.000         175.000
 01 12 19 21 11 30.0000000  0  7G28G 2G27G26G 7G 8G11
   -899943.19949   -696821.33147  21051508.341    21051508.426    21051518.009
       240.000         208.000
   3967934.34949   3087059.49147  22548624.061    22548623.916    22548637.171
       235.000         198.000
   7583379.10949   5903346.50546  22906873.078    22906872.544    22906888.349
       220.000         173.000
  -8630341.32049  -6710901.54946  22845219.262    22845220.026    22845234.284
       230.000         187.000
 -10759547.54149  -8368671.01047  20902569.090    20902569.246    20902580.969
       240.000         208.000
   2192854.20549   1711757.46147  20841799.224    20841799.110    20841810.717
       238.000         206.000
  -3970109.89249  -3079618.42646  23680872.040    23680872.366    23680887.404
       226.000         174.000
 01 12 19 21 12  0.0000000  0  7G28G 2G27G26G 7G 8G11
   -889696.38749   -688836.80347  21053458.257    21053458.342    21053467.883
       239.000         208.000
   4006010.58649   3116729.20747  22555869.691    22555869.586    22555882.938
       236.000         198.000
   7664954.06949   5966911.22646  22922396.402    22922395.870    22922411.646
       219.000         172.000
  -8654998.34349  -6730114.72746  22840527.087    22840527.883    22840542.080
       230.000         186.000
 -10807659.41249  -8406160.67947  20893413.646    20893413.787    20893425.455
       240.000         209.000
   2240866.81449   1749169.84447  20850935.729    20850935.619    20850947.274
       238.000         206.000
  -3963774.95749  -3074682.14146  23682077.486    23682077.831    23682092.963
       223.000         173.000
 01 12 19 21 12 30.0000000  0  7G28G 2G27G26G 7G 8G11
   -879261.50549   -680705.73247  21055443.951    21055444.037    21055453.553
       241.000         208.000
   4044190.12649   3146479.41347  22563135.188    22563135.005    22563148.331
       237.000         198.000
   7746841.97749   6030719.80046  22937979.253    22937978.732    22937994.524
       219.000         171.000
  -8679090.11649  -6748887.46546  22835942.442    22835943.288    22835957.433
       231.000         187.000
 -10855324.25949  -8443302.02247  20884343.274    20884343.397    20884355.029
       241.000         209.000
   2289313.03749   1786920.10547  20860154.738    20860154.623    20860166.321
       238.000         205.000
  -3956920.30949  -3069340.88246  23683381.781    23683382.164    23683397.352
       223.000         170.000
 01 12 19 21 13  0.0000000  0  7G28G 2G27G26G 7G 8G11
   -868602.36449   -672399.90547  21057472.330    21057472.415    21057481.933
       240.000         209.000
   4082509.45449   3176338.54847  22570427.356    22570427.051    22570440.311
       236.000         198.000
   7829077.99849   6094799.63246  22953628.296    22953627.806    22953643.615
       218.000         171.000
  -8702579.87249  -6767191.09546  22831472.428    22831473.275    22831487.375
       231.000         187.000
 -10902505.20749  -8480066.30047  20875364.991    20875365.098    20875376.705
       241.000         209.000
   2338228.97449   1825036.38147  20869463.146    20869463.046    20869474.744
       238.000         206.000
  -3949509.59549  -3063566.32946  23684791.936    23684792.349    23684807.550
       221.000         170.000
 01 12 19 21 13 30.0000000  0  7G28G 2G27G26G 7G 8G11
   -857736.98949   -663933.38447  21059540.031    21059540.055    21059549.546
       242.000         209.000
   4120950.95249   3206292.87947  22577742.678    22577742.318    22577755.546
       236.000         198.000
   7911643.14149   6159135.92946  22969340.021    22969339.550    22969355.383
       219.000         170.000
  -8725484.95749  -6785039.14046  22827113.734    22827114.525    22827128.590
       231.000         187.000
 -10949219.64149  -8516467.06547  20866475.505    20866475.572    20866487.166
       241.000         210.000
   2387596.58849   1863504.61747  20878857.541    20878857.438    20878869.123
       238.000         206.000
  -3941560.31849  -3057372.11246  23686304.687    23686305.047    23686320.222
       223.000         170.000
 01 12 19 21 14  0.0000000  0  7G28G 2G27G26G 7G 8G11
   -846677.49449   -655315.59847  21061644.679    21061644.668    21061654.090
       242.000         209.000
   4159503.15749   3236333.47647  22585078.976    22585078.615    22585091.872
       235.000         196.000
   7994524.26149   6223718.43646  22985111.844    22985111.426    22985127.269
       219.000         169.000
  -8747816.87849  -6802440.55946  22822864.060    22822864.843    22822878.895
       231.000         185.000
 -10995479.00749  -8552513.23847  20857672.566    20857672.641    20857684.227
       241.000         210.000
   2437403.42449   1902315.09747  20888335.561    20888335.405    20888347.076
       239.000         205.000
  -3933084.37549  -3050767.51146  23687917.717    23687918.035    23687933.124
       224.000         171.000
 01 12 19 21 14 30.0000000  0  7G28G 2G27G26G 7G 8G11
   -835414.54149   -646539.27647  21063787.965    21063787.957    21063797.354
       240.000         209.000
   4198175.89249   3266467.98647  22592438.192    22592437.843    22592451.146
       234.000         196.000
   8077729.73649   6288553.69046  23000945.447    23000945.029    23000960.934
       219.000         169.000
  -8769565.69949  -6819387.62746  22818725.246    22818726.087    22818740.093
       229.000         185.000
 -11041273.27249  -8588196.99647  20848958.120    20848958.201    20848969.786
       240.000         210.000
   2487658.81949   1941475.10147  20897898.887    20897898.707    20897910.377
       238.000         204.000
  -3924071.85849  -3043744.79546  23689632.826    23689633.118    23689648.169
       223.000         170.000
 01 12 19 21 15  0.0000000  0  7G28G 2G27G26G 7G 8G11
   -823930.26949   -637590.48447  21065973.316    21065973.343    21065982.750
       241.000         209.000
   4236987.51549   3296710.71547  22599823.940    22599823.533    22599836.866
       235.000         195.000
   8161276.42849   6353654.83146  23016844.022    23016843.577    23016859.528
       221.000         170.000
  -8790713.13649  -6835866.08246  22814700.912    22814701.774    22814715.717
       231.000         186.000
 -11086583.84949  -8623503.85347  20840335.732    20840335.828    20840347.397
       241.000         211.000
   2538380.42049   1980998.38047  20907550.910    20907550.728    20907562.398
       237.000         204.000
  -3914504.52549  -3036289.74746  23691453.511    23691453.782    23691468.852
       224.000         170.000
 01 12 19 21 15 30.0000000  0  7G28G 2G27G26G 7G 8G11
   -812240.10649   -628481.26047  21068197.882    21068197.927    21068207.310
       242.000         209.000
   4275923.03949   3327049.99847  22607233.191    22607232.788    22607246.124
       234.000         195.000
   8245147.80349   6419008.97446  23032804.406    23032803.925    23032819.924
       222.000         170.000
  -8811273.91149  -6851887.39946  22810788.350    22810789.157    22810802.996
       232.000         186.000
 -11131425.78549  -8658445.54047  20831802.525    20831802.649    20831814.205
       242.000         212.000
   2589552.45249   2020872.64647  20917288.638    20917288.452    20917300.112
       238.000         203.000
  -3904397.36949  -3028414.05046  23693376.833    23693377.105    23693392.232
       222.000         169.000
 01 12 19 21 16  0.0000000  0  7G28G 2G27G26G 7G 8G11
   -800387.49749   -619245.45647  21070453.392    21070453.430    21070462.777
       240.000         209.000
   4314939.44249   3357452.29147  22614657.760    22614657.402    22614670.807
       233.000         194.000
   8329299.30049   6484581.39246  23048818.082    23048817.621    23048833.618
       221.000         169.000
  -8831291.21049  -6867485.21847  22806979.239    22806979.971    22806993.766
       231.000         188.000
 -11175841.71049  -8693055.27147  20823350.414    20823350.546    20823362.117
       241.000         212.000
   2641131.10349   2061063.75747  20927103.765    20927103.559    20927115.212
       237.000         203.000
  -3893793.70949  -3020151.44046  23695394.644    23695394.878    23695410.111
       221.000         169.000
 01 12 19 21 16 30.0000000  0  7G28G 2G27G26G 7G 8G11
   -788339.56049   -609857.44647  21072745.997    21072746.048    21072755.403
       241.000         208.000
   4354070.23449   3387943.72147  22622104.050    22622103.759    22622117.270
       232.000         194.000
   8413762.85349   6550396.96846  23064891.149    23064890.687    23064906.689
       221.000         169.000
  -8850731.42749  -6882633.36147  22803279.920    22803280.625    22803294.354
       233.000         189.000
 -11219798.20949  -8727307.01147  20814985.736    20814985.857    20814997.434
       242.000         212.000
   2693149.22249   2101597.30347  20937002.495    20937002.300    20937013.937
       237.000         202.000
  -3882660.29849  -3011476.03846  23697513.244    23697513.467    23697528.748
       222.000         169.000
 01 12 19 21 17  0.0000000  0  7G28G 2G27G26G 7G 8G11
   -776061.23949   -600289.92147  21075082.408    21075082.489    21075091.869
       241.000         208.000
   4393350.80749   3418551.86147  22629578.907    22629578.639    22629592.244
       233.000         195.000
   8498572.41949   6616482.16246  23081030.003    23081029.564    23081045.604
       220.000         169.000
  -8869559.20449  -6897304.27547  22799697.087    22799697.805    22799711.513
       233.000         189.000
 -11263259.81849  -8761173.12747  20806715.234    20806715.329    20806726.916
       241.000         212.000
   2745641.47949   2142500.30547  20946991.407    20946991.230    20947002.908
       237.000         202.000
  -3870961.80449  -3002360.29546  23699739.491    23699739.654    23699754.886
       223.000         169.000
 01 12 19 21 17 30.0000000  0  7G28G 2G27G26G 7G 8G11
   -763547.84849   -590539.21547  21077463.649    21077463.723    21077473.111
       241.000         209.000
   4432786.35849   3449280.75747  22637083.364    22637083.051    22637096.710
       233.000         197.000
   8583731.45949   6682839.67346  23097235.356    23097234.921    23097251.033
       219.000         168.000
  -8887769.46149  -6911494.01147  22796231.805    22796232.493    22796246.204
       232.000         189.000
 -11306221.26049  -8794649.49747  20798539.893    20798539.977    20798551.570
       241.000         212.000
   2798612.30549   2183776.22347  20957071.350    20957071.241    20957082.948
       236.000         202.000
  -3858693.39449  -2992800.44246  23702074.291    23702074.316    23702089.455
       222.000         169.000
 01 12 19 21 18  0.0000000  0  7G28G 2G27G26G 7G 8G11
   -750838.76449   -580636.01747  21079882.131    21079882.209    21079891.567
       241.000         209.000
   4472337.90749   3480100.04347  22644609.890    22644609.554    22644623.217
       234.000         197.000
   8669199.55349   6749438.01346  23113499.377    23113499.042    23113515.281
       217.000         167.000
  -8905401.30149  -6925233.02947  22792876.568    22792877.225    22792890.959
       231.000         188.000
 -11348721.27249  -8827766.31447  20790452.319    20790452.413    20790464.022
       240.000         212.000
   2852022.09749   2225394.18647  20967234.901    20967234.820    20967246.532
       237.000         202.000
  -3845894.02149  -2982826.86246  23704510.027    23704509.971    23704525.070
       223.000         166.000
 01 12 19 21 18 30.0000000  0  7G28G 2G27G26G 7G 8G11
   -737921.26949   -570570.42047  21082340.202    21082340.288    21082349.680
       240.000         208.000
   4512018.85549   3511020.16647  22652161.092    22652160.709    22652174.321
       236.000         198.000
   8754988.30849   6816286.21346  23129824.422    23129824.160    23129840.537
       217.000         166.000
  -8922441.40849  -6938510.96746  22789633.819    22789634.522    22789648.322
       231.000         187.000
 -11390746.69849  -8860513.32347  20782455.033    20782455.158    20782466.770
       240.000         212.000
   2905883.17749   2267363.80247  20977484.416    20977484.290    20977495.980
       238.000         203.000
  -3832550.93349  -2972429.58746  23707049.145    23707049.078    23707064.156
       221.000         165.000
 01 12 19 21 19  0.0000000  0  7G28G 2G27G26G 7G 8G11
   -724808.61349   -560352.75447  21084835.407    21084835.524    21084844.898
       241.000         208.000
   4551816.42449   3542031.15947  22659734.556    22659734.085    22659747.607
       237.000         199.000
   8841083.29049   6883373.01746  23146207.684    23146207.516    23146224.030
       216.000         164.000
  -8938902.90849  -6951338.03946  22786501.092    22786501.883    22786515.731
       231.000         186.000
 -11432310.27149  -8892900.45047  20774545.647    20774545.786    20774557.407
       240.000         211.000
   2960181.95549   2309674.47547  20987817.277    20987817.087    20987828.738
       240.000         203.000
  -3818677.07649  -2961618.72846  23709689.093    23709689.147    23709704.253
       221.000         166.000
 01 12 19 21 19 30.0000000  0  7G28G 2G27G26G 7G 8G11
   -711509.51549   -549989.79847  21087366.170    21087366.259    21087375.613
       241.000         209.000
   4591722.33749   3573126.58647  22667328.588    22667328.064    22667341.538
       236.000         198.000
   8927474.79349   6950690.86546  23162647.274    23162647.265    23162663.939
       211.000         163.000
  -8954793.99549  -6963720.62346  22783476.960    22783477.818    22783491.618
       232.000         185.000
 -11473420.23449  -8924934.10647  20766722.607    20766722.734    20766734.367
       240.000         212.000
   3014909.47149   2352319.23847  20998231.699    20998231.466    20998243.075
       239.000         203.000
  -3804280.98549  -2950400.93846  23712428.406    23712428.534    23712443.734
       219.000         165.000
 01 12 19 21 20  0.0000000  0  7G28G 2G27G26G 7G 8G11
   -697998.88149   -539462.01247  21089937.169    21089937.249    21089946.631
       241.000         208.000
   4631762.01649   3604326.23647  22674947.916    22674947.434    22674960.956
       234.000         197.000
   9014186.58049   7018258.27845  23179147.848    23179147.949    23179164.800
       209.000         161.000
  -8970089.44349  -6975639.08146  22780566.328    22780567.144    22780580.814
       233.000         186.000
 -11514051.32949  -8956594.62647  20758990.682    20758990.835    20759002.460
       240.000         212.000
   3070090.39549   2395317.29447  21008732.351    21008732.098    21008743.703
       238.000         203.000
  -3789337.81249  -2938756.85746  23715271.840    23715272.075    23715287.310
       220.000         165.000
 01 12 19 21 20 30.0000000  0  7G28G 2G27G26G 7G 8G11
   -684342.76349   -528820.85847  21092535.798    21092535.883    21092545.276
       242.000         208.000
   4671869.90849   3635579.04247  22682580.111    22682579.753    22682593.363
       236.000         198.000
   9101151.34649   7086022.81245  23195696.622    23195696.844    23195713.771
       209.000         161.000
  -8984855.30249  -6987144.86346  22777756.511    22777757.287    22777770.816
       235.000         186.000
 -11554269.14049  -8987933.10547  20751337.457    20751337.591    20751349.216
       242.000         212.000
   3125657.93249   2438616.60847  21019306.524    21019306.293    21019317.915
       239.000         203.000
  -3773913.48849  -2926737.85646  23718206.833    23718207.170    23718222.449
       221.000         165.000
 01 12 19 21 21  0.0000000  0  7G28G 2G27G26G 7G 8G11
   -670474.50649   -518014.40147  21095174.812    21095174.916    21095184.290
       241.000         208.000
   4712113.19649   3666937.35947  22690238.174    22690237.853    22690251.533
       235.000         198.000
   9188434.80949   7154035.67746  23212306.222    23212306.438    23212323.378
       212.000         163.000
  -8999024.46849  -6998185.69047  22775060.203    22775060.974    22775074.390
       234.000         188.000
 -11594006.35849  -9018897.09847  20743775.745    20743775.804    20743787.406
       241.000         212.000
   3181678.66249   2482269.06147  21029966.965    21029966.724    21029978.384
       238.000         203.000
  -3757941.34449  -2914292.01346  23721246.039    23721246.493    23721261.865
       219.000         165.000
 01 12 19 21 21 30.0000000  0  7G28G 2G27G26G 7G 8G11
   -656432.95149   -507072.91847  21097846.861    21097846.946    21097856.287
       242.000         208.000
   4752453.57049   3698371.32947  22697914.864    22697914.472    22697928.185
       237.000         198.000
   9275996.80549   7222265.57746  23228968.890    23228969.082    23228986.014
       214.000         164.000
  -9012635.64649  -7008791.72547  22772470.038    22772470.817    22772484.179
       233.000         188.000
 -11633301.72649  -9049516.79547  20736298.107    20736298.121    20736309.678
       242.000         212.000
   3238113.30749   2526244.04447  21040706.148    21040705.905    21040717.622
       238.000         203.000
  -3741459.86249  -2901449.30146  23724382.193    23724382.742    23724398.202
       219.000         165.000
 01 12 19 21 22  0.0000000  0  7G28G 2G27G26G 7G 8G11
   -642194.80849   -495978.24247  21100556.282    21100556.373    21100565.719
       241.000         208.000
   4792914.85349   3729899.51447  22705614.536    22705614.105    22705627.831
       234.000         197.000
   9363859.24349   7290729.60446  23245688.742    23245688.916    23245705.839
       214.000         166.000
  -9025665.46749  -7018944.75947  22769990.410    22769991.223    22770004.632
       233.000         188.000
 -11672131.46949  -9079773.66547  20728909.041    20728909.035    20728920.549
       240.000         212.000
   3294984.41049   2570559.12647  21051528.359    21051528.136    21051539.921
       237.000         203.000
  -3724446.03449  -2888191.78346  23727619.778    23727620.325    23727635.872
       218.000         163.000
 01 12 19 21 22 30.0000000  0  7G28G 2G27G26G 7G 8G11
   -627728.28949   -484705.61847  21103309.174    21103309.244    21103318.608
       241.000         209.000
   4833529.27949   3761547.03747  22713343.224    22713342.833    22713356.625
       233.000         197.000
   9452052.74349   7359451.58746  23262471.675    23262471.782    23262488.656
       217.000         166.000
  -9038081.96549  -7028619.88647  22767627.524    22767628.379    22767641.798
       232.000         188.000
 -11710463.54849  -9109642.74847  20721614.699    20721614.661    20721626.108
       240.000         212.000
   3352323.50649   2615238.88347  21062439.585    21062439.413    21062451.276
       237.000         203.000
  -3706868.03149  -2874494.65145  23730964.834    23730965.270    23730980.903
       218.000         161.000
 01 12 19 21 23  0.0000000  0  7G28G 2G27G26G 7G 8G11
   -613079.33849   -473290.84047  21106096.816    21106096.864    21106106.201
       242.000         209.000
   4874251.09249   3793278.25147  22721092.291    22721091.982    22721105.829
       233.000         196.000
   9540529.93749   7428394.63946  23279308.671    23279308.678    23279325.427
       217.000         167.000
  -9049931.10349  -7037852.91047  22765372.687    22765373.517    22765386.975
       232.000         188.000
 -11748343.69349  -9139159.67447  20714406.303    20714406.281    20714417.682
       240.000         211.000
   3410083.99649   2660246.99547  21073431.037    21073430.889    21073442.840
       238.000         204.000
  -3688771.99749  -2860393.88445  23734408.703    23734408.915    23734424.547
       220.000         161.000
 01 12 19 21 23 30.0000000  0  7G28G 2G27G26G 7G 8G11
   -598222.61649   -461714.16847  21108923.975    21108924.027    21108933.329
       241.000         209.000
   4915106.15149   3825113.29447  22728866.752    22728866.506    22728880.356
       233.000         195.000
   9629314.90749   7497577.50846  23296204.266    23296204.161    23296220.804
       220.000         168.000
  -9061187.52849  -7046624.08747  22763230.581    22763231.422    22763244.951
       231.000         189.000
 -11785746.32349  -9168304.50947  20707288.734    20707288.746    20707300.122
       239.000         211.000
   3468290.64549   2705602.76647  21084507.457    21084507.285    21084519.286
       237.000         204.000
  -3670132.69649  -2845869.80845  23737955.942    23737955.963    23737971.521
       218.000         158.000
 01 12 19 21 24  0.0000000  0  7G28G 2G27G26G 7G 8G11
   -583166.87149   -449982.42447  21111788.887    21111789.006    21111798.315
       241.000         208.000
   4956086.19449   3857045.73047  22736665.055    22736664.792    22736678.647
       232.000         193.000
   9718397.59149   7566992.38046  23313156.438    23313156.239    23313172.913
       220.000         168.000
  -9071859.98849  -7054940.21747  22761199.527    22761200.433    22761214.061
       233.000         188.000
 -11822679.84549  -9197083.80947  20700260.457    20700260.485    20700271.827
       240.000         211.000
   3526934.17349   2751298.95247  21095667.057    21095666.828    21095678.882
       238.000         204.000
  -3650959.03249  -2830929.36645  23741604.649    23741604.655    23741620.059
       217.000         156.000
 01 12 19 21 24 30.0000000  0  7G28G 2G27G26G 7G 8G11
   -567882.97849   -438072.89847  21114697.265    21114697.407    21114706.736
       242.000         209.000
   4997220.79949   3889098.61147  22744492.715    22744492.480    22744506.358
       232.000         192.000
   9807805.71149   7636660.82446  23330170.466    23330170.241    23330186.955
       218.000         167.000
  -9081919.19949  -7062778.49446  22759285.259    22759286.151    22759299.854
       233.000         187.000
 -11859114.93449  -9225474.72347  20693327.089    20693327.083    20693338.389
       240.000         211.000
   3586043.25349   2797357.90447  21106915.229    21106914.959    21106927.061
       237.000         203.000
  -3631221.76049  -2815549.77045  23745360.442    23745360.550    23745375.817
       216.000         156.000
 01 12 19 21 25  0.0000000  0  7G28G 2G27G26G 7G 8G11
   -552437.87949   -426037.76547  21117636.440    21117636.533    21117645.815
       243.000         209.000
   5038443.53549   3921220.15947  22752337.224    22752336.939    22752350.888
       232.000         192.000
   9897471.18649   7706529.82146  23347233.437    23347233.190    23347250.003
       221.000         167.000
  -9091432.29049  -7070191.23346  22757475.016    22757475.861    22757489.507
       235.000         187.000
 -11895118.33449  -9253529.25547  20686475.871    20686475.844    20686487.099
       241.000         211.000
   3645550.31949   2843726.97347  21118239.062    21118238.800    21118250.970
       238.000         203.000
  -3610988.23549  -2799783.49045  23749210.741    23749210.868    23749226.049
       218.000         156.000
 01 12 19 21 25 30.0000000  0  7G28G 2G27G26G 7G 8G11
   -536791.98749   -413846.18047  21120613.826    21120613.874    21120623.094
       242.000         209.000
   5079794.49549   3953441.61747  22760206.176    22760205.837    22760219.840
       232.000         192.000
   9987432.32049   7776629.19546  23364352.734    23364352.439    23364369.310
       218.000         166.000
  -9100359.57749  -7077147.50946  22755776.223    22755777.040    22755790.593
       233.000         187.000
 -11930650.06449  -9281216.25647  20679714.411    20679714.348    20679725.584
       240.000         211.000
   3705494.40449   2890436.57947  21129645.986    21129645.805    21129658.014
       236.000         203.000
  -3590218.85749  -2783599.67745  23753163.165    23753163.193    23753178.336
       217.000         156.000
 01 12 19 21 26  0.0000000  0  7G28G 2G27G26G 7G 8G11
   -520969.38849   -401516.90147  21123624.730    21123624.801    21123634.027
       242.000         209.000
   5121250.11149   3985744.63247  22768095.010    22768094.647    22768108.675
       231.000         191.000
  10077663.60449   7846939.07146  23381523.377    23381523.034    23381540.056
       218.000         165.000
  -9108725.21449  -7083666.13347  22754184.242    22754185.076    22754198.557
       233.000         188.000
 -11965734.18149  -9308554.47147  20673038.082    20673038.023    20673049.226
       239.000         210.000
   3765850.85249   2937467.51047  21141131.437    21141131.291    21141143.517
       237.000         202.000
  -3568937.85949  -2767017.19445  23757212.897    23757212.901    23757228.025
       215.000         154.000
 01 12 19 21 26 30.0000000  0  7G28G 2G27G26G 7G 8G11
   -504945.04549   -389030.42247  21126674.108    21126674.146    21126683.377
       242.000         210.000
   5162835.43249   4018148.72047  22776008.424    22776008.111    22776022.162
       230.000         191.000
  10168188.33049   7917477.61446  23398749.847    23398749.459    23398766.645
       218.000         163.000
  -9116504.67149  -7089727.99547  22752703.836    22752704.655    22752718.085
       232.000         188.000
 -12000345.70449  -9335524.42647  20666451.602    20666451.596    20666462.778
       238.000         209.000
   3826643.84849   2984838.61547  21152699.971    21152699.863    21152712.081
       236.000         202.000
  -3547120.99249  -2750017.15845  23761364.468    23761364.534    23761379.720
       214.000         154.000
 01 12 19 21 27  0.0000000  0  7G28G 2G27G26G 7G 8G11
   -488704.20549   -376375.25347  21129764.739    21129764.734    21129773.945
       243.000         210.000
   5204566.16149   4050666.11247  22783949.553    22783949.242    22783963.302
       231.000         190.000
  10259020.36049   7988255.60845  23416034.727    23416034.368    23416051.694
       217.000         162.000
  -9123682.98549  -7095321.44747  22751337.813    22751338.622    22751352.006
       233.000         189.000
 -12034469.54949  -9362114.38247  20659957.868    20659957.953    20659969.125
       237.000         208.000
   3887887.47749   3032560.85347  21164354.298    21164354.174    21164366.383
       236.000         201.000
  -3524753.13249  -2732587.78745  23765620.931    23765620.988    23765636.223
       213.000         154.000
 01 12 19 21 27 30.0000000  0  7G28G 2G27G26G 7G 8G11
   -472296.86949   -363590.34647  21132886.999    21132886.993    21132896.181
       243.000         210.000
   5246392.74149   4083258.19547  22791908.986    22791908.661    22791922.697
       232.000         190.000
  10350108.24349   8059232.95745  23433368.452    23433368.012    23433385.476
       218.000         162.000
  -9130310.20449  -7100485.47647  22750076.618    22750077.437    22750090.828
       234.000         189.000
 -12068155.38949  -9388363.03147  20653547.530    20653547.656    20653558.848
       238.000         209.000
   3949531.55449   3080595.14147  21176084.789    21176084.672    21176096.885
       236.000         200.000
  -3501884.59749  -2714768.28345  23769972.772    23769972.747    23769987.970
       214.000         151.000
 01 12 19 21 28  0.0000000  0  7G28G 2G27G26G 7G 8G11
   -455685.74249   -350646.64147  21136047.937    21136047.965    21136057.166
       241.000         209.000
   5288352.69749   4115954.21447  22799893.861    22799893.479    22799907.479
       231.000         189.000
  10441487.56249   8130437.40445  23450757.580    23450757.136    23450774.719
       216.000         161.000
  -9136349.71349  -7105191.55147  22748927.350    22748928.103    22748941.517
       234.000         189.000
 -12101366.21049  -9414241.54447  20647227.764    20647227.820    20647238.998
       238.000         210.000
   4011612.24249   3128969.64947  21187898.374    21187898.241    21187910.481
       235.000         200.000
  -3478479.02849  -2696530.30945  23774426.797    23774426.749    23774441.840
       212.000         148.000
 01 12 19 21 28 30.0000000  0  7G28G 2G27G26G 7G 8G11
   -438869.09949   -337542.80447  21139247.979    21139248.056    21139257.273
       241.000         209.000
   5330448.20749   4148755.86547  22807904.389    22807904.049    22807918.062
       229.000         188.000
  10533158.65149   8201869.19445  23468202.268    23468201.760    23468219.462
       215.000         160.000
  -9141799.94749  -7109438.44547  22747890.306    22747890.972    22747904.377
       234.000         189.000
 -12134100.37349  -9439748.63947  20640998.677    20640998.703    20641009.859
       238.000         210.000
   4074130.41649   3177685.05647  21199795.174    21199795.061    21199807.340
       235.000         200.000
  -3454534.61749  -2677872.46745  23778983.314    23778983.303    23778998.174
       211.000         148.000
 01 12 19 21 29  0.0000000  0  8G28G 2G27G26G 4G 7G 8G11
   -421872.41349   -324298.67447  21142482.389    21142482.435    21142491.668
       243.000         210.000
   5372654.48249   4181643.82347  22815935.859    22815935.619    22815949.697
       230.000         188.000
  10625094.74649   8273507.49545  23485697.289    23485696.786    23485714.659
       213.000         159.000
  -9146686.36049  -7113245.99647  22746960.502    22746961.137    22746974.522
       234.000         189.000
    -72735.03755                  24861624.218
       217.000         145.000
 -12166382.95049  -9464903.84447  20634855.513    20634855.517    20634866.638
       239.000         211.000
   4137060.01249   3226721.06047  21211770.272    21211770.159    21211782.501
       235.000         199.000
  -3430077.39249  -2658815.03145  23783637.420    23783637.461    23783652.161
       212.000         148.000
 01 12 19 21 29 30.0000000  0  8G28G 2G27G26G 4G 7G 8G11
   -404698.36049   -310916.33447  21145750.554    21145750.574    21145759.841
       242.000         210.000
   5414969.20449   4214616.28147  22823988.072    22823987.842    22824001.943
       231.000         188.000
  10717291.80649   8345349.13945  23503242.026    23503241.433    23503259.426
       215.000         158.000
  -9151012.03149  -7116616.61147  22746137.254    22746137.937    22746151.343
       234.000         188.000
   -231971.05959   -157259.30055  24840979.157    24840977.713    24840999.861
       201.000         144.000
 -12198216.64149  -9489709.27447  20628797.756    20628797.743    20628808.839
       239.000         211.000
   4200397.67849   3276075.03847  21223823.079    21223822.927    21223835.329
       236.000         200.000
  -3405110.32449  -2639360.28245  23788388.561    23788388.666    23788403.291
       211.000         149.000
 01 12 19 21 30  0.0000000  0  8G28G 2G27G26G 4G 7G 8G11
   -387311.94249   -297368.51347  21149059.103    21149059.115    21149068.403
       243.000         210.000
   5457427.71649   4247700.78547  22832067.800    22832067.490    22832081.537
       232.000         189.000
  10809783.14549   8417420.09445  23520842.748    23520842.150    23520860.142
       215.000         157.000
  -9154742.50049  -7119523.42546  22745427.125    22745427.939    22745441.358
       233.000         186.000
   -340509.95448   -241834.07145  24820321.124    24820320.137    24820348.559
       191.000         144.000
 -12229566.60749  -9514137.77047  20622832.032    20622832.021    20622843.097
       240.000         210.000
   4264177.67449   3325773.69647  21235960.100    21235959.880    21235972.354
       237.000         201.000
  -3379598.94949  -2619481.39545  23793243.276    23793243.351    23793258.098
       211.000         149.000
 01 12 19 21 30 30.0000000  0  8G28G 2G27G26G 4G 7G 8G11
   -369687.28649   -283635.05347  21152413.037    21152413.027    21152422.267
       243.000         210.000
   5500056.32849   4280917.83747  22840179.870    22840179.520    22840193.530
       232.000         189.000
  10902593.00249   8489739.24245  23538504.154    23538503.460    23538521.433
       211.000         158.000
  -9157852.12549  -7121946.46146  22744835.209    22744836.065    22744849.500
       232.000         186.000
   -449084.82149   -326437.01745  24799659.995    24799656.599    24799689.135
       213.000         152.000
 -12260406.95249  -9538169.15947  20616963.294    20616963.271    20616974.351
       238.000         210.000
   4328424.88149   3375836.41947  21248186.065    21248185.767    21248198.289
       238.000         202.000
  -3353517.73849  -2599158.44945  23798206.357    23798206.449    23798221.382
       209.000         148.000
 01 12 19 21 31  0.0000000  0  8G28G 2G27G26G 4G 7G 8G11
   -351920.29749   -269790.68347  21155794.046    21155794.013    21155803.211
       243.000         210.000
   5542759.34349   4314192.87347  22848305.959    22848305.670    22848319.699
       231.000         190.000
  10995624.05749   8562230.74345  23556207.392    23556206.817    23556224.807
       211.000         157.000
  -9160437.34249  -7123960.88347  22744343.219    22744344.049    22744357.439
       234.000         188.000
   -557789.08049   -411140.78045  24778975.958    24778973.378    24779002.028
       219.000         156.000
 -12290833.80349  -9561878.35047  20611173.276    20611173.210    20611184.264
       239.000         210.000
   4393042.52549   3426187.78847  21260482.558    21260482.178    21260494.715
       238.000         202.000
  -3326963.05249  -2578466.55545  23803259.538    23803259.693    23803274.837
       211.000         148.000
 01 12 19 21 31 30.0000000  0  8G28G 2G27G26G 4G 7G 8G11
   -333950.21749   -255788.04747  21159213.594    21159213.616    21159222.828
       242.000         210.000
   5585598.18949   4347573.75347  22856457.808    22856457.633    22856471.735
       230.000         190.000
  11088935.82349   8634940.98045  23573964.149    23573963.604    23573981.549
       211.000         157.000
  -9162437.46949  -7125519.38747  22743962.693    22743963.443    22743976.770
       233.000         189.000
   -666558.92849   -495895.53745  24758278.599    24758277.404    24758301.764
       217.000         150.000
 -12320785.99449  -9585217.67447  20605473.549    20605473.486    20605484.474
       238.000         209.000
   4458090.95349   3476874.83447  21272860.986    21272860.561    21272873.115
       237.000         202.000
  -3299874.65549  -2557358.77345  23808414.439    23808414.603    23808429.794
       210.000         147.000
 01 12 19 21 32  0.0000000  0  8G28G 2G27G26G 4G 7G 8G11
   -315793.69049   -241640.11647  21162668.650    21162668.683    21162677.959
       243.000         210.000
   5628556.62349   4381047.81847  22864632.570    22864632.365    22864646.505
       232.000         190.000
  11182509.87449   8707855.59845  23591770.758    23591770.258    23591788.240
       208.000         156.000
  -9163869.90849  -7126635.53247  22743690.145    22743690.859    22743704.153
       234.000         189.000
   -775408.37149   -580712.44645  24737564.248    24737563.542    24737587.148
       208.000         148.000
 -12350280.64649  -9608200.47147  20599860.880    20599860.809    20599871.752
       238.000         208.000
   4523552.17949   3527883.53847  21285317.958    21285317.520    21285330.045
       237.000         201.000
  -3272269.88749  -2535848.61845  23813667.735    23813667.755    23813682.858
       211.000         146.000
 01 12 19 21 32 30.0000000  0  8G28G 2G27G26G 4G 7G 8G11
   -297450.01349   -227346.36247  21166159.429    21166159.415    21166168.680
       244.000         210.000
   5671635.85149   4414615.99747  22872830.461    22872830.138    22872844.242
       233.000         190.000
  11276345.35549   8780973.91545  23609626.985    23609626.699    23609644.657
       210.000         157.000
  -9164734.39049  -7127309.12947  22743525.647    22743526.327    22743539.615
       234.000         190.000
   -884333.63058   -665588.49155  24716831.987    24716833.809    24716859.361
       173.000         146.000
 -12379317.06049  -9630826.21247  20594335.363    20594335.315    20594346.232
       239.000         209.000
   4589426.27949   3579213.95547  21297853.481    21297853.036    21297865.546
       237.000         201.000
  -3244148.56549  -2513935.95645  23819019.392    23819019.232    23819034.222
       210.000         145.000
 01 12 19 21 33  0.0000000  0  8G28G 2G27G26G 4G 7G 8G11
   -278895.52949   -212888.33647  21169690.295    21169690.261    21169699.500
       243.000         210.000
   5714859.79749   4448296.94647  22881055.903    22881055.455    22881069.522
       231.000         190.000
  11370464.60949   8854313.36045  23627537.359    23627537.147    23627555.151
       210.000         156.000
  -9165007.71549  -7127522.08647  22743473.562    22743474.292    22743487.594
       233.000         189.000
   -993308.38959   -750503.10955  24696093.938    24696095.403    24696122.672
       213.000         157.000
 -12407871.71549  -9653076.55247  20588901.480    20588901.486    20588912.370
       237.000         208.000
   4655736.10449   3630883.89947  21310471.870    21310471.465    21310483.956
       236.000         201.000
  -3215487.54349  -2491602.73345  23824473.564    23824473.384    23824488.318
       211.000         145.000
 01 12 19 21 33 30.0000000  0  8G28G 2G27G26G 4G 7G 8G11
   -260143.02049   -198275.99147  21173258.700    21173258.733    21173268.004
       242.000         209.000
   5758215.98449   4482080.94047  22889306.336    22889305.912    22889319.989
       231.000         190.000
  11464853.15349   8927862.64045  23645499.011    23645498.823    23645516.822
       211.000         155.000
  -9164703.29749  -7127284.85247  22743531.420    22743532.178    22743545.506
       234.000         189.000
  -1102342.74549   -835464.25245  24675346.978    24675347.124    24675374.490
       222.000         157.000
 -12435957.60949  -9674961.62647  20583556.785    20583556.870    20583567.712
       238.000         209.000
   4722467.53549   3682882.35447  21323170.414    21323170.076    21323182.571
       236.000         200.000
  -3186300.24749  -2468859.41345  23830027.709    23830027.544    23830042.519
       210.000         144.000
 01 12 19 21 34  0.0000000  0  8G28G 2G27G26G 4G 7G 8G11
   -241232.31249   -183540.37247  21176857.201    21176857.304    21176866.626
       242.000         210.000
   5801665.17149   4515937.39547  22897574.389    22897574.023    22897588.164
       230.000         189.000
  11559469.55249   9001589.47745  23663503.966    23663503.829    23663521.892
       210.000         154.000
  -9163861.44949  -7126628.84047  22743691.654    22743692.355    22743705.676
       234.000         188.000
  -1211473.47049   -920500.40845  24654580.889    24654580.535    24654607.193
       217.000         154.000
 -12463614.61249  -9696512.49247  20578293.812    20578293.884    20578304.713
       238.000         209.000
   4789580.25849   3735177.92347  21335941.485    21335941.202    21335953.753
       236.000         200.000
  -3156627.40349  -2445737.75645  23835674.074    23835674.076    23835689.182
       207.000         144.000
 01 12 19 21 34 30.0000000  0  8G28G 2G27G26G 4G 7G 8G11
   -222127.01149   -168653.11247  21180492.886    21180492.947    21180502.298
       243.000         210.000
   5845244.14549   4549894.98147  22905867.208    22905866.881    22905881.048
       229.000         189.000
  11654348.57449   9075520.94845  23681558.806    23681558.784    23681576.869
       209.000         154.000
  -9162446.32249  -7125526.12146  22743960.977    22743961.647    22743974.903
       232.000         187.000
  -1320661.14349  -1005580.98445  24633801.732    24633802.056    24633828.244
       197.000         143.000
 -12490806.64749  -9717701.04147  20573119.327    20573119.384    20573130.215
       237.000         209.000
   4857109.51549   3787798.05847  21348791.831    21348791.621    21348804.195
       235.000         199.000
  -3126432.97449  -2422209.62445  23841419.699    23841419.823    23841435.131
       207.000         143.000
 01 12 19 21 35  0.0000000  0  8G28G 2G27G26G 4G 7G 8G11
   -202843.54849   -153627.02347  21184162.509    21184162.509    21184171.832
       243.000         210.000
   5888936.83749   4583941.17047  22914181.736    22914181.403    22914195.534
       230.000         189.000
  11749472.23649   9149643.04145  23699660.289    23699660.355    23699678.380
       212.000         154.000
  -9160474.96849  -7123989.98246  22744336.033    22744336.737    22744349.928
       233.000         186.000
  -1429919.29349  -1090716.52745  24613008.234    24613009.948    24613036.314
       204.000         149.000
 -12517550.14449  -9738540.08347  20568030.186    20568030.224    20568041.081
       238.000         209.000
   4925038.03349   3840729.29747  21361718.187    21361718.010    21361730.601
       237.000         199.000
  -3095734.08449  -2398288.41845  23847261.559    23847261.595    23847277.093
       210.000         144.000
 01 12 19 21 35 30.0000000  0  8G28G 2G27G26G 4G 7G 8G11
   -183357.87149   -138443.35847  21187870.452    21187870.484    21187879.842
       242.000         209.000
   5932767.64549   4618094.98447  22922522.519    22922522.175    22922536.293
       230.000         189.000
  11844862.79749   9223973.10645  23717812.655    23717812.744    23717830.795
       212.000         154.000
  -9157924.07649  -7122002.23846  22744821.374    22744822.117    22744835.235
       233.000         187.000
  -1539221.27349  -1175886.22845  24592209.795    24592210.128    24592236.765
       221.000         160.000
 -12543821.48049  -9759011.19947  20563030.882    20563030.906    20563041.800
       237.000         208.000
   4993388.83349   3893989.58447  21374724.998    21374724.798    21374737.380
       237.000         199.000
  -3064507.47449  -2373956.01645  23853203.873    23853203.839    23853219.461
       209.000         144.000
 01 12 19 21 36  0.0000000  0  8G28G 2G27G26G 4G 7G 8G11
   -163667.29349   -123100.03147  21191617.386    21191617.444    21191626.843
       242.000         209.000
   5976739.89649   4652359.00847  22930890.157    22930889.830    22930903.950
       228.000         188.000
  11940521.44749   9298512.08245  23736016.168    23736016.208    23736034.166
       214.000         154.000
  -9154791.48649  -7119561.23146  22745417.478    22745418.224    22745431.292
       233.000         187.000
  -1648561.33849  -1261085.61145  24571403.617    24571403.487    24571430.289
       217.000         158.000
 -12569617.99549  -9779112.33147  20558121.923    20558121.945    20558132.827
       237.000         207.000
   5062163.89649   3947580.46147  21387812.596    21387812.364    21387824.893
       236.000         199.000
  -3032751.23849  -2349210.91245  23859246.899    23859246.893    23859262.567
       208.000         142.000
 01 12 19 21 36 30.0000000  0  8G28G 2G27G26G 4G 7G 8G11
   -143801.90449   -107620.48447  21195397.663    21195397.711    21195407.126
       242.000         210.000
   6020823.86849   4686710.08647  22939279.052    22939278.770    22939292.881
       229.000         188.000
  12036416.42949   9373235.20445  23754264.678    23754264.642    23754282.541
       210.000         154.000
  -9151108.13949  -7116691.06047  22746118.484    22746119.158    22746132.195
       234.000         189.000
  -1757966.86449  -1346336.05845  24550583.098    24550583.455    24550611.198
       201.000         151.000
 -12594970.20749  -9798867.24347  20553297.540    20553297.545    20553308.363
       236.000         207.000
   5131331.66749   4001477.34547  21400974.898    21400974.641    21400987.134
       235.000         199.000
  -3000496.10949  -2324077.08445  23865384.732    23865384.820    23865400.493
       209.000         142.000
 01 12 19 21 37  0.0000000  0  8G28G 2G27G26G 4G 7G 8G11
   -123747.68949    -91993.79747  21199213.892    21199213.928    21199223.363
       242.000         210.000
   6065033.71349   4721159.22346  22947691.974    22947691.669    22947705.792
       229.000         187.000
  12132559.89349   9448151.94945  23772560.501    23772560.412    23772578.175
       214.000         153.000
  -9146860.94949  -7113381.54047  22746926.811    22746927.421    22746940.435
       234.000         190.000
  -1867421.16049  -1431624.55445  24529751.725    24529754.008    24529781.622
       204.000         146.000
 -12619864.68849  -9818265.49047  20548560.238    20548560.253    20548571.004
       237.000         207.000
   5200905.04449   4055690.28247  21414214.359    21414214.078    21414226.555
       235.000         200.000
  -2967729.27549  -2298544.49945  23871620.039    23871620.258    23871635.743
       208.000         142.000
 01 12 19 21 37 30.0000000  0  8G28G 2G27G26G 4G 7G 8G11
   -103515.59249    -76228.50247  21203063.885    21203063.939    21203073.410
       242.000         209.000
   6109358.85249   4755698.20446  22956126.855    22956126.531    22956140.645
       229.000         187.000
  12228939.12649   9523252.41345  23790901.168    23790901.002    23790918.694
       213.000         151.000
  -9142061.80649  -7109641.92447  22747839.993    22747840.666    22747853.689
       234.000         190.000
  -1976932.34949  -1516957.27145  24508913.097    24508914.491    24508941.095
       218.000         152.000
 -12644312.75149  -9837315.88047  20543907.910    20543907.911    20543918.643
       237.000         208.000
   5270871.90749   4110209.83447  21427528.672    21427528.394    21427540.853
       236.000         199.000
  -2934462.55549  -2272622.39845  23877950.567    23877950.755    23877966.101
       209.000         141.000
 01 12 19 21 38  0.0000000  0  8G28G 2G27G26G 4G 7G 8G11
    -83100.39149    -60320.53247  21206948.740    21206948.801    21206958.269
       241.000         209.000
   6153805.32849   4790331.72846  22964584.896    22964584.506    22964598.577
       229.000         187.000
  12325557.96949   9598539.57045  23809287.505    23809287.231    23809304.855
       211.000         150.000
  -9136705.86449  -7105468.44747  22748859.161    22748859.834    22748872.884
       233.000         189.000
  -2086492.08449  -1602327.80945  24488065.192    24488065.968    24488091.826
       219.000         155.000
 -12668309.17249  -9856014.34347  20539341.545    20539341.539    20539352.237
       237.000         208.000
   5341236.84249   4165039.56447  21440918.706    21440918.456    21440930.888
       235.000         199.000
  -2900691.11649  -2246306.99345  23884376.947    23884377.288    23884392.492
       207.000         140.000
 01 12 19 21 38 30.0000000  0  8G28G 2G27G26G 4G 7G 8G11
    -62469.89449    -44244.80347  21210874.590    21210874.654    21210884.083
       242.000         209.000
   6198405.55249   4825085.05246  22973072.238    22973071.750    22973085.763
       229.000         187.000
  12422446.93549   9674037.22445  23827725.284    23827724.866    23827742.363
       211.000         149.000
  -9130761.68849  -7100836.60247  22749990.204    22749990.910    22750004.008
       233.000         188.000
  -2196064.95049  -1687708.66345  24467213.994    24467214.400    24467240.718
       211.000         154.000
 -12691822.08549  -9874336.04747  20534867.190    20534867.154    20534877.813
       237.000         207.000
   5412030.85149   4220203.63447  21454390.369    21454390.172    21454402.587
       235.000         199.000
  -2866383.67049  -2219573.95445  23890905.244    23890905.710    23890921.028
       206.000         141.000
 01 12 19 21 39  0.0000000  0  8G28G 2G27G26G 4G 7G 8G11
    -41645.59149    -28018.05847  21214837.299    21214837.363    21214846.825
       241.000         209.000
   6243138.55849   4859941.83146  22981584.848    22981584.265    22981598.247
       228.000         186.000
  12519582.96549   9749727.38345  23846210.006    23846209.489    23846226.909
       209.000         148.000
  -9124251.75549  -7095763.91147  22751228.950    22751229.656    22751242.802
       233.000         188.000
  -2305669.74449  -1773114.45445  24446354.341    24446356.101    24446383.477
       202.000         151.000
 -12714873.15249  -9892297.86847  20530480.681    20530480.638    20530491.271
       236.000         207.000
   5483231.44549   4275684.53247  21467939.460    21467939.267    21467951.650
       234.000         199.000
  -2831562.57449  -2192440.64545  23897531.091    23897531.848    23897547.283
       206.000         143.000
 01 12 19 21 39 30.0000000  0  8G28G 2G27G26G 4G 7G 8G11
    -20641.37449    -11651.13047  21218834.177    21218834.291    21218843.802
       242.000         209.000
   6287990.72049   4894891.45246  22990120.024    22990119.425    22990133.436
       228.000         186.000
  12616950.31549   9825597.79545  23864738.614    23864738.173    23864755.423
       207.000         147.000
  -9117190.76849  -7090261.82947  22752572.556    22752573.286    22752586.439
       233.000         188.000
  -2415317.47649  -1858553.59545  24425488.849    24425490.565    24425517.397
       217.000         153.000
 -12737476.89549  -9909911.13347  20526179.242    20526179.227    20526189.851
       237.000         207.000
   5554823.55149   4331470.49447  21481563.043    21481562.853    21481575.238
       234.000         198.000
  -2796242.85049  -2164918.80845  23904252.134    23904252.949    23904268.459
       209.000         146.000
 01 12 19 21 40  0.0000000  0  8G28G 2G27G26G 4G 7G 8G11
       580.43049      4885.34147  21222872.543    21222872.659    21222882.154
       242.000         209.000
   6333000.02349   4929963.52946  22998684.956    22998684.458    22998698.583
       227.000         186.000
  12714584.76649   9901676.33245  23883318.060    23883317.602    23883334.737
       207.000         145.000
  -9109542.22849  -7084301.90947  22754028.074    22754028.735    22754041.872
       234.000         188.000
  -2524967.83249  -1943994.70445  24404623.818    24404624.983    24404650.388
       218.000         151.000
 -12759596.23249  -9927146.94047  20521969.939    20521969.985    20521980.623
       236.000         207.000
   5626843.53149   4387589.87047  21495268.058    21495267.844    21495280.269
       235.000         197.000
  -2760387.81449  -2136979.83145  23911075.406    23911076.022    23911091.648
       210.000         147.000
 01 12 19 21 40 30.0000000  0  8G28G 2G27G26G 4G 7G 8G11
     21942.56849     21531.15647  21226937.615    21226937.743    21226947.217
       241.000         209.000
   6378089.76549   4965098.28746  23007265.090    23007264.767    23007278.999
       226.000         187.000
  12812407.44749   9977901.55745  23901933.387    23901932.843    23901949.950
       209.000         145.000
  -9101384.03249  -7077944.85046  22755580.557    22755581.211    22755594.264
       234.000         187.000
  -2634694.82549  -2029495.56845  24383743.238    24383744.242    24383769.341
       210.000         150.000
 -12781308.48549  -9944065.53947  20517838.104    20517838.205    20517848.876
       236.000         207.000
   5699213.37149   4443981.86747  21509039.583    21509039.390    21509051.885
       234.000         198.000
  -2724075.39549  -2108684.46845  23917985.953    23917986.249    23918001.799
       211.000         147.000
 01 12 19 21 41  0.0000000  0  8G28G 2G27G26G 4G 7G 8G11
     43517.66549     38342.90247  21231043.170    21231043.322    21231052.811
       242.000         208.000
   6423332.87349   5000352.54346  23015874.541    23015874.294    23015888.575
       229.000         187.000
  12910489.29849  10054328.72445  23920598.031    23920597.425    23920614.503
       210.000         142.000
  -9092644.43049  -7071134.74946  22757243.619    22757244.293    22757257.304
       234.000         187.000
  -2744423.00049  -2114997.43445  24362860.567    24362862.584    24362888.471
       204.000         151.000
 -12802541.59049  -9960610.77647  20513797.495    20513797.628    20513808.301
       236.000         208.000
   5772004.28149   4500701.96747  21522891.295    21522891.075    21522903.640
       234.000         198.000
  -2687233.87449  -2079976.80645  23924997.026    23924997.064    23925012.554
       211.000         144.000
 01 12 19 21 41 30.0000000  0  8G28G 2G27G26G 4G 7G 8G11
     65277.61849     55298.68847  21235183.932    21235184.094    21235193.581
       242.000         209.000
   6468701.74049   5035704.79046  23024508.078    23024507.783    23024522.052
       229.000         187.000
  13008800.34249  10130934.49845  23939306.198    23939305.511    23939322.672
       209.000         143.000
  -9083352.57549  -7063894.32547  22759011.800    22759012.471    22759025.469
       234.000         188.000
  -2854177.46749  -2200519.79045  24341974.123    24341976.392    24342002.551
       218.000         157.000
 -12823324.18649  -9976804.97447  20509842.681    20509842.801    20509853.482
       237.000         208.000
   5845187.08149   4557727.43347  21536817.578    21536817.335    21536829.946
       235.000         198.000
  -2649892.53149  -2050879.66645  23932102.975    23932102.958    23932118.387
       209.000         143.000
 01 12 19 21 42  0.0000000  0  8G28G 2G27G26G 4G 7G 8G11
     87230.61149     72404.88947  21239361.505    21239361.630    21239371.085
       242.000         208.000
   6514204.77849   5071161.59446  23033167.248    23033166.828    23033181.084
       229.000         187.000
  13107347.07849  10207723.89345  23958059.369    23958058.542    23958075.559
       209.000         143.000
  -9073501.47249  -7056218.12947  22760886.418    22760887.091    22760900.043
       234.000         188.000
  -2963947.34249  -2286054.07045  24321086.095    24321087.839    24321113.055
       219.000         152.000
 -12843648.55149  -9992642.10847  20505975.044    20505975.162    20505985.876
       235.000         208.000
   5918768.41249   4615063.44847  21550819.743    21550819.463    21550832.101
       235.000         198.000
  -2612044.38149  -2021387.62845  23939305.264    23939305.254    23939320.718
       208.000         141.000
 01 12 19 21 42 30.0000000  0  9G28G 2G27G26G 4G 7G 8G 9G11
    109370.40749     89656.65547  21243574.617    21243574.694    21243584.163
       242.000         208.000
   6559836.02249   5106718.28946  23041850.719    23041850.260    23041864.536
       229.000         187.000
  13206121.22549  10284690.49645  23976855.932    23976854.860    23976871.748
       211.000         143.000
  -9063098.59249  -7048111.98347  22762865.952    22762866.653    22762879.654
       234.000         188.000
  -3073736.23949  -2371603.16645  24300193.746    24300195.385    24300219.321
       216.000         151.000
 -12863521.54149 -10008127.52947  20502193.382    20502193.439    20502204.146
       236.000         207.000
   5992740.83149   4672704.20647  21564896.360    21564896.031    21564908.692
       236.000         198.000
  -1331084.26359  -1010674.10955  25050364.959    25050365.033    25050385.173
       210.000         143.000
  -2573696.66649  -1991506.30745  23946602.658    23946602.586    23946618.076
       208.000         140.000
 01 12 19 21 43  0.0000000  0  9G28G 2G27G26G 4G 7G 8G 9G11
    131685.68749    107045.15947  21247821.029    21247821.139    21247830.582
       241.000         208.000
   6605584.67149   5142366.47746  23050556.499    23050556.024    23050570.369
       228.000         187.000
  13305109.64749  10361824.07545  23995693.355    23995692.065    23995708.775
       211.000         145.000
  -9052156.09449  -7039585.36047  22764948.220    22764948.906    22764961.970
       233.000         188.000
  -3183552.22749  -2457173.43145  24279294.669    24279297.085    24279320.955
       202.000         153.000
 -12882954.94249 -10023270.41047  20498495.362    20498495.370    20498506.027
       235.000         206.000
   6067091.97949   4730640.07747  21579045.059    21579044.677    21579057.378
       234.000         198.000
  -1440125.97749  -1095641.41145  25029614.394    25029614.823    25029634.745
       200.000         147.000
  -2534861.80349  -1961245.40545  23953992.777    23953992.539    23954008.209
       207.000         140.000
 01 12 19 21 43 30.0000000  0  9G28G 2G27G26G 4G 7G 8G 9G11
    154201.35449    124589.79747  21252105.639    21252105.742    21252115.190
       242.000         208.000
   6651476.01649   5178125.85846  23059289.377    23059288.948    23059303.344
       228.000         186.000
  13404335.49349  10439142.63645  24014575.849    24014574.373    24014591.025
       213.000         147.000
  -9040650.20549  -7030619.72847  22767137.683    22767138.369    22767151.520
       233.000         188.000
  -3293367.63549  -2542743.23645  24258395.739    24258398.927    24258423.341
       214.000         158.000
 -12901924.38049 -10038051.76547  20494885.590    20494885.591    20494896.169
       235.000         205.000
   6141845.40949   4788889.40747  21593270.306    21593269.881    21593282.596
       235.000         198.000
  -1549096.96049  -1180553.60945  25008877.015    25008877.973    25008897.877
       200.000         144.000
  -2495516.00249  -1930586.35845  23961480.243    23961479.970    23961495.506
       209.000         140.000
 01 12 19 21 44  0.0000000  0  9G28G 2G27G26G 4G 7G 8G 9G11
    176898.07349    142275.51347  21256424.766    21256424.818    21256434.256
       242.000         208.000
   6697490.94549   5213981.54246  23068045.822    23068045.383    23068059.813
       230.000         185.000
  13503777.70149  10516629.80645  24033499.388    24033497.940    24033514.577
       213.000         148.000
  -9028601.50849  -7021231.14047  22769430.392    22769431.128    22769444.360
       233.000         188.000
  -3403198.78049  -2628325.32545  24237495.753    24237498.368    24237522.788
       220.000         159.000
 -12920449.79149 -10052487.13047  20491360.282    20491360.279    20491370.832
       234.000         205.000
   6216980.46649   4847436.10947  21607568.177    21607567.712    21607580.440
       235.000         197.000
  -1658014.80849  -1265424.40845  24988150.072    24988151.298    24988171.171
       202.000         146.000
  -2455679.79549  -1899545.21245  23969060.942    23969060.637    23969076.251
       209.000         142.000
 01 12 19 21 44 30.0000000  0  9G28G 2G27G26G 4G 7G 8G 9G11
    199768.90849    160096.90647  21260776.977    21260777.015    21260786.466
       242.000         208.000
   6743622.82349   5249928.35446  23076824.543    23076824.053    23076838.515
       229.000         185.000
  13603427.36849  10594278.63645  24052462.177    24052460.846    24052477.620
       212.000         148.000
  -9016017.97449  -7011425.78847  22771824.952    22771825.686    22771838.956
       233.000         189.000
  -3513049.77749  -2713922.84945  24216591.667    24216593.936    24216618.239
       214.000         157.000
 -12938538.84649 -10066582.47847  20487918.020    20487918.005    20487928.562
       235.000         206.000
   6292488.91649   4906273.76847  21621937.057    21621936.592    21621949.340
       234.000         197.000
  -1766884.37049  -1350257.53845  24967433.040    24967433.895    24967453.708
       199.000         142.000
  -2415361.19049  -1868128.17545  23976733.353    23976733.190    23976748.723
       208.000         143.000
 01 12 19 21 45  0.0000000  0  9G28G 2G27G26G 4G 7G 8G 9G11
    222828.01749    178065.00847  21265164.945    21265165.010    21265174.469
       241.000         207.000
   6789886.30949   5285977.71346  23085628.300    23085627.779    23085642.270
       228.000         185.000
  13703296.92549  10672098.79845  24071466.699    24071465.503    24071482.564
       213.000         148.000
  -9002886.70349  -7001193.61947  22774323.713    22774324.464    22774337.765
       233.000         188.000
  -3622903.48249  -2799522.48645  24195685.846    24195688.599    24195712.795
       207.000         155.000
 -12956177.80649 -10080327.10047  20484561.354    20484561.359    20484571.973
       233.000         206.000
   6368383.60049   4965412.39547  21636379.362    21636378.940    21636391.716
       233.000         197.000
  -1875689.53248  -1435040.54845  24946727.638    24946728.639    24946748.518
       192.000         137.000
  -2374547.06149  -1836325.02445  23984499.988    23984499.872    23984515.412
       206.000         141.000
 01 12 19 21 45 30.0000000  0  9G28G 2G27G26G 4G 7G 8G 9G11
    246080.89649    196184.09647  21269589.815    21269589.893    21269599.336
       242.000         208.000
   6836287.31849   5322134.23946  23094458.154    23094457.654    23094472.221
       229.000         185.000
  13803389.92149  10750093.06545  24090513.763    24090512.740    24090529.999
       210.000         148.000
  -8989203.30249  -6990531.22447  22776927.512    22776928.290    22776941.616
       234.000         189.000
  -3732751.45349  -2885117.69345  24174781.190    24174784.473    24174808.540
       214.000         158.000
 -12973361.64949 -10093717.09447  20481291.264    20481291.325    20481301.984
       234.000         206.000
   6444668.91049   5024855.39947  21650895.978    21650895.614    21650908.424
       235.000         196.000
  -1984422.56448  -1519767.30245  24926034.999    24926036.861    24926057.038
       189.000         134.000
  -2333233.23449  -1804132.48145  23992361.681    23992361.647    23992377.015
       210.000         141.000
 01 12 19 21 46  0.0000000  0  9G28G 2G27G26G 4G 7G 8G 9G11
    269552.22949    214473.41147  21274056.349    21274056.377    21274065.761
       242.000         208.000
   6882850.60349   5358417.20746  23103318.914    23103318.414    23103333.047
       228.000         185.000
  13903729.05149  10828279.10745  24109607.561    24109606.798    24109624.145
       206.000         147.000
  -8974944.46749  -6979420.44547  22779640.896    22779641.654    22779654.936
       233.000         188.000
  -3842566.29849  -2970687.10846  24153884.075    24153886.999    24153911.006
       216.000         163.000
 -12990066.51149 -10106733.85447  20478112.430    20478112.459    20478123.140
       233.000         206.000
   6521367.80149   5084620.67347  21665491.334    21665490.995    21665503.815
       235.000         196.000
  -2093056.98448  -1604417.23445  24905360.589    24905363.634    24905384.391
       188.000         133.000
  -2291396.13649  -1771532.22645  24000323.017    24000322.922    24000338.311
       207.000         140.000
 01 12 19 21 46 30.0000000  0  9G28G 2G27G26G 4G 7G 8G 9G11
    293219.83749    232915.66247  21278560.207    21278560.205    21278569.565
       242.000         208.000
   6929554.30849   5394809.60146  23112206.411    23112205.936    23112220.587
       229.000         185.000
  14004290.19849  10906638.16945  24128743.291    24128743.032    24128760.658
       201.000         141.000
  -8960133.69149  -6967879.58547  22782459.293    22782460.066    22782473.274
       234.000         188.000
  -3952367.14249  -3056245.63145  24132989.393    24132992.101    24133016.370
       212.000         160.000
 -13006315.38349 -10119395.30047  20475020.422    20475020.406    20475031.092
       234.000         206.000
   6598456.83449   5144689.95247  21680161.003    21680160.644    21680173.448
       235.000         196.000
  -2201613.05048  -1689006.18945  24884701.201    24884705.535    24884726.572
       179.000         135.000
  -2249059.62749  -1738542.81145  24008379.163    24008379.310    24008394.669
       206.000         140.000
 01 12 19 21 47  0.0000000  0  9G28G 2G27G26G 4G 7G 8G 9G11
    317057.42249    251490.37147  21283096.380    21283096.371    21283105.741
       243.000         208.000
   6976372.92049   5431291.54846  23121115.771    23121115.328    23121129.952
       230.000         185.000
  14105045.24949  10985148.29845  24147915.709    24147915.977    24147934.093
       200.000         141.000
  -8944798.43549  -6955930.04547  22785377.533    22785378.259    22785391.430
       234.000         188.000
  -4062177.36449  -3141811.46745  24112092.477    24112095.223    24112119.850
       212.000         158.000
 -13022135.03149 -10131722.28447  20472010.072    20472010.041    20472020.710
       235.000         206.000
   6675908.55749   5205041.84247  21694899.688    21694899.321    21694912.116
       236.000         196.000
  -2310114.71248  -1773552.68845  24864052.514    24864057.712    24864079.246
       185.000         135.000
  -2206250.97649  -1705185.50045  24016525.218    24016525.500    24016540.881
       208.000         139.000
 01 12 19 21 47 30.0000000  0  9G28G 2G27G26G 4G 7G 8G 9G11
    341082.98949    270211.55447  21287668.364    21287668.333    21287677.716
       242.000         209.000
   7023324.42149   5467877.03746  23130050.431    23130049.986    23130064.558
       228.000         184.000
  14206010.32349  11063822.11445  24167128.064    24167128.715    24167147.628
       195.000         141.000
  -8928922.13749  -6943558.92147  22788398.784    22788399.438    22788412.593
       233.000         188.000
  -4171976.04549  -3227368.27945  24091198.250    24091200.793    24091224.950
       217.000         156.000
 -13037508.28049 -10143701.42847  20469084.604    20469084.587    20469095.251
       233.000         205.000
   6753739.42749   5265689.16447  21709710.500    21709710.139    21709722.927
       234.000         195.000
  -2418542.26149  -1858041.39545  24843418.150    24843424.045    24843446.261
       195.000         140.000
  -2162953.32449  -1671447.17145  24024764.259    24024764.671    24024780.269
       208.000         139.000
 01 12 19 21 48  0.0000000  0  9G28G 2G27G26G 4G 7G 8G 9G11
    365311.09549    289090.56847  21292278.908    21292278.845    21292288.220
       242.000         208.000
   7070423.74549   5504577.71446  23139013.230    23139012.759    23139027.308
       229.000         184.000
  14307198.06849  11142669.40945  24186383.182    24186383.915    24186403.579
       198.000         140.000
  -8912491.51649  -6930755.85847  22791525.455    22791526.080    22791539.274
       233.000         188.000
  -4281745.77049  -3312902.52845  24070309.944    24070312.128    24070335.382
       218.000         157.000
 -13052421.24949 -10155321.89947  20466246.703    20466246.700    20466257.343
       233.000         204.000
   6831962.38349   5326642.01347  21724595.862    21724595.547    21724608.351
       233.000         194.000
  -2526879.04049  -1942459.43345  24822802.259    24822807.909    24822830.489
       202.000         148.000
  -2119153.66849  -1637317.67245  24033098.951    24033099.503    24033115.141
       210.000         140.000
 01 12 19 21 48 30.0000000  0  9G28G 2G27G26G 4G 7G 8G 9G11
    389723.67249    308113.32647  21296924.489    21296924.436    21296933.811
       242.000         208.000
   7117653.17749   5541379.77346  23148000.825    23148000.301    23148014.849
       229.000         184.000
  14408588.34448  11221674.52345  24205677.046    24205677.716    24205698.067
       193.000         142.000
  -8895525.98149  -6917535.97847  22794753.898    22794754.513    22794767.733
       233.000         188.000
  -4391501.62649  -3398426.04145  24049423.786    24049425.886    24049448.779
       215.000         156.000
 -13066892.67449 -10166598.31147  20463492.796    20463492.820    20463503.469
       230.000         203.000
   6910558.15149   5387885.35047  21739552.144    21739551.863    21739564.706
       232.000         194.000
  -2635141.38449  -2026819.45045  24802201.070    24802206.114    24802228.802
       209.000         152.000
  -2074871.47949  -1602812.18045  24041525.594    24041526.087    24041541.866
       208.000         139.000
 01 12 19 21 49  0.0000000  0  9G28G 2G27G26G 4G 7G 8G 9G11
    414334.30649    327290.42047  21301607.714    21301607.678    21301617.103
       242.000         209.000
   7165026.85849   5578294.24546  23157015.903    23157015.311    23157029.878
       228.000         184.000
  14510193.00849  11300846.67945  24225011.560    24225012.394    24225033.318
       199.000         144.000
  -8878013.41649  -6903889.84347  22798086.411    22798087.027    22798100.284
       233.000         189.000
  -4501227.01549  -3483925.83945  24028543.054    24028545.285    24028568.270
       215.000         155.000
 -13080909.74349 -10177520.67347  20460825.347    20460825.401    20460836.090
       231.000         203.000
   6989538.73849   5449428.54047  21754581.660    21754581.385    21754594.294
       233.000         193.000
  -2743313.38249  -2111109.08845  24781617.568    24781621.725    24781644.287
       212.000         155.000
  -2030094.27349  -1567920.96245  24050046.333    24050046.904    24050062.815
       207.000         138.000
 01 12 19 21 49 30.0000000  0  9G28G 2G27G26G 4G 7G 8G 9G11
    439128.23749    346610.33747  21306325.864    21306325.848    21306335.286
       242.000         209.000
   7212530.14949   5615309.70346  23166055.535    23166054.991    23166069.591
       228.000         185.000
  14611995.35548  11380172.88045  24244383.554    24244384.263    24244410.061
       186.000         142.000
  -8859969.95849  -6889830.02947  22801519.916    22801520.580    22801533.851
       232.000         188.000
  -4610933.73549  -3569411.14445  24007666.563    24007668.537    24007691.354
       219.000         156.000
 -13094487.90449 -10188101.03247  20458241.444    20458241.511    20458252.226
       230.000         203.000
   7068888.10149   5511259.08847  21769681.387    21769681.116    21769694.049
       233.000         193.000
  -2851407.77749  -2195338.21845  24761048.857    24761052.139    24761074.435
       213.000         156.000
  -1984838.34649  -1532656.70545  24058658.041    24058658.720    24058674.670
       203.000         137.000
 01 12 19 21 50  0.0000000  0  9G28G 2G27G26G 4G 7G 8G 9G11
    464130.85849    366092.87047  21311083.784    21311083.747    21311093.200
       242.000         209.000
   7260188.53349   5652446.01246  23175124.626    23175124.179    23175138.809
       226.000         183.000
  14714018.69258  11459671.26455  24263797.438    24263798.844    24263824.605
       190.000         144.000
  -8841371.83549  -6875338.00047  22805058.997    22805059.675    22805072.973
       232.000         188.000
  -4720593.65049  -3654859.95545  23986799.305    23986800.899    23986822.894
       218.000         150.000
 -13107602.78949 -10198320.39147  20455745.691    20455745.804    20455756.507
       231.000         203.000
   7148629.96049   5573395.46847  21784855.805    21784855.542    21784868.493
       231.000         193.000
  -2959397.29649  -2279485.63545  24740499.822    24740502.551    24740524.524
       216.000         156.000
  -1939079.67149  -1497000.70345  24067365.329    24067366.262    24067382.204
       205.000         135.000
 01 12 19 21 50 30.0000000  0  9G28G 2G27G26G 4G 7G 8G 9G11
    489316.33349    385717.89047  21315876.452    21315876.405    21315885.897
       242.000         209.000
   7307976.99049   5689683.67646  23184218.466    23184218.097    23184232.736
       227.000         183.000
  14816235.47249  11539320.40745  24283248.425    24283250.223    24283275.893
       201.000         145.000
  -8822246.04349  -6860434.80047  22808698.594    22808699.230    22808712.486
       234.000         188.000
  -4830229.43549  -3740289.97945  23965935.977    23965937.511    23965958.716
       210.000         143.000
 -13120280.77249 -10208199.30747  20453333.163    20453333.258    20453343.938
       232.000         204.000
   7228737.21049   5635816.56547  21800099.792    21800099.508    21800112.472
       234.000         193.000
  -3067305.46349  -2363569.66745  24719966.279    24719968.445    24719990.076
       218.000         158.000
  -1892845.24849  -1460973.98245  24076163.609    24076164.401    24076180.247
       206.000         137.000
 01 12 19 21 51  0.0000000  0  9G28G 2G27G26G 4G 7G 8G 9G11
    514713.10849    405507.55547  21320709.297    21320709.277    21320718.749
       242.000         209.000
   7355924.16449   5727045.01046  23193342.631    23193342.202    23193356.812
       225.000         181.000
  14918671.92848  11619140.68845  24302741.781    24302743.711    24302769.257
       188.000         148.000
  -8802565.84349  -6845099.59047  22812443.694    22812444.278    22812457.474
       232.000         188.000
  -4939809.76749  -3825676.78245  23945082.429    23945084.294    23945105.174
       207.000         140.000
 -13132494.32849 -10217716.32647  20451009.065    20451009.106    20451019.772
       232.000         204.000
   7309236.65949   5698543.26847  21815418.455    21815418.124    21815431.100
       233.000         194.000
  -3175102.07249  -2447566.79245  24699453.831    24699455.590    24699476.825
       216.000         157.000
  -1846108.40349  -1424555.77345  24085057.854    24085058.222    24085073.942
       210.000         137.000
 01 12 19 21 51 30.0000000  0  9G28G 2G27G26G 4G 7G 8G 9G11
    540281.28349    425430.78247  21325574.812    21325574.779    21325584.236
       243.000         209.000
   7403990.16349   5764498.92946  23202489.403    23202488.945    23202503.475
       225.000         181.000
  15021286.01349  11699099.37645  24322269.327    24322271.000    24322296.236
       201.000         151.000
  -8782372.71049  -6829364.69847  22816286.262    22816286.913    22816300.083
       231.000         188.000
  -5049371.77049  -3911049.32145  23924232.524    23924234.645    23924255.407
       209.000         144.000
 -13144284.39049 -10226903.34947  20448765.531    20448765.510    20448776.214
       231.000         205.000
   7390086.80749   5761543.24447  21830803.871    21830803.490    21830816.485
       232.000         194.000
  -3282825.12549  -2531506.56645  24678955.539    24678956.712    24678977.590
       219.000         156.000
  -1798910.54749  -1387778.33745  24094039.817    24094039.857    24094055.361
       210.000         139.000
 01 12 19 21 52  0.0000000  0  9G28G 2G27G26G 4G 7G 8G 9G11
    566026.64149    445492.07947  21330474.101    21330474.018    21330483.447
       243.000         210.000
   7452181.11449   5802050.19946  23211659.973    23211659.450    23211673.978
       225.000         181.000
  15124081.77149  11779199.62545  24341831.799    24341832.960    24341857.678
       206.000         150.000
  -8761662.30449  -6813226.74847  22820227.254    22820227.934    22820241.143
       231.000         188.000
  -5158906.64349  -3996400.73445  23903388.704    23903390.561    23903411.003
       212.000         146.000
 -13155645.81449 -10235756.37147  20446603.461    20446603.469    20446614.233
       230.000         204.000
   7471291.92949   5824819.81947  21846256.834    21846256.426    21846269.443
       233.000         194.000
  -3390466.62649  -2615382.80345  24658472.845    24658473.357    24658493.860
       217.000         156.000
  -1751247.04149  -1350638.06745  24103110.150    24103110.016    24103125.341
       211.000         140.000
 01 12 19 21 52 30.0000000  0  9G28G 2G27G26G 4G 7G 8G 9G11
    591982.67049    465717.53747  21335413.406    21335413.326    21335422.772
       242.000         209.000
   7500531.11549   5839725.43346  23220860.723    23220860.231    23220874.810
       224.000         182.000
  15227090.60649  11859465.92145  24361434.929    24361435.283    24361459.626
       199.000         148.000
  -8740402.82549  -6796660.93747  22824272.898    22824273.520    22824286.722
       232.000         189.000
  -5268377.69649  -4081702.40345  23882556.778    23882558.568    23882578.689
       211.000         146.000
 -13166545.98149 -10244249.96747  20444529.153    20444529.173    20444540.000
       230.000         204.000
   7552884.01249   5888397.92247  21861783.397    21861782.982    21861796.042
       233.000         194.000
  -3497991.13849  -2699167.86545  24638012.322    24638012.251    24638032.367
       218.000         154.000
  -1703086.24749  -1313110.32645  24112274.902    24112274.868    24112290.011
       210.000         141.000
 01 12 19 21 53  0.0000000  0  9G28G 2G27G26G 4G 7G 8G 9G11
    618113.00249    486078.81447  21340385.838    21340385.791    21340395.254
       243.000         210.000
   7549003.98649   5877496.39246  23230084.819    23230084.399    23230099.053
       224.000         182.000
  15330274.28149  11939868.44645  24381071.196    24381070.774    24381094.892
       202.000         147.000
  -8718632.06649  -6779696.73347  22828415.854    22828416.386    22828429.592
       232.000         189.000
  -5377818.49249  -4166980.54445  23861729.976    23861732.034    23861752.032
       208.000         147.000
 -13177022.11749 -10252413.14747  20442535.587    20442535.606    20442546.459
       231.000         204.000
   7634825.31649   5952248.14947  21877376.397    21877376.002    21877389.115
       233.000         194.000
  -3605432.74449  -2782888.36945  24617567.278    24617566.887    24617586.419
       217.000         150.000
  -1654465.92149  -1275224.48645  24121526.998    24121527.089    24121542.264
       211.000         140.000
 01 12 19 21 53 30.0000000  0  9G28G 2G27G26G 4G 7G 8G 9G11
    644434.24649    506588.84947  21345394.693    21345394.599    21345404.052
       244.000         209.000
   7597616.44649   5915376.11646  23239335.480    23239335.123    23239349.847
       224.000         181.000
  15433647.18848  12020418.43845  24400742.945    24400742.281    24400766.123
       194.000         145.000
  -8696335.30749  -6762322.66247  22832658.782    22832659.316    22832672.566
       232.000         189.000
  -5487209.67049  -4252220.00945  23840912.548    23840915.022    23840935.076
       211.000         150.000
 -13187058.71149 -10260233.83747  20440625.694    20440625.700    20440636.545
       230.000         204.000
   7717130.50849   6016381.92047  21893038.654    21893038.240    21893051.421
       232.000         194.000
  -3712772.91349  -2866529.84045  24597141.149    24597140.731    24597159.616
       220.000         147.000
  -1605371.06949  -1236968.88245  24130869.550    24130869.693    24130884.809
       211.000         141.000
 01 12 19 21 54  0.0000000  0  9G28G 2G27G26G 4G 7G 8G 9G11
    670963.26649    527260.79547  21350443.098    21350442.963    21350452.366
       244.000         209.000
   7646385.83249   5953378.11746  23248616.108    23248615.713    23248630.451
       224.000         180.000
  15537224.33449  12101127.54845  24420453.360    24420452.526    24420476.277
       197.000         143.000
  -8673497.13249  -6744526.71047  22837004.754    22837005.290    22837018.584
       233.000         190.000
  -5596531.18249  -4337405.18745  23820109.586    23820111.664    23820131.777
       216.000         157.000
 -13196639.67349 -10267699.48847  20438802.469    20438802.468    20438813.312
       231.000         203.000
   7799815.00949   6080811.25647  21908773.055    21908772.652    21908785.920
       233.000         193.000
  -3819992.68949  -2950077.48045  24576737.796    24576737.471    24576755.717
       218.000         149.000
  -1555786.33849  -1198331.57345  24140305.434    24140305.647    24140320.652
       213.000         142.000
 01 12 19 21 54 30.0000000  0  9G28G 2G27G26G 4G 7G 8G 9G11
    697660.79549    548064.04347  21355523.471    21355523.366    21355532.753
       243.000         210.000
   7695273.03449   5991471.92346  23257919.214    23257918.734    23257933.428
       225.000         180.000
  15640964.21849  12181963.48045  24440194.728    24440193.824    24440217.456
       199.000         143.000
  -8650158.60249  -6726340.86747  22841446.028    22841446.522    22841459.815
       233.000         190.000
  -5705819.61749  -4422564.58645  23799312.592    23799314.557    23799334.930
       215.000         158.000
 -13205805.32449 -10274841.51947  20437058.287    20437058.262    20437069.112
       231.000         203.000
   7882837.68149   6145504.11047  21924571.814    21924571.420    21924584.765
       232.000         193.000
  -3927129.15749  -3033560.19645  24556350.206    24556350.049    24556367.682
       219.000         148.000
  -1505752.57549  -1159344.37845  24149826.662    24149826.915    24149841.921
       212.000         142.000
 01 12 19 21 55  0.0000000  0  9G28G 2G27G26G 4G 7G 8G 9G11
    724601.31449    569056.63447  21360650.065    21360649.985    21360659.413
       243.000         210.000
   7744352.79849   6029715.76346  23267259.041    23267258.425    23267273.031
       224.000         181.000
  15744939.35449  12262982.73245  24459980.509    24459979.706    24460003.456
       197.000         140.000
  -8626246.87449  -6707708.37947  22845996.373    22845996.809    22846010.082
       234.000         190.000
  -5814997.19949  -4507637.62345  23778535.992    23778538.205    23778559.022
       209.000         156.000
 -13214482.04449 -10281602.57747  20435407.083    20435407.093    20435417.969
       230.000         203.000
   7966271.76849   6210517.54147  21940448.905    21940448.492    21940461.892
       232.000         193.000
  -4034105.93649  -3116918.47645  24535992.907    24535992.883    24536010.093
       218.000         151.000
  -1455196.83449  -1119950.43945  24159447.142    24159447.362    24159462.478
       211.000         143.000
 01 12 19 21 55 30.0000000  0  9G28G 2G27G26G 4G 7G 8G 9G11
    751724.43649    590191.51447  21365811.480    21365811.373    21365820.817
       243.000         210.000
   7793564.91749   6068062.75346  23276623.837    23276623.265    23276637.849
       223.000         180.000
  15849087.16049  12344136.54045  24479799.146    24479798.480    24479822.181
       200.000         138.000
  -8601824.15849  -6688677.71247  22850643.863    22850644.331    22850657.569
       231.000         189.000
  -5924121.44649  -4592669.08745  23757769.579    23757771.981    23757793.061
       213.000         157.000
 -13222731.38749 -10288030.61047  20433837.168    20433837.230    20433848.138
       228.000         202.000
   8050054.99849   6275803.03147  21956392.469    21956392.019    21956405.445
       231.000         192.000
  -4140981.40049  -3200197.77445  24515654.912    24515655.003    24515671.833
       217.000         148.000
  -1404181.32649  -1080198.23445  24169154.977    24169155.289    24169170.539
       210.000         143.000
 01 12 19 21 56  0.0000000  0  9G28G 2G27G26G 4G 7G 8G 9G11
    779014.92849    611456.80547  21371004.752    21371004.637    21371014.042
       244.000         210.000
   7842894.58249   6106501.33846  23286010.909    23286010.415    23286025.081
       223.000         180.000
  15953390.29049  12425411.39745  24499647.654    24499646.866    24499670.496
       199.000         138.000
  -8576907.43349  -6669262.09747  22855385.273    22855385.828    22855399.099
       233.000         189.000
  -6033204.66449  -4677668.54745  23737012.095    23737014.020    23737034.906
       221.000         161.000
 -13230569.32449 -10294138.07047  20432345.620    20432345.668    20432356.587
       230.000         202.000
   8134170.54349   6341347.46247  21972399.307    21972398.802    21972412.223
       232.000         192.000
  -4247768.57649  -3283408.31245  24495333.634    24495333.879    24495350.309
       220.000         150.000
  -1352722.75649  -1040100.79945  24178947.160    24178947.519    24178962.939
       209.000         145.000
 01 12 19 21 56 30.0000000  0  9G28G 2G27G26G 4G 7G 8G 9G11
    806502.69549    632875.81647  21376235.517    21376235.425    21376244.785
       243.000         210.000
   7892372.11749   6145055.13946  23295426.052    23295425.704    23295440.484
       222.000         180.000
  16057876.58349  12506828.95945  24519531.153    24519530.235    24519553.853
       200.000         140.000
  -8551468.52749  -6649439.59747  22860226.138    22860226.695    22860240.022
       232.000         189.000
  -6142213.98449  -4762610.40046  23716268.827    23716270.251    23716290.917
       221.000         163.000
 -13237967.07949 -10299902.53247  20430937.895    20430937.914    20430948.796
       229.000         203.000
   8218646.70649   6407172.88847  21988474.731    21988474.218    21988487.608
       233.000         191.000
  -4354435.55649  -3366525.15545  24475035.392    24475035.651    24475051.797
       220.000         150.000
  -1300793.08249   -999636.26645  24188829.115    24188829.470    24188845.166
       210.000         146.000
 01 12 19 21 57  0.0000000  0  9G28G 2G27G26G 4G 7G 8G 9G11
    834202.66549    654460.17847  21381506.648    21381506.591    21381515.950
       243.000         210.000
   7942012.82749   6183736.09446  23304872.411    23304872.078    23304886.991
       224.000         180.000
  16162559.07549  12588399.36945  24539452.466    24539451.155    24539474.541
       205.000         143.000
  -8525494.14249  -6629199.82747  22865168.966    22865169.483    22865182.808
       232.000         188.000
  -6251131.39349  -4847480.67645  23695542.304    23695543.674    23695564.531
       213.000         162.000
 -13244910.62349 -10305313.06447  20429616.615    20429616.594    20429627.457
       229.000         203.000
   8303496.58849   6473289.52147  22004621.254    22004620.731    22004634.074
       232.000         190.000
  -4460965.24349  -3449535.05945  24454763.314    24454763.564    24454779.396
       220.000         153.000
  -1248378.66249   -958794.02545  24198803.281    24198803.608    24198819.657
       210.000         146.000
 01 12 19 21 57 30.0000000  0  9G28G 2G27G26G 4G 7G 8G 9G11
    862082.21149    676184.47447  21386811.978    21386811.914    21386821.325
       243.000         210.000
   7991784.37649   6222518.99746  23314343.822    23314343.403    23314358.428
       224.000         180.000
  16267403.09449  12670095.64445  24559404.539    24559402.925    24559425.893
       205.000         144.000
  -8499018.72949  -6608569.64747  22870207.053    22870207.599    22870220.917
       233.000         189.000
  -6359986.56349  -4932302.45545  23674827.109    23674828.745    23674849.810
       215.000         161.000
 -13251433.59649 -10310395.88047  20428375.316    20428375.296    20428386.175
       229.000         203.000
   8388686.14849   6539670.84647  22020832.371    22020831.888    22020845.184
       231.000         190.000
  -4567388.24549  -3532461.76145  24434511.277    24434511.652    24434527.485
       217.000         148.000
  -1195514.08149   -917601.00745  24208862.962    24208863.364    24208879.656
       211.000         146.000
 01 12 19 21 58  0.0000000  0  9G28G 2G27G26G 4G 7G 8G 9G11
    890146.25849    698052.53247  21392152.406    21392152.353    21392161.819
       243.000         210.000
   8041691.85449   6261407.81346  23323841.094    23323840.607    23323855.696
       224.000         180.000
  16372411.35349  12751919.89445  24579387.655    24579385.922    24579408.439
       208.000         143.000
  -8472039.39649  -6587546.81047  22875341.055    22875341.619    22875354.873
       233.000         189.000
  -6468771.71749  -5017069.63245  23654125.920    23654127.368    23654148.219
       219.000         160.000
 -13257532.14449 -10315147.98847  20427214.818    20427214.777    20427225.651
       228.000         202.000
   8474218.42849   6606319.21847  22037108.731    22037108.245    22037121.507
       231.000         188.000
  -4673697.62249  -3615299.91945  24414280.696    24414281.354    24414297.383
       216.000         152.000
  -1142196.26449   -876054.82345  24219008.845    24219009.422    24219025.850
       211.000         146.000
 01 12 19 21 58 30.0000000  0  9G28G 2G27G26G 4G 7G 8G 9G11
    918428.82749    720090.87047  21397534.371    21397534.356    21397543.865
       243.000         210.000
   8091769.27649   6300429.06146  23333370.646    23333370.100    23333385.245
       223.000         179.000
  16477615.66249  12833896.91545  24599408.084    24599406.243    24599428.372
       209.000         144.000
  -8444524.09749  -6566106.33247  22880577.157    22880577.646    22880590.840
       234.000         191.000
  -6577449.89949  -5101753.42345  23633445.247    23633446.429    23633466.782
       219.000         159.000
 -13263173.59949 -10319543.91147  20426141.273    20426141.215    20426152.094
       229.000         202.000
   8560125.46049   6673259.60947  22053456.343    22053455.900    22053469.167
       230.000         189.000
  -4779857.20349  -3698021.39745  24394078.645    24394079.628    24394095.836
       213.000         152.000
  -1088392.96749   -834130.34845  24229247.410    24229247.922    24229264.375
       212.000         147.000
 01 12 19 21 59  0.0000000  0  9G28G 2G27G26G 4G 7G 8G 9G11
    946906.16649    742280.97947  21402953.430    21402953.433    21402962.953
       243.000         209.000
   8141992.76749   6339564.12246  23342927.878    23342927.367    23342942.564
       224.000         177.000
  16582989.72649  12916006.23145  24619460.508    24619458.687    24619480.658
       207.000         143.000
  -8416498.67349  -6544268.35247  22885910.274    22885910.749    22885923.948
       233.000         190.000
  -6686042.35449  -5186370.43945  23612779.979    23612781.466    23612801.694
       209.000         157.000
 -13268382.99249 -10323603.16647  20425149.869    20425149.843    20425160.754
       228.000         201.000
   8646381.60049   6740472.03247  22069870.449    22069870.007    22069883.280
       231.000         188.000
  -4885889.06449  -3780643.33645  24373901.048    24373902.235    24373918.617
       213.000         149.000
  -1034129.67449   -791847.40845  24239573.495    24239573.973    24239590.446
       211.000         148.000
 01 12 19 21 59 30.0000000  0  9G28G 2G27G26G 4G 7G 8G 9G11
    975580.27349    764624.41247  21408409.940    21408409.932    21408419.469
       242.000         210.000
   8192365.17149   6378815.22846  23352513.458    23352512.950    23352528.168
       224.000         178.000
  16688533.92249  12998248.11845  24639545.220    24639543.499    24639565.249
       207.000         144.000
  -8387962.75849  -6522032.58947  22891340.398    22891340.956    22891354.214
       231.000         191.000
  -6794543.47749  -5270916.26745  23592131.606    23592133.686    23592154.187
       212.000         157.000
 -13273159.05249 -10327324.76547  20424240.860    20424240.910    20424251.879
       228.000         201.000
   8732987.44049   6807956.95346  22086351.124    22086350.658    22086363.934
       231.000         187.000
  -4991788.50549  -3863162.02045  24353748.889    24353750.068    24353766.577
       217.000         151.000
   -979405.90649   -749205.64845  24249987.300    24249987.692    24250004.181
       214.000         148.000
 01 12 19 22  0  0.0000000  0  9G28G 2G27G26G 4G 7G 8G 9G11
   1004438.74649    787111.51347  21413901.493    21413901.515    21413911.085
       242.000         209.000
   8242874.19249   6418172.78646  23362125.073    23362124.557    23362139.795
       224.000         177.000
  16794233.67549  13080611.21345  24659659.426    24659657.781    24659679.598
       207.000         146.000
  -8358930.70549  -6499410.22347  22896865.003    22896865.566    22896878.903
       232.000         190.000
  -6902962.86949  -5355398.40745  23571499.796    23571501.789    23571522.241
       215.000         160.000
 -13277515.33349 -10330719.25747  20423411.850    20423411.887    20423422.865
       228.000         200.000
   8819928.73049   6875703.27046  22102895.673    22102895.166    22102908.424
       230.000         187.000
  -5097565.90449  -3945585.64845  24333620.144    24333621.165    24333637.713
       218.000         156.000
   -924236.13149   -706216.34745  24260485.906    24260486.322    24260502.788
       213.000         147.000
 01 12 19 22  0 30.0000000  0  9G28G 2G27G26G 4G 7G 8G 9G11
   1033481.52149    809742.22547  21419428.127    21419428.168    21419437.796
       243.000         209.000
   8293520.03549   6457636.96146  23371762.737    23371762.226    23371777.486
       225.000         177.000
  16900086.65449  13163093.70245  24679802.732    24679801.251    24679823.058
       204.000         144.000
  -8329404.55049  -6476402.84447  22902483.682    22902484.230    22902497.590
       233.000         189.000
  -7011297.74649  -5439814.64945  23550884.566    23550886.200    23550906.324
       220.000         159.000
 -13281452.95749 -10333787.52947  20422662.488    20422662.537    20422673.515
       228.000         200.000
   8907203.75049   6943709.64546  22119503.785    22119503.203    22119516.440
       231.000         186.000
  -5203219.31549  -4027912.62545  24313514.991    24313515.817    24313532.435
       217.000         157.000
   -868622.26549   -662880.98745  24271068.812    24271069.323    24271086.005
       211.000         147.000
 01 12 19 22  1  0.0000000  0  9G28G 2G27G26G 4G 7G 8G 9G11
   1062662.38949    832480.54347  21424981.033    21424981.111    21424990.763
       242.000         209.000
   8344256.91449   6497172.07246  23381417.825    23381417.249    23381432.535
       225.000         177.000
  17006044.78049  13245658.11645  24699966.353    24699964.860    24699986.546
       203.000         144.000
  -8299432.28649  -6453047.85147  22908187.232    22908187.766    22908201.172
       232.000         189.000
  -7119590.95649  -5524198.45145  23530276.552    23530278.257    23530298.055
       215.000         155.000
 -13285019.16549 -10336566.38347  20421983.809    20421983.878    20421994.852
       227.000         201.000
   8994764.40949   7011938.59046  22136166.244    22136165.591    22136178.837
       231.000         187.000
  -5308792.42149  -4110176.99545  24293424.940    24293425.695    24293442.468
       218.000         159.000
   -812611.96249   -619236.73845  24281727.355    24281727.814    24281744.585
       212.000         149.000
 01 12 19 22  1 30.0000000  0  9G28G 2G27G26G 4G 7G 8G 9G11
   1092072.23449    855397.28447  21430577.578    21430577.628    21430587.292
       243.000         209.000
   8395175.73149   6536848.95046  23391107.487    23391106.900    23391122.246
       224.000         177.000
  17112196.53749  13328373.44545  24720166.876    24720165.320    24720186.808
       207.000         141.000
  -8268925.25149  -6429276.16247  22913992.507    22913993.054    22914006.503
       231.000         190.000
  -7227749.01649  -5608476.93545  23509693.743    23509695.844    23509715.465
       212.000         155.000
 -13288124.29449 -10338985.95047  20421393.012    20421393.014    20421403.938
       229.000         201.000
   9082699.86049   7080459.58646  22152900.019    22152899.317    22152912.581
       230.000         187.000
  -5414192.60149  -4192306.64945  24273367.712    24273368.465    24273385.293
       217.000         160.000
   -756116.42249   -575214.35745  24292478.608    24292478.794    24292495.440
       214.000         149.000
 01 12 19 22  2  0.0000000  0  9G28G 2G27G26G 4G 7G 8G 9G11
   1121724.91549    878503.25047  21436220.357    21436220.366    21436230.036
       243.000         209.000
   8446290.61149   6576678.61146  23400834.371    23400833.811    23400849.261
       224.000         176.000
  17218553.71149  13411248.84945  24740407.011    24740404.886    24740426.145
       206.000         138.000
  -8237871.43449  -6405078.41047  22919901.880    22919902.414    22919915.872
       233.000         189.000
  -7335754.91849  -5692636.85445  23489140.314    23489142.490    23489162.045
       217.000         159.000
 -13290755.82649 -10341036.47847  20420892.335    20420892.270    20420903.194
       230.000         202.000
   9171022.01949   7149281.90546  22169707.330    22169706.607    22169719.926
       230.000         187.000
  -5519403.95549  -4274289.15245  24253346.211    24253347.109    24253363.990
       215.000         157.000
   -699123.55349   -530804.46645  24303324.529    24303324.513    24303340.865
       214.000         149.000
 01 12 19 22  2 30.0000000  0  9G28G 2G27G26G 4G 7G 8G 9G11
   1151578.31949    901765.62547  21441901.332    21441901.298    21441910.982
       242.000         209.000
   8497559.50749   6616628.29146  23410590.481    23410589.986    23410605.541
       223.000         175.000
  17325072.06849  13494249.84545  24760677.902    24760675.137    24760696.292
       200.000         136.000
  -8206315.24849  -6380489.19847  22925906.825    22925907.375    22925920.824
       232.000         189.000
  -7443647.91949  -5776708.82945  23468608.754    23468610.771    23468630.278
       218.000         161.000
 -13292956.88249 -10342751.57147  20420473.449    20420473.393    20420484.335
       229.000         202.000
   9259687.02649   7218371.38347  22186579.780    22186579.130    22186592.528
       230.000         188.000
  -5624466.57649  -4356155.77745  24233352.937    24233353.981    24233370.905
       214.000         157.000
   -641677.70049   -486041.58845  24314256.458    24314256.316    24314272.521
       214.000         149.000
 01 12 19 22  3  0.0000000  0  9G28G 2G27G26G 4G 7G 8G 9G11
   1181610.57849    925167.37047  21447616.294    21447616.253    21447625.953
       241.000         209.000
   8548960.86849   6656681.19346  23420371.804    23420371.378    23420387.014
       222.000         176.000
  17431727.48449  13577357.67745  24780974.799    24780971.249    24780992.435
       198.000         132.000
  -8174280.67849  -6355527.23547  22932002.830    22932003.381    22932016.807
       232.000         190.000
  -7551446.82549  -5860707.49945  23448094.730    23448096.856    23448116.353
       216.000         160.000
 -13294750.64049 -10344149.28247  20420132.069    20420132.051    20420143.004
       228.000         202.000
   9348671.03949   7287709.43147  22203512.942    22203512.339    22203525.844
       228.000         188.000
  -5729400.18949  -4437921.85845  24213384.130    24213385.366    24213402.387
       214.000         159.000
   -583802.35249   -440944.05945  24325269.733    24325269.686    24325285.879
       210.000         148.000
 01 12 19 22  3 30.0000000  0  9G28G 2G27G26G 4G 7G 8G 9G11
   1211829.52549    948714.57847  21453366.743    21453366.729    21453376.440
       241.000         208.000
   8600502.88949   6696843.69146  23430179.976    23430179.589    23430195.224
       224.000         175.000
  17538525.53049  13660576.68944  24801298.282    24801294.493    24801315.756
       198.000         128.000
  -8141761.68249  -6330187.79947  22938191.135    22938191.609    22938204.951
       234.000         190.000
  -7659140.82349  -5944624.43945  23427600.307    23427602.773    23427622.140
       214.000         160.000
 -13296130.37649 -10345224.37947  20419869.556    20419869.495    20419880.454
       229.000         202.000
   9437980.04649   7357300.72347  22220507.910    22220507.380    22220520.987
       229.000         188.000
  -5834194.46549  -4519579.40745  24193442.123    24193443.315    24193460.393
       215.000         160.000
   -525491.48349   -395507.13245  24336365.593    24336365.841    24336382.179
       211.000         149.000
 01 12 19 22  4  0.0000000  0  9G28G 2G27G26G 4G 7G 8G 9G11
   1242256.02649    972423.51747  21459156.712    21459156.698    21459166.417
       241.000         208.000
   8652206.59449   6737132.16646  23440019.039    23440018.606    23440034.168
       225.000         175.000
  17645484.79349  13743921.25344  24821652.171    24821647.892    24821669.771
       200.000         127.000
  -8108739.78349  -6304456.49847  22944475.186    22944475.552    22944488.802
       233.000         189.000
  -7766706.33849  -6028441.25946  23407131.006    23407133.342    23407152.299
       221.000         163.000
 -13297076.74649 -10345961.78647  20419689.472    20419689.401    20419700.361
       228.000         202.000
   9527632.92349   7427159.96146  22237568.333    22237567.838    22237581.537
       230.000         187.000
  -5938826.99449  -4601110.91945  24173531.065    24173532.114    24173549.287
       218.000         159.000
   -466726.38149   -349716.24345  24347548.018    24347548.475    24347564.976
       211.000         149.000
 01 12 19 22  4 30.0000000  0  9G28G 2G27G26G 4G 7G 8G 9G11
   1272850.91749    996263.66947  21464978.760    21464978.731    21464988.442
       242.000         208.000
   8704033.15349   6777516.37846  23449881.620    23449881.045    23449896.522
       227.000         174.000
  17752564.08949  13827359.41444  24842028.746    24842024.339    24842046.398
       197.000         118.000
  -8075255.98149  -6278365.26647  22950847.085    22950847.401    22950860.550
       234.000         188.000
  -7874179.32949  -6112186.00046  23386679.713    23386681.724    23386700.226
       226.000         168.000
 -13297629.75449 -10346392.68147  20419584.249    20419584.151    20419595.121
       228.000         201.000
   9617588.90049   7497255.38346  22254686.462    22254685.983    22254699.751
       229.000         186.000
  -6043334.59949  -4682545.11645  24153643.727    24153644.667    24153662.048
       219.000         159.000
   -407548.07449   -303603.37145  24358809.487    24358809.826    24358826.361
       215.000         152.000
 01 12 19 22  5  0.0000000  0  9G28G 2G27G26G 4G 7G 8G 9G11
   1303632.22149   1020249.08647  21470836.294    21470836.248    21470845.949
       241.000         207.000
   8756000.65849   6818010.42046  23459771.083    23459770.311    23459785.708
       225.000         174.000
  17859779.07148  13910903.31944  24862430.927    24862427.072    24862448.680
       187.000         116.000
  -8041294.76149  -6251902.03246  22957309.766    22957310.089    22957323.143
       232.000         187.000
  -7981538.99149  -6195842.46846  23366249.796    23366251.633    23366270.004
       223.000         168.000
 -13297773.06549 -10346504.32347  20419556.984    20419556.856    20419567.805
       228.000         200.000
   9707863.85249   7567599.35846  22271865.278    22271864.819    22271878.641
       229.000         185.000
  -6147697.14749  -4763866.30845  24133784.077    24133784.845    24133802.435
       219.000         157.000
   -347940.71249   -257156.17745  24370152.843    24370152.920    24370169.370
       215.000         153.000
 01 12 19 22  5 30.0000000  0  9G28G 2G27G26G 4G 7G 8G 9G11
   1334593.44149   1044374.69647  21476727.967    21476727.974    21476737.682
       241.000         207.000
   8808102.68349   6858609.26846  23469685.936    23469685.120    23469700.545
       223.000         173.000
  17967120.93348  13994545.88144  24882857.601    24882853.527    24882874.701
       193.000         115.000
  -8006864.69049  -6225073.46346  22963861.635    22963861.958    22963874.930
       232.000         186.000
  -8088788.80149  -6279413.38046  23345840.543    23345842.353    23345860.768
       219.000         170.000
 -13297514.22249 -10346302.60147  20419606.211    20419606.099    20419617.008
       228.000         200.000
   9798449.31949   7638185.28546  22289103.218    22289102.769    22289116.575
       229.000         184.000
  -6251918.86049  -4845077.75945  24113951.143    24113951.874    24113969.617
       219.000         159.000
   -287912.59249   -210381.12445  24381576.241    24381576.167    24381592.412
       215.000         152.000
 01 12 19 22  6  0.0000000  0  9G28G 2G27G26G 4G 7G 8G 9G11
   1365754.64849   1068656.14447  21482657.717    21482657.751    21482667.475
       241.000         207.000
   8860359.60749   6899328.81846  23479630.055    23479629.347    23479644.861
       222.000         172.000
                  14078301.72744  24903311.925                    24903328.342
       205.000         108.000
  -7971947.69849  -6197865.47646  22970506.062    22970506.442    22970519.355
       230.000         187.000
  -8195905.35449  -6362880.46446  23325456.760    23325458.486    23325476.774
       223.000         171.000
 -13296834.33549 -10345772.79847  20419735.580    20419735.459    20419746.320
       228.000         201.000
   9889363.78149   7709027.55946  22306403.822    22306403.317    22306417.096
       228.000         184.000
  -6355977.25049  -4926161.92445  24094149.190    24094149.923    24094167.803
       221.000         159.000
   -227445.64949   -163264.11645  24393082.808    24393082.788    24393098.883
       212.000         152.000
 01 12 19 22  6 30.0000000  0  8G28G 2G26G 4G 7G 8G 9G11
   1397136.59149   1093109.59947  21488629.532    21488629.547    21488639.280
       241.000         207.000
   8912792.15649   6940185.21746  23489607.499    23489606.971    23489622.534
       219.000         172.000
  -7936525.65649  -6170263.94946  22977246.525    22977246.993    22977259.940
       231.000         186.000
  -8302865.39849  -6446225.60246  23305102.960    23305104.501    23305122.445
       223.000         171.000
 -13295714.27249 -10344900.00447  20419948.773    20419948.639    20419959.440
       228.000         202.000
   9980625.57649   7780140.48246  22323770.562    22323769.992    22323783.710
       229.000         183.000
  -6459850.00649  -5007101.46845  24074382.436    24074383.248    24074401.263
       216.000         155.000
   -166521.30849   -115790.68245  24404676.092    24404676.301    24404692.518
       212.000         153.000
 01 12 19 22  7  0.0000000  0  8G28G 2G26G 4G 7G 8G 9G11
   1428767.06349   1117756.71447  21494648.629    21494648.646    21494658.398
       240.000         207.000
   8965428.45049   6981200.37246  23499623.809    23499623.400    23499638.977
       220.000         171.000
  -7900572.73849  -6142248.74246  22984088.021    22984088.590    22984101.587
       231.000         187.000
  -8409638.03849  -6529424.73446  23284784.549    23284786.115    23284803.787
       220.000         170.000
 -13294127.37049 -10343663.43947  20420250.821    20420250.683    20420261.395
       228.000         201.000
  10072260.81149   7851544.39846  22341208.338    22341207.737    22341221.380
       229.000         183.000
  -6563506.95849  -5087872.88845  24054656.743    24054657.665    24054675.649
       216.000         153.000
   -105113.82149    -67940.76445  24416361.213    24416361.729    24416378.062
       212.000         152.000
 01 12 19 22  7 30.0000000  0  8G28G 2G26G 4G 7G 8G 9G11
   1460609.47449   1142568.98347  21500708.057    21500708.061    21500717.845
       240.000         207.000
   9018232.29349   7022346.08846  23509672.217    23509671.738    23509687.297
       222.000         170.000
  -7864127.86249  -6113850.19847  22991023.201    22991023.827    22991036.899
       233.000         189.000
  -8516256.80449  -6612504.02246  23264495.188    23264496.893    23264514.580
       218.000         171.000
 -13292111.40749 -10342092.55147  20420634.437    20420634.315    20420644.982
       228.000         201.000
  10164230.97349   7923209.29146  22358709.758    22358709.192    22358722.823
       227.000         182.000
  -6666982.50849  -5168502.93745  24034965.697    24034966.622    24034984.491
       218.000         155.000
    -43261.58249    -19744.28545  24428131.263    24428131.826    24428148.274
       212.000         153.000
 01 12 19 22  8  0.0000000  0  8G28G 2G26G 4G 7G 8G 9G11
   1492632.07049   1167521.65447  21506801.746    21506801.779    21506811.561
       240.000         207.000
   9071172.13049   7063597.79146  23519746.658    23519746.011    23519761.545
       223.000         171.000
  -7827224.92449  -6085094.71447  22998045.652    22998046.279    22998059.373
       232.000         189.000
  -8622750.45949  -6695485.82346  23244229.939    23244231.566    23244249.291
       220.000         171.000
 -13289699.67449 -10340213.26347  20421093.299    20421093.232    20421103.874
       228.000         201.000
  10256502.36449   7995108.93146  22376268.420    22376267.915    22376281.600
       227.000         182.000
  -6770306.06049  -5249014.54045  24015303.600    24015304.511    24015322.186
       217.000         152.000
     19001.46549     28772.30045  24439979.876    24439980.220    24439996.695
       215.000         155.000
 01 12 19 22  8 30.0000000  0  8G28G 2G26G 4G 7G 8G 9G11
   1524816.25349   1192600.23147  21512926.188    21512926.209    21512936.015
       240.000         206.000
   9124229.33549   7104940.93146  23529843.416    23529842.607    23529858.159
       221.000         170.000
  -7789885.09549  -6055998.80447  23005151.279    23005151.851    23005164.981
       232.000         189.000
  -8729134.71449  -6778382.40346  23223985.696    23223987.119    23224004.798
       222.000         170.000
 -13286912.11449 -10338041.13447  20421623.747    20421623.653    20421634.322
       228.000         201.000
  10349054.16149   8067227.04446  22393880.338    22393879.989    22393893.779
       226.000         181.000
  -6873494.50649  -5329420.87345  23995667.200    23995668.134    23995685.554
       217.000         150.000
     81654.63049     77592.86445  24451902.861    24451902.921    24451919.309
       217.000         157.000
 01 12 19 22  9  0.0000000  0  8G28G 2G26G 4G 7G 8G 9G11
   1557218.55649   1217848.77347  21519092.113    21519092.154    21519101.981
       239.000         206.000
   9177460.69249   7146419.79246  23539973.131    23539972.324    23539987.946
       220.000         169.000
  -7752053.80049  -6026519.92247  23012350.404    23012350.948    23012364.089
       232.000         189.000
  -8835349.98849  -6861147.31246  23203773.416    23203774.802    23203792.306
       220.000         169.000
 -13283693.36249 -10335533.00147  20422236.195    20422236.108    20422246.821
       227.000         201.000
  10441941.09149   8139606.31846  22411556.013    22411555.783    22411569.763
       225.000         181.000
  -6976488.78449  -5409675.93745  23976067.794    23976068.753    23976085.893
       213.000         153.000
    144752.39249    126759.87345  24463910.318    24463910.171    24463926.572
       218.000         159.000
 01 12 19 22  9 30.0000000  0  8G28G 2G26G 4G 7G 8G 9G11
   1589813.29549   1243247.26247  21525294.671    21525294.720    21525304.552
       240.000         206.000
   9230840.74049   7188014.49546  23550130.931    23550130.257    23550146.014
       219.000         169.000
  -7713759.45249  -5996680.22346  23019637.671    23019638.186    23019651.309
       232.000         187.000
  -8941419.05449  -6943798.32146  23183588.859    23183590.249    23183607.599
       217.000         167.000
 -13280070.67549 -10332710.12547  20422925.493    20422925.439    20422936.191
       227.000         202.000
  10535135.27049   8212224.99646  22429290.192    22429290.085    22429304.235
       225.000         181.000
  -7079312.56049  -5489798.07645  23956500.685    23956501.733    23956518.781
       212.000         152.000
    208266.57849    176251.34845  24475996.619    24475996.581    24476013.057
       214.000         159.000
 01 12 19 22 10  0.0000000  0  8G28G 2G26G 4G 7G 8G 9G11
   1622639.36349   1268826.00147  21531541.244    21531541.294    21531551.118
       240.000         206.000
   9284408.42749   7229755.41746  23560324.403    23560323.895    23560339.777
       220.000         169.000
  -7674965.20549  -5966450.99946  23027020.100    23027020.533    23027033.643
       232.000         186.000
  -9047299.80749  -7026302.59446  23163440.161    23163441.557    23163458.831
       222.000         169.000
 -13276006.40049 -10329543.15347  20423698.892    20423698.846    20423709.571
       230.000         203.000
  10628673.88549   8285112.07146  22447090.073    22447089.963    22447104.209
       227.000         181.000
  -7181924.53549  -5569755.20545  23936973.936    23936975.003    23936992.013
       213.000         154.000
    272234.54549    226096.42845  24488169.100    24488169.308    24488185.874
       213.000         158.000
 01 12 19 22 10 30.0000000  0  8G28G 2G26G 4G 7G 8G 9G11
   1655594.80149   1294505.54647  21537812.412    21537812.500    21537822.287
       240.000         206.000
   9338062.06449   7271563.31546  23570534.361    23570533.918    23570549.816
       219.000         169.000
  -7635775.43649  -5935913.57546  23034477.789    23034478.174    23034491.250
       231.000         186.000
  -9153091.46649  -7108737.46646  23143308.503    23143309.895    23143327.173
       220.000         170.000
 -13271603.83049 -10326112.57047  20424536.761    20424536.663    20424547.378
       230.000         203.000
  10722452.86349   8358186.45146  22464935.829    22464935.629    22464949.923
       227.000         181.000
  -7284424.50049  -5649625.02845  23917468.489    23917469.621    23917486.680
       215.000         155.000
    336552.01949    276213.84345  24500408.091    24500408.553    24500425.154
       214.000         158.000
 01 12 19 22 11  0.0000000  0  8G28G 2G26G 4G 7G 8G 9G11
   1688744.38149   1320336.35647  21544120.590    21544120.668    21544130.438
       241.000         206.000
   9391866.47349   7313488.68846  23580773.267    23580772.699    23580788.507
       221.000         170.000
  -7596127.88149  -5905019.44046  23042022.524    23042022.908    23042035.974
       231.000         185.000
  -9258726.05649  -7191049.95346  23123206.764    23123208.122    23123225.402
       222.000         169.000
 -13266799.77249 -10322369.14747  20425450.944    20425450.834    20425461.555
       230.000         202.000
  10816534.88449   8431496.96246  22482839.363    22482839.003    22482853.288
       227.000         182.000
  -7386745.62849  -5729355.51745  23897997.256    23897998.386    23898015.419
       214.000         158.000
    401281.48049    326652.26445  24512725.808    24512726.228    24512742.815
       216.000         157.000
 01 12 19 22 11 30.0000000  0  8G28G 2G26G 4G 7G 8G 9G11
   1722086.77649   1346317.41147  21550465.541    21550465.550    21550475.314
       241.000         207.000
   9445820.40349   7355530.58046  23591040.690    23591039.937    23591055.680
       220.000         170.000
  -7556026.24649  -5873771.47346  23049653.570    23049654.025    23049667.119
       230.000         185.000
  -9364202.12749  -7273238.88946  23103135.275    23103136.520    23103153.642
       223.000         169.000
 -13261596.86949 -10318314.93247  20426440.966    20426440.901    20426451.621
       230.000         202.000
  10910916.40249   8505040.84246  22500799.821    22500799.377    22500813.659
       228.000         180.000
  -7488887.03849  -5808945.93545  23878560.037    23878561.236    23878578.422
       210.000         159.000
    466419.39049    377408.97245  24525121.358    24525121.673    24525138.164
       217.000         158.000
 01 12 19 22 12  0.0000000  0  8G28G 2G26G 4G 7G 8G 9G11
   1755657.99349   1372476.76647  21556854.052    21556853.982    21556863.736
       241.000         206.000
   9499960.11949   7397717.23746  23601343.337    23601342.514    23601358.209
       219.000         169.000
  -7515437.02949  -5842143.58346  23057377.422    23057377.914    23057391.047
       231.000         186.000
  -9469480.54849  -7355273.81346  23083101.331    23083102.556    23083119.349
       223.000         169.000
 -13255960.62549 -10313923.05147  20427513.481    20427513.412    20427524.126
       229.000         202.000
  11005631.61049   8578844.75046  22518823.751    22518823.234    22518837.518
       227.000         180.000
  -7590810.64949  -5888366.62545  23859164.104    23859165.487    23859182.883
       216.000         161.000
    531999.60749    428510.31745  24537601.091    24537601.285    24537617.739
       218.000         159.000
 01 12 19 22 12 30.0000000  0  8G28G 2G26G 4G 7G 8G 9G11
   1789411.83349   1398778.41947  21563277.223    21563277.152    21563286.897
       241.000         206.000
   9554239.58149   7440012.79046  23611672.367    23611671.614    23611687.348
       218.000         168.000
  -7474408.77649  -5810173.57646  23065184.787    23065185.340    23065198.532
       232.000         187.000
  -9574604.70149  -7437188.49046  23063096.730    23063097.956    23063114.542
       226.000         172.000
 -13249938.69749 -10309230.63647  20428659.346    20428659.328    20428670.050
       229.000         202.000
  11100631.96349   8652870.84146  22536901.858    22536901.330    22536915.658
       227.000         180.000
  -7692560.56249  -5967651.98246  23839801.303    23839802.826    23839820.467
       216.000         163.000
    597973.68949    479918.58345  24550155.761    24550155.852    24550172.210
       218.000         162.000
 01 12 19 22 13  0.0000000  0  8G28G 2G26G 4G 7G 8G 9G11
   1823362.56649   1425233.48447  21569737.834    21569737.782    21569747.482
       240.000         205.000
   9608672.92149   7482428.24746  23622030.542    23622029.984    23622045.768
       216.000         167.000
  -7432929.86349  -5777852.40646  23073077.987    23073078.533    23073091.799
       231.000         187.000
  -9679557.22349  -7518969.43746  23043124.935    23043126.072    23043142.587
       225.000         175.000
 -13243518.33249 -10304227.75447  20429881.142    20429881.097    20429891.845
       228.000         203.000
  11195929.58949   8727128.57246  22555036.469    22555035.957    22555050.368
       226.000         179.000
  -7794120.20749  -6046789.10046  23820474.955    23820476.435    23820494.284
       213.000         166.000
    664353.76149    531643.17345  24562787.547    24562787.643    24562803.975
       217.000         162.000
 01 12 19 22 13 30.0000000  0  8G28G 2G26G 4G 7G 8G 9G11
   1857495.55449   1451830.56747  21576233.188    21576233.121    21576242.771
       242.000         206.000
   9663245.84849   7524952.46846  23632415.301    23632414.912    23632430.748
       217.000         166.000
  -7391017.14449  -5745193.20247  23081053.870    23081054.334    23081067.620
       233.000         189.000
  -9784349.84949  -7600625.76646  23023183.541    23023184.572    23023201.166
       228.000         174.000
 -13236715.51749 -10298926.85447  20431175.690    20431175.623    20431186.416
       229.000         203.000
  11291508.21949   8801605.26646  22573224.490    22573224.052    22573238.531
       225.000         178.000
  -7895501.98749  -6125787.60446  23801182.569    23801183.904    23801201.947
       218.000         170.000
    731123.17049    583671.12945  24575493.280    24575493.449    24575509.883
       217.000         160.000
 01 12 19 22 14  0.0000000  0  8G28G 2G26G 4G 7G 8G 9G11
   1891821.00649   1478577.62047  21582765.168    21582765.101    21582774.705
       241.000         205.000
   9717968.61349   7567593.45446  23642828.804    23642828.403    23642844.295
       219.000         167.000
  -7348663.19549  -5712190.18047  23089113.753    23089114.118    23089127.419
       232.000         189.000
  -9888969.29249  -7682147.14946  23003274.961    23003275.961    23003292.578
       225.000         174.000
 -13229521.50949 -10293321.12447  20432544.499    20432544.546    20432555.393
       227.000         202.000
  11387375.37849   8876306.79846  22591467.393    22591467.024    22591481.614
       225.000         178.000
  -7996693.67449  -6204638.00646  23781926.499    23781927.655    23781945.755
       220.000         171.000
    798289.43349    636008.31946  24588274.555    24588274.826    24588291.394
       218.000         163.000
 01 12 19 22 14 30.0000000  0  8G28G 2G26G 4G 7G 8G 9G11
   1926330.97449   1505468.44947  21589332.240    21589332.161    21589341.763
       241.000         205.000
   9772833.56449   7610345.23346  23653269.453    23653268.978    23653284.866
       218.000         167.000
  -7305878.35149  -5678851.40447  23097255.613    23097255.894    23097269.201
       232.000         188.000
  -9993420.63749  -7763537.53046  22983398.186    22983399.294    22983415.806
       224.000         172.000
 -13221945.71549 -10287417.89847  20433985.982    20433986.094    20433996.998
       228.000         202.000
  11483521.45249   8951225.65946  22609763.372    22609763.075    22609777.776
       225.000         179.000
  -8097700.73549  -6283344.52746  23762705.521    23762706.514    23762724.641
       220.000         171.000
    865842.73349    688647.11346  24601129.743    24601129.899    24601146.529
       219.000         165.000
 01 12 19 22 15  0.0000000  0  8G28G 2G26G 4G 7G 8G 9G11
   1961072.04049   1532539.35347  21595943.250    21595943.184    21595952.785
       240.000         204.000
   9827887.32649   7653244.14146  23663746.034    23663745.498    23663761.418
       218.000         168.000
  -7262618.45549  -5645142.45046  23105487.770    23105488.041    23105501.366
       231.000         187.000
 -10097654.23249  -7844758.19046  22963562.932    22963564.085    22963580.412
       225.000         172.000
 -13213943.15949 -10281182.13047  20435508.883    20435508.935    20435519.801
       229.000         203.000
  11579990.71149   9026396.36146  22628120.904    22628120.656    22628135.450
       226.000         179.000
  -8198474.48549  -6361869.24246  23743528.922    23743529.802    23743547.902
       222.000         173.000
    933827.21649    741621.88446  24614066.987    24614066.997    24614083.704
       218.000         163.000
 01 12 19 22 15 30.0000000  0  8G28G 2G26G 4G 7G 8G 9G11
   1996008.66949   1559762.63647  21602591.523    21602591.455    21602601.011
       241.000         204.000
   9883094.53949   7696262.62146  23674251.831    23674251.205    23674267.186
       218.000         169.000
  -7218921.74249  -5611093.13146  23113803.028    23113803.273    23113816.658
       230.000         186.000
 -10201702.71849  -7925834.63446  22943763.040    22943764.120    22943780.409
       223.000         175.000
 -13205550.81549 -10274642.63547  20437105.979    20437105.975    20437116.821
       229.000         204.000
  11676745.48049   9101789.53346  22646532.808    22646532.568    22646547.475
       226.000         180.000
  -8299048.39749  -6440238.24846  23724390.333    23724391.137    23724409.130
       221.000         172.000
   1002205.11949    794903.20645  24627079.079    24627078.952    24627095.757
       218.000         161.000
 01 12 19 22 16  0.0000000  0  8G28G 2G26G 4G 7G 8G 9G11
   2031128.86449   1587128.96547  21609274.741    21609274.655    21609284.182
       241.000         205.000
   9938443.37049   7739391.45846  23684784.482    23684783.844    23684799.925
       219.000         169.000
  -7174802.82349  -5576714.81046  23122198.556    23122198.831    23122212.285
       230.000         184.000
 -10305575.08749  -8006773.83346  22923996.622    22923997.655    22924014.050
       223.000         174.000
 -13196782.23149 -10267809.96147  20438774.715    20438774.609    20438785.437
       230.000         203.000
  11773771.66949   9177394.20846  22664996.373    22664996.120    22665011.141
       226.000         179.000
  -8399432.32349  -6518459.21746  23705287.883    23705288.596    23705306.459
       221.000         172.000
   1070962.24549    848480.04345  24640163.177    24640163.101    24640179.905
       216.000         160.000
 01 12 19 22 16 30.0000000  0  8G28G 2G26G 4G 7G 8G 9G11
   2066457.85949   1614657.99447  21615997.696    21615997.596    21616007.116
       241.000         205.000
   9993958.98749   7782650.26746  23695348.910    23695348.235    23695364.374
       219.000         169.000
  -7130238.92249  -5541989.76346  23130678.628    23130679.063    23130692.572
       229.000         185.000
 -10409243.21749  -8087553.90146  22904268.999    22904270.044    22904286.523
       224.000         175.000
 -13187613.62049 -10260665.57947  20440519.498    20440519.367    20440530.145
       230.000         204.000
  11871092.29449   9253228.30046  22683515.855    22683515.667    22683530.869
       223.000         179.000
  -8499598.66349  -6596510.66246  23686226.695    23686227.422    23686245.110
       219.000         168.000
   1140121.49049    902370.25645  24653323.889    24653323.762    24653340.620
       215.000         160.000
 01 12 19 22 17  0.0000000  0  8G28G 2G26G 4G 7G 8G 9G11
   2101965.86649   1642326.51047  21622754.711    21622754.598    21622764.127
       242.000         205.000
  10049611.70349   7826015.89246  23705939.413    23705938.700    23705954.897
       218.000         168.000
  -7085262.60649  -5506943.35346  23139237.292    23139237.793    23139251.291
       231.000         184.000
 -10512734.02349  -8168195.80446  22884575.278    22884576.248    22884592.562
       227.000         175.000
 -13178076.53749 -10253234.07447  20442334.365    20442334.247    20442344.973
       232.000         203.000
  11968675.40149   9329266.92746  22702085.312    22702085.163    22702100.523
       225.000         178.000
  -8599575.02649  -6674414.07346  23667201.638    23667202.370    23667219.894
       217.000         167.000
   1209650.60349    956548.65645  24666554.943    24666554.796    24666571.696
       215.000         160.000
 01 12 19 22 17 30.0000000  0  8G28G 2G26G 4G 7G 8G 9G11
   2137675.70649   1670152.29947  21629550.136    21629550.009    21629559.545
       241.000         205.000
  10105424.47349   7869506.24646  23716560.345    23716559.618    23716575.832
       218.000         167.000
  -7039853.58349  -5471559.75446  23147878.410    23147878.893    23147892.348
       231.000         183.000
 -10616021.67049  -8248679.39746  22864920.217    22864921.135    22864937.114
       225.000         174.000
 -13168149.53449 -10245498.73447  20444223.441    20444223.284    20444234.004
       230.000         203.000
  12066541.59049   9405526.14246  22720708.670    22720708.536    22720724.026
       223.000         178.000
  -8699336.43249  -6752149.96846  23648217.382    23648218.157    23648235.551
       216.000         165.000
   1279570.10249   1011031.26745  24679860.132    24679860.066    24679877.026
       215.000         161.000
 01 12 19 22 18  0.0000000  0  8G28G 2G26G 4G 7G 8G 9G11
   2173589.82449   1698137.26747  21636384.404    21636384.289    21636393.845
       241.000         206.000
  10161399.95149   7913123.39146  23727212.004    23727211.471    23727227.707
       216.000         166.000
  -6994011.98549  -5435839.08046  23156601.763    23156602.293    23156615.712
       231.000         184.000
 -10719100.59949  -8329000.36546  22845304.724    22845305.713    22845321.418
       226.000         175.000
 -13157831.73449 -10237458.88947  20446186.807    20446186.678    20446197.414
       230.000         203.000
  12164691.17349   9482006.18046  22739386.012    22739385.857    22739401.440
       223.000         177.000
  -8798878.22949  -6829714.73346  23629274.867    23629275.682    23629293.021
       218.000         164.000
   1349880.27949   1065818.28945  24693239.682    24693239.694    24693256.760
       218.000         162.000
 01 12 19 22 18 30.0000000  0  8G28G 2G26G 4G 7G 8G 9G11
   2209703.65749   1726277.86947  21643256.637    21643256.557    21643266.180
       240.000         205.000
  10217533.47049   7956863.66546  23737893.756    23737893.397    23737909.635
       216.000         167.000
  -6947745.13449  -5399787.03946  23165405.985    23165406.607    23165419.998
       230.000         185.000
 -10821972.75849  -8409160.24046  22825728.470    22825729.579    22825745.217
       225.000         176.000
 -13147129.36349 -10229119.37847  20448223.326    20448223.241    20448234.015
       229.000         203.000
  12263117.48549   9558701.86246  22758116.004    22758115.853    22758131.513
       223.000         177.000
  -8898202.76549  -6907110.22046  23610373.725    23610374.583    23610391.902
       218.000         165.000
   1420574.00949   1120904.19046  24706692.352    24706692.372    24706709.504
       218.000         165.000
 01 12 19 22 19  0.0000000  0  8G28G 2G26G 4G 7G 8G 9G11
   2245983.00749   1754547.44847  21650160.375    21650160.312    21650170.011
       241.000         206.000
  10273790.90049   8000700.48546  23748599.214    23748598.936    23748615.134
       218.000         168.000
  -6901089.94249  -5363432.37946  23174284.123    23174284.796    23174298.178
       232.000         186.000
 -10924669.05949  -8489183.11746  22806185.623    22806186.860    22806202.549
       223.000         176.000
 -13136078.27649 -10220508.12947  20450326.231    20450326.168    20450336.943
       230.000         203.000
  12361783.86049   9635584.61146  22776891.721    22776891.548    22776907.286
       224.000         176.000
  -8997341.85449  -6984361.21746  23591507.923    23591508.784    23591526.116
       217.000         164.000
   1491614.77149   1176260.52545  24720211.118    24720211.134    24720228.275
       216.000         162.000
 01 12 19 22 19 30.0000000  0  8G28G 2G26G 4G 7G 8G 9G11
   2282480.26749   1782986.83047  21657105.635    21657105.553    21657115.290
       241.000         205.000
  10330224.72749   8044674.76246  23759338.416    23759338.067    23759354.235
       220.000         169.000
  -6853996.64049  -5326736.35046  23183245.696    23183246.401    23183259.739
       232.000         186.000
 -11027134.39449  -8569026.03446  22786686.840    22786688.136    22786703.754
       223.000         177.000
 -13124627.46949 -10211585.41747  20452505.309    20452505.196    20452515.962
       231.000         203.000
  12460740.69949   9712693.68246  22795722.741    22795722.514    22795738.314
       221.000         176.000
  -9096240.96149  -7061425.20946  23572687.809    23572688.684    23572706.093
       218.000         165.000
   1563052.59449   1231926.21045  24733805.507    24733805.441    24733822.621
       219.000         162.000
 01 12 19 22 20  0.0000000  0  8G28G 2G26G 4G 7G 8G 9G11
   2319175.48349   1811580.46247  21664088.632    21664088.487    21664098.210
       242.000         206.000
  10386815.23949   8088771.13446  23770107.530    23770107.014    23770123.220
       220.000         169.000
  -6806487.90249  -5289716.60846  23192286.334    23192287.059    23192300.404
       232.000         187.000
 -11129385.70149  -8648702.17746  22767228.889    22767230.156    22767245.567
       228.000         176.000
 -13112798.60849 -10202368.11647  20454756.386    20454756.196    20454766.913
       233.000         204.000
  12559965.70249   9790011.72046  22814604.797    22814604.545    22814620.379
       223.000         177.000
  -9194918.15349  -7138316.28246  23553910.007    23553910.821    23553928.364
       221.000         166.000
   1634864.99349   1287883.82245  24747471.340    24747471.018    24747488.245
       220.000         162.000
 01 12 19 22 20 30.0000000  0  8G28G 2G26G 4G 7G 8G 9G11
   2356071.69649   1840330.72347  21671109.822    21671109.664    21671119.358
       241.000         205.000
  10443565.45049   8132991.95446  23780907.026    23780906.366    23780922.617
       218.000         167.000
  -6758563.30049  -5252372.81746  23201406.149    23201406.844    23201420.244
       230.000         186.000
 -11231416.89549  -8728206.81746  22747812.725    22747814.049    22747829.220
       225.000         176.000
 -13100590.20349 -10192855.06547  20457079.686    20457079.441    20457090.068
       232.000         205.000
  12659459.72449   9867539.37046  22833538.069    22833537.766    22833553.611
       220.000         176.000
  -9293368.07149  -7215030.27146  23535175.523    23535176.224    23535193.901
       219.000         167.000
   1707052.95949   1344134.04545  24761208.633    24761208.068    24761225.351
       217.000         157.000
 01 12 19 22 21  0.0000000  0  8G28G 2G26G 4G 7G 8G 9G11
   2393139.93649   1869215.03547  21678163.650    21678163.550    21678173.256
       241.000         205.000
  10500446.79249   8177314.93246  23791731.258    23791730.615    23791746.923
       217.000         167.000
  -6710254.47249  -5214729.64246  23210599.068    23210599.753    23210613.189
       230.000         186.000
 -11333253.83649  -8807560.09446  22728433.447    22728434.865    22728449.986
       225.000         179.000
 -13088032.58849 -10183069.90047  20459469.365    20459469.104    20459479.678
       232.000         204.000
  12759191.88949   9945252.60246  22852516.693    22852516.291    22852532.114
       220.000         175.000
  -9391617.07349  -7291587.69646  23516479.263    23516479.926    23516497.725
       221.000         168.000
   1779585.05549   1400652.45845  24775011.409    24775010.732    24775027.985
       217.000         160.000
 01 12 19 22 21 30.0000000  0  8G28G 2G26G 4G 7G 8G 9G11
   2430424.14649   1898267.63547  21685258.583    21685258.528    21685268.267
       242.000         206.000
  10557503.03549   8221774.22446  23802588.684    23802588.114    23802604.526
       216.000         167.000
  -6661520.29849  -5176755.02546  23219873.019    23219873.632    23219887.079
       231.000         185.000
 -11434849.75249  -8886725.59346  22709100.138    22709101.548    22709116.763
       227.000         180.000
 -13075083.58749 -10172979.76847  20461933.448    20461933.243    20461943.804
       233.000         205.000
  12859203.50349  10023183.58246  22871548.455    22871548.032    22871563.795
       222.000         174.000
  -9489619.06449  -7367952.66646  23497830.033    23497830.633    23497848.428
       223.000         170.000
   1852502.83749   1457471.36045  24788887.455    24788886.694    24788903.962
       221.000         160.000
 01 12 19 22 22  0.0000000  0  8G28G 2G26G 4G 7G 8G 9G11
   2467922.19349   1927486.86847  21692394.301    21692394.215    21692403.964
       242.000         206.000
  10614731.66949   8266367.83446  23813478.812    23813478.418    23813494.900
       216.000         167.000
  -6612365.92049  -5138452.97646  23229227.001    23229227.499    23229240.946
       230.000         184.000
 -11536203.99749  -8965702.76146  22689812.945    22689814.316    22689829.564
       227.000         181.000
 -13061747.39049 -10162587.91847  20464471.248    20464471.054    20464481.617
       232.000         205.000
  12959490.06949  10101328.80746  22890632.544    22890632.088    22890647.738
       221.000         173.000
  -9587374.41149  -7444125.45346  23479227.652    23479228.272    23479245.999
       220.000         170.000
   1925801.57049   1514587.12945  24802835.827    24802835.098    24802852.386
       217.000         161.000
 01 12 19 22 22 30.0000000  0  8G28G 2G26G 4G 7G 8G 9G11
   2505613.64849   1956856.81647  21699566.890    21699566.736    21699576.447
       242.000         205.000
  10672112.78049   8311080.27046  23824398.098    23824397.776    23824414.306
       217.000         168.000
  -6562814.18749  -5099841.30246  23238656.598    23238656.969    23238670.486
       230.000         185.000
 -11637333.71249  -9044504.97146  22670568.466    22670569.797    22670585.040
       228.000         180.000
 -13048045.48849 -10151911.10847  20467078.624    20467078.436    20467088.985
       231.000         204.000
  13060029.16149  10179670.80546  22909764.646    22909764.203    22909779.732
       221.000         172.000
  -9684900.93349  -7520119.91246  23460668.752    23460669.445    23460687.039
       223.000         170.000
   1999458.53749   1571982.06245  24816852.195    24816851.604    24816868.937
       216.000         158.000
 01 12 19 22 23  0.0000000  0  8G28G 2G26G 4G 7G 8G 9G11
   2543536.79049   1986407.29047  21706783.537    21706783.345    21706793.014
       243.000         205.000
  10729684.76249   8355941.41446  23835353.931    23835353.518    23835370.007
       220.000         168.000
  -6512829.67349  -5060892.40046  23248168.449    23248168.780    23248182.346
       232.000         186.000
 -11738197.84449  -9123100.24146  22651374.402    22651375.773    22651391.044
       228.000         181.000
 -13033941.46949 -10140920.96547  20469762.512    20469762.327    20469772.840
       233.000         204.000
  13160856.85849  10258237.69046  22928951.717    22928951.234    22928966.647
       221.000         172.000
  -9782158.33249  -7595904.69446  23442161.125    23442161.836    23442179.103
       224.000         170.000
   2073509.64249   1629684.10945  24830943.353    24830943.065    24830960.452
       219.000         162.000
 01 12 19 22 23 30.0000000  0  8G28G 2G26G 4G 7G 8G 9G11
   2581659.57749   2016113.33547  21714038.036    21714037.894    21714047.595
       241.000         204.000
  10787415.45849   8400926.22746  23846340.037    23846339.502    23846355.980
       220.000         169.000
  -6462447.29149  -5021633.47046  23257756.024    23257756.331    23257769.902
       232.000         186.000
 -11838825.59949  -9201511.29946  22632225.161    22632226.688    22632242.061
       227.000         181.000
 -13019468.95449 -10129643.67347  20472516.525    20472516.355    20472526.824
       232.000         204.000
  13261938.68849  10337002.60446  22948187.139    22948186.634    22948201.914
       222.000         172.000
  -9879176.18449  -7671502.82546  23423699.170    23423699.842    23423716.696
       224.000         170.000
   2147920.24549   1687666.21945  24845103.034    24845102.915    24845120.349
       214.000         158.000
 01 12 19 22 24  0.0000000  0  8G28G 2G26G 4G 7G 8G 9G11
   2619981.41749   2045974.48947  21721330.431    21721330.308    21721340.063
       241.000         203.000
  10845304.20049   8446034.20246  23857356.178    23857355.510    23857372.070
       218.000         170.000
  -6411670.35749  -4982067.10046  23267418.712    23267418.963    23267432.476
       233.000         187.000
 -11939214.45849  -9279736.21546  22613121.515    22613123.107    22613138.577
       227.000         180.000
 -13004630.24949 -10118081.04047  20475340.245    20475340.082    20475350.532
       232.000         205.000
  13363272.01149  10415963.47146  22967470.349    22967469.882    22967485.062
       222.000         171.000
  -9975952.85349  -7746913.02446  23405283.059    23405283.747    23405300.167
       225.000         172.000
   2222687.33049   1745926.17345  24859330.598    24859330.618    24859348.050
       214.000         158.000
 01 12 19 22 24 30.0000000  0  8G28G 2G26G 4G 7G 8G 9G11
   2658490.74749   2075981.74247  21728658.481    21728658.393    21728668.175
       241.000         203.000
  10903339.52049   8491256.38546  23868400.086    23868399.410    23868416.035
       218.000         171.000
  -6360513.41649  -4942204.61746  23277153.619    23277153.869    23277167.343
       232.000         186.000
 -12039373.13949  -9357781.75346  22594062.004    22594063.410    22594078.853
       229.000         181.000
 -12989438.65249 -10106243.42247  20478231.078    20478230.936    20478241.401
       232.000         204.000
  13464842.60149  10495109.22146  22986798.734    22986798.282    22986813.375
       222.000         170.000
 -10072497.83349  -7822142.68746  23386911.063    23386911.743    23386927.815
       224.000         171.000
   2297796.78949   1804452.85145  24873623.406    24873623.460    24873640.922
       214.000         155.000
 01 12 19 22 25  0.0000000  0  8G28G 2G26G 4G 7G 8G 9G11
   2697182.62249   2106131.23947  21736021.299    21736021.229    21736031.007
       241.000         203.000
  10961516.30249   8536588.80046  23879470.762    23879470.149    23879486.919
       219.000         170.000
  -6308984.21949  -4902052.06846  23286959.217    23286959.567    23286973.082
       231.000         185.000
 -12139303.72149  -9435649.52646  22575046.003    22575047.193    22575062.469
       231.000         182.000
 -12973900.83749 -10094136.02947  20481187.793    20481187.684    20481198.145
       233.000         205.000
  13566643.33749  10574434.29246  23006170.909    23006170.476    23006185.527
       223.000         169.000
 -10168814.02649  -7897194.07446  23368582.579    23368583.276    23368599.064
       225.000         172.000
   2373241.18649   1863240.58045  24887980.144    24887980.107    24887997.467
       214.000         156.000
 01 12 19 22 25 30.0000000  0  8G28G 2G26G 4G 7G 8G 9G11
   2736104.27049   2136459.77947  21743427.850    21743427.804    21743437.573
       240.000         202.000
  11019882.18249   8582068.56646  23890577.321    23890576.821    23890593.736
       218.000         171.000
  -6257038.20449  -4861574.72946  23296844.044    23296844.560    23296858.172
       229.000         184.000
 -12238955.76649  -9513300.23946  22556082.896    22556084.012    22556099.066
       228.000         181.000
 -12957971.01949 -10081723.17647  20484219.137    20484219.047    20484229.495
       233.000         205.000
  13668719.34049  10653973.87246  23025595.539    23025595.056    23025610.047
       222.000         169.000
 -10264851.49649  -7972028.25746  23350307.246    23350307.870    23350323.469
       224.000         173.000
   2449065.45249   1922324.27845  24902409.501    24902409.199    24902426.333
       217.000         155.000
 01 12 19 22 26  0.0000000  0  8G28G 2G26G 4G 7G 8G 9G11
   2775212.19449   2166933.47047  21750869.845    21750869.811    21750879.608
       240.000         202.000
  11078393.64549   8627661.77046  23901711.622    23901711.197    23901728.198
       218.000         171.000
  -6204721.96049  -4820808.90046  23306799.454    23306800.020    23306813.746
       229.000         184.000
 -12338370.15649  -9590765.75846  22537164.948    22537166.015    22537180.897
       229.000         180.000
 -12941694.66449 -10069040.29947  20487316.511    20487316.379    20487326.805
       234.000         206.000
  13771024.67049  10733692.14246  23045063.787    23045063.296    23045078.231
       221.000         168.000
 -10360651.69549  -8046677.55946  23332077.064    23332077.612    23332093.126
       223.000         174.000
   2525223.51649   1981668.13845  24916902.283    24916901.809    24916918.774
       217.000         156.000
 01 12 19 22 26 30.0000000  0  8G28G 2G26G 4G 7G 8G 9G11
   2814551.19349   2197587.21447  21758355.862    21758355.795    21758365.643
       239.000         203.000
  11137095.29449   8673403.17346  23912882.186    23912881.816    23912898.811
       219.000         170.000
  -6151993.41149  -4779721.80346  23316833.555    23316833.986    23316847.738
       229.000         183.000
 -12437499.06649  -9668008.81546  22518301.307    22518302.330    22518317.097
       229.000         180.000
 -12925028.44149 -10056053.62947  20490488.061    20490487.896    20490498.299
       234.000         207.000
  13873601.66649  10813622.09546  23064583.748    23064583.224    23064598.161
       221.000         168.000
 -10456167.60449  -8121105.30846  23313900.964    23313901.447    23313916.927
       224.000         174.000
   2601757.76449   2041305.10445  24931466.587    24931465.935    24931482.859
       218.000         155.000
 01 12 19 22 27  0.0000000  0  8G28G 2G26G 4G 7G 8G 9G11
   2854068.39949   2228379.81647  21765875.735    21765875.660    21765885.580
       239.000         202.000
  11195934.48649   8719251.76146  23924079.100    23924078.631    23924095.572
       220.000         169.000
  -6098908.35349  -4738356.90746  23326935.563    23326935.818    23326949.562
       230.000         182.000
 -12536392.44049  -9745068.33546  22499482.522    22499483.472    22499498.098
       229.000         179.000
 -12908026.88749 -10042805.66847  20493723.377    20493723.214    20493733.598
       234.000         206.000
  13976395.52049  10893721.04346  23084145.070    23084144.450    23084159.420
       222.000         168.000
 -10551449.74749  -8195350.90946  23295769.373    23295769.806    23295785.162
       225.000         175.000
   2678612.80749   2101192.10445  24946091.839    24946091.074    24946108.111
       218.000         157.000
 01 12 19 22 27 30.0000000  0  8G28G 2G26G 4G 7G 8G 9G11
   2893800.25449   2259339.67247  21773436.387    21773436.365    21773446.353
       238.000         202.000
  11254947.85249   8765236.07446  23935309.168    23935308.639    23935325.457
       220.000         169.000
  -6045433.02349  -4696687.92346  23337111.761    23337111.911    23337125.627
       230.000         182.000
 -12635010.64449  -9821913.42546  22480716.072    22480716.943    22480731.408
       229.000         180.000
 -12890655.20949 -10029269.30247  20497029.095    20497028.941    20497039.327
       234.000         207.000
  14079440.15749  10974015.40846  23103754.053    23103753.387    23103768.435
       222.000         168.000
 -10646459.22749  -8269384.04046  23277689.620    23277690.009    23277705.239
       225.000         175.000
   2755822.54949   2161355.43745  24960784.390    24960783.670    24960800.872
       215.000         156.000
 01 12 19 22 28  0.0000000  0  8G28G 2G26G 4G 7G 8G 9G11
   2933732.39249   2290455.59047  21781035.103    21781035.165    21781045.230
       238.000         201.000
  11314120.57449   8811344.54546  23946569.612    23946568.994    23946585.696
       220.000         169.000
  -5991585.09749  -4654728.60646  23347358.755    23347358.909    23347372.631
       231.000         183.000
 -12733365.55449  -9898553.34546  22461999.464    22462000.432    22462014.829
       228.000         179.000
 -12872929.77949 -10015457.28847  20500402.157    20500401.985    20500412.362
       235.000         207.000
  14182718.62649  11054491.99546  23123407.515    23123406.790    23123421.943
       223.000         169.000
 -10741208.63649  -8343214.52046  23259659.323    23259659.670    23259674.732
       226.000         175.000
   2833369.88449   2221781.86845  24975541.103    24975540.502    24975557.866
       218.000         155.000
 01 12 19 22 28 30.0000000  0  8G28G 2G26G 4G 7G 8G 9G11
   2973856.60849   2321721.18147  21788670.398    21788670.509    21788680.652
       238.000         201.000
  11373444.54849   8857570.88046  23957858.795    23957858.119    23957874.757
       219.000         169.000
  -5937375.41849  -4612487.40646  23357674.628    23357674.761    23357688.497
       229.000         183.000
 -12831462.30749  -9974992.12046  22443331.879    22443332.977    22443347.382
       228.000         179.000
 -12854860.39949 -10001377.26447  20503840.666    20503840.468    20503850.830
       234.000         206.000
  14286220.59449  11135142.73346  23143103.448    23143102.741    23143118.050
       221.000         170.000
 -10835703.76249  -8416846.85946  23241677.331    23241677.692    23241692.609
       225.000         176.000
   2911244.19049   2282463.07145  24990359.936    24990359.527    24990377.120
       213.000         156.000
 01 12 19 22 29  0.0000000  0  8G28G 2G26G 4G 7G 8G 9G11
   3014159.44049   2353125.94947  21796339.795    21796339.871    21796350.073
       238.000         201.000
  11432906.47249   8903904.71446  23969174.158    23969173.474    23969190.063
       219.000         169.000
  -5882820.52749  -4569977.21846  23368056.135    23368056.281    23368070.023
       229.000         183.000
 -12929311.45349 -10051237.93846  22424711.508    22424712.647    22424727.061
       228.000         180.000
 -12836462.21049  -9987041.02347  20507341.724    20507341.543    20507351.861
       235.000         206.000
  14389930.24949  11215955.30546  23162838.900    23162838.157    23162853.618
       222.000         169.000
 -10929955.64849  -8490289.66346  23223741.581    23223742.010    23223756.807
       226.000         176.000
   2989429.46849   2343386.57045  25005237.886    25005237.717    25005255.534
       215.000         155.000
 01 12 19 22 29 30.0000000  0  8G28G 2G26G 4G 7G 8G 9G11
   3054691.20249   2384709.10247  21804052.823    21804052.829    21804063.044
       238.000         202.000
  11492556.39149   8950385.03946  23980525.204    23980524.589    23980541.189
       219.000         169.000
  -5827872.92349  -4527161.01946  23378512.190    23378512.460    23378526.252
       228.000         182.000
 -13026859.54949 -10127249.18146  22406148.526    22406149.649    22406164.057
       229.000         183.000
 -12817686.56649  -9972410.66347  20510914.574    20510914.424    20510924.713
       234.000         206.000
  14493895.61949  11296967.13146  23182622.989    23182622.247    23182637.886
       220.000         170.000
 -11023911.92649  -8563502.12246  23205862.026    23205862.538    23205877.327
       225.000         176.000
   3067973.62149   2404589.78645  25020184.231    25020184.213    25020202.218
       212.000         154.000
 01 12 19 22 30  0.0000000  0  9G28G 2G26G 4G24G 7G 8G 9G11
   3095439.26549   2416460.80747  21811806.978    21811806.963    21811817.146
       239.000         202.000
  11552381.68549   8997002.02646  23991909.588    23991909.057    23991925.727
       219.000         169.000
  -5772548.36349  -4484051.07746  23389039.866    23389040.330    23389054.223
       226.000         183.000
 -13124116.84649 -10203033.82046  22387640.903    22387642.026    22387656.402
       229.000         183.000
    -39742.14953                  24932617.222
       211.000          74.000
 -12798548.05249  -9957497.54447  20514556.561    20514556.396    20514566.623
       235.000         207.000
  14598101.44649  11378166.33646  23202452.796    23202452.066    23202467.858
       220.000         169.000
 -11117583.04949  -8636492.38546  23188036.662    23188037.306    23188052.143
       224.000         175.000
   3146861.35149   2466060.62445  25035195.854    25035196.051    25035214.262
       210.000         152.000
 01 12 19 22 30 30.0000000  0  9G28G 2G26G 4G24G 7G 8G 9G11
   3136389.96349   2448370.40647  21819599.710    21819599.674    21819609.824
       240.000         203.000
  11612368.77249   9043745.07346  24003324.807    24003324.314    24003341.017
       219.000         169.000
  -5716863.47049  -4440660.35246  23399636.158    23399636.789    23399650.822
       228.000         183.000
 -13221093.98349 -10278600.15346  22369186.486    22369187.679    22369202.067
       229.000         184.000
   -126057.83345                  24911536.690
       216.000         133.000
 -12779061.97549  -9942313.59847  20518264.706    20518264.513    20518274.699
       236.000         207.000
  14702531.82649  11459540.50546  23222325.267    23222324.582    23222340.529
       218.000         168.000
 -11210980.35649  -8709269.29746  23170263.384    23170264.150    23170279.094
       225.000         175.000
   3226076.37749   2527786.56245  25050269.766    25050270.154    25050288.472
       210.000         150.000
 01 12 19 22 31  0.0000000  0  9G28G 2G26G 4G24G 7G 8G 9G11
   3177548.27049   2480441.76947  21827431.892    21827431.881    21827442.034
       239.000         204.000
  11672522.73849   9090618.17046  24014771.719    24014771.288    24014788.117
       218.000         169.000
  -5660816.04349  -4396987.12846  23410301.767    23410302.318    23410316.479
       228.000         183.000
 -13317782.76749 -10353941.81246  22350786.892    22350788.167    22350802.608
       228.000         185.000
   -212404.50445                  24890448.207                    24890462.082
       213.000         141.000
 -12759225.10849  -9926856.30647  20522039.601    20522039.383    20522049.532
       235.000         207.000
  14807189.43349  11541091.73546  23242240.873    23242240.310    23242256.410
       217.000         167.000
 -11304096.64149  -8781827.21646  23152543.596    23152544.463    23152559.538
       224.000         173.000
   3305621.22749   2589769.46045  25065406.477    25065407.025    25065425.391
       208.000         148.000
 01 12 19 22 31 30.0000000  0  9G28G 2G26G 4G24G 7G 8G 9G11
   3218894.11149   2512659.26747  21835299.771    21835299.760    21835309.957
       240.000         204.000
  11732823.34749   9137605.52646  24026246.455    24026246.158    24026263.091
       218.000         167.000
  -5604429.18949  -4353049.41146  23421032.185    23421032.514    23421046.725
       230.000         182.000
 -13414200.47049 -10429072.23546  22332438.930    22332440.259    22332454.725
       230.000         186.000
   -416787.43349   -298796.73245  24869348.199    24869344.389    24869364.146
       204.000         143.000
 -12739059.13349  -9911142.56547  20525877.093    20525876.873    20525886.993
       236.000         207.000
  14912051.79449  11622802.50846  23262195.418    23262195.003    23262211.247
       216.000         167.000
 -11396949.59449  -8854179.95046  23134873.908    23134874.884    23134890.068
       225.000         173.000
   3385473.00149   2651991.55545  25080601.452    25080602.232    25080620.616
       209.000         145.000
 01 12 19 22 32  0.0000000  0  9G28G 2G26G 4G24G 7G 8G 9G11
   3260437.91049   2545031.00347  21843205.331    21843205.314    21843215.529
       239.000         203.000
  11793281.32749   9184715.50346  24037751.240    24037750.984    24037768.047
       217.000         168.000
  -5547695.36749  -4308841.33246  23431828.578    23431828.776    23431842.897
       230.000         182.000
 -13510333.71949 -10503981.02046  22314145.216    22314146.520    22314160.994
       230.000         185.000
   -527703.41759   -385223.95555  24848240.621    24848240.195    24848259.406
       214.000         144.000
 -12718555.31049  -9895165.56947  20529778.839    20529778.639    20529788.744
       235.000         207.000
  15017127.15449  11704679.26546  23282190.531    23282190.206    23282206.606
       214.000         166.000
 -11489526.29549  -8926317.40946  23117256.907    23117257.914    23117273.146
       226.000         174.000
   3465640.04849   2714459.31145  25095856.455    25095857.425    25095875.718
       208.000         144.000
 01 12 19 22 32 30.0000000  0  9G28G 2G26G 4G24G 7G 8G 9G11
   3302211.08249   2577581.47347  21851154.578    21851154.532    21851164.741
       239.000         203.000
  11853927.63149   9231972.21746  24049291.896    24049291.668    24049308.858
       218.000         168.000
  -5490586.41949  -4264340.95346  23442696.228    23442696.407    23442710.374
       229.000         181.000
 -13606148.56349 -10578641.71546  22295912.100    22295913.351    22295927.862
       229.000         185.000
   -638631.16249   -471660.31645  24827131.254    24827130.064    24827150.092
       212.000         148.000
 -12697684.31949  -9878902.47147  20533750.446    20533750.269    20533760.359
       235.000         207.000
  15122444.16949  11786744.31146  23302231.701    23302231.378    23302247.935
       215.000         166.000
 -11581793.36849  -8998213.61546  23099698.985    23099699.905    23099715.094
       227.000         175.000
   3546150.66249   2777194.76045  25111176.979    25111177.985    25111196.184
       208.000         146.000
 01 12 19 22 33  0.0000000  0  9G28G 2G26G 4G24G 7G 8G 9G11
   3344185.87049   2610289.05547  21859142.169    21859142.112    21859152.308
       238.000         203.000
  11914734.63649   9279354.17246  24060863.210    24060862.935    24060880.242
       219.000         166.000
  -5433132.90549  -4219572.07746  23453629.465    23453629.585    23453643.400
       230.000         181.000
 -13701669.54849 -10653073.43846  22277734.698    22277736.064    22277750.662
       228.000         185.000
   -749595.68249   -558125.24845  24806015.470    24806014.064    24806034.206
       213.000         147.000
 -12676475.27949  -9862375.94247  20537786.412    20537786.229    20537796.295
       236.000         207.000
  15227973.02149  11868974.42646  23322313.153    23322312.870    23322329.538
       215.000         164.000
 -11673776.22749  -9069888.34746  23082195.192    23082195.989    23082211.114
       227.000         177.000
   3626974.98449   2840174.69545  25126557.533    25126558.373    25126576.394
       208.000         144.000
 01 12 19 22 33 30.0000000  0  9G28G 2G26G 4G24G 7G 8G 9G11
   3386375.49049   2643164.03647  21867170.579    21867170.558    21867180.759
       238.000         203.000
  11975715.35049   9326871.48946  24072467.681    24072467.331    24072484.664
       217.000         166.000
  -5375324.99449  -4174527.05646  23464630.121    23464630.209    23464643.932
       228.000         179.000
 -13796880.98749 -10727263.97146  22259616.252    22259617.698    22259632.321
       227.000         185.000
   -860582.19249   -644607.26845  24784895.265    24784893.540    24784914.365
       215.000         148.000
 -12654917.17949  -9845577.42447  20541888.775    20541888.617    20541898.683
       235.000         207.000
  15333723.99049  11951377.61946  23342436.847    23342436.665    23342453.364
       216.000         165.000
 -11765459.77549  -9141329.84946  23064748.299    23064749.056    23064764.098
       227.000         178.000
   3708123.25749   2903407.05745  25141999.831    25142000.383    25142018.347
       208.000         146.000
 01 12 19 22 34  0.0000000  0  9G28G 2G26G 4G24G 7G 8G 9G11
   3428737.36649   2676173.25447  21875231.757    21875231.756    21875242.008
       239.000         203.000
  12036827.35849   9374491.12246  24084097.159    24084096.699    24084114.082
       219.000         163.000
  -5317207.94949  -4129241.14846  23475689.410    23475689.582    23475703.340
       227.000         176.000
 -13891822.21649 -10801243.96246  22241549.435    22241550.829    22241565.368
       228.000         186.000
   -971630.05049   -731137.07445  24763762.735    24763760.683    24763782.481
       213.000         142.000
 -12633054.07849  -9828541.24247  20546049.186    20546049.043    20546059.110
       235.000         207.000
  15439652.70649  12033919.31646  23362594.537    23362594.345    23362611.032
       217.000         166.000
 -11856884.04449  -9212569.32246  23047350.716    23047351.471    23047366.416
       230.000         180.000
   3789550.53949   2966856.86645  25157495.250    25157495.517    25157513.525
       208.000         145.000
 01 12 19 22 34 30.0000000  0  9G28G 2G26G 4G24G 7G 8G 9G11
   3471329.72949   2709362.07547  21883336.888    21883336.866    21883347.133
       240.000         204.000
  12098128.73849   9422258.32045  24095762.796    24095762.135    24095779.435
       218.000         162.000
  -5258726.51849  -4083671.30146  23486817.849    23486818.198    23486832.085
       224.000         175.000
 -13986432.08849 -10874965.75346  22223545.789    22223547.058    22223561.470
       230.000         186.000
  -1082678.62849   -817667.40245  24742629.217    24742627.463    24742650.635
       203.000         143.000
 -12610829.38849  -9811223.29647  20550278.425    20550278.276    20550288.343
       235.000         207.000
  15545814.87549  12116642.92046  23382796.787    23382796.509    23382813.104
       219.000         166.000
 -11947988.54849  -9283559.63146  23030014.038    23030014.768    23030029.599
       229.000         181.000
   3871312.59849   3030567.52145  25173054.106    25173054.314    25173072.505
       203.000         145.000
 01 12 19 22 35  0.0000000  0  9G28G 2G26G 4G24G 7G 8G 9G11
   3514141.29249   2742721.69047  21891483.833    21891483.723    21891493.972
       240.000         204.000
  12159607.96249   9470164.08345  24107462.345    24107461.463    24107478.593
       220.000         162.000
  -5199895.18049  -4037828.80846  23498012.858    23498013.370    23498027.341
       225.000         175.000
 -14080719.23649 -10948436.09346  22205603.489    22205604.687    22205619.025
       230.000         186.000
  -1193737.26358   -904205.58455  24721492.057    24721492.351    24721516.686
       174.000         143.000
 -12588256.56649  -9793634.08347  20554573.906    20554573.743    20554583.820
       236.000         207.000
  15652196.56649  12199537.57946  23403040.875    23403040.470    23403056.924
       219.000         166.000
 -12038782.45549  -9354307.92446  23012736.428    23012737.124    23012751.903
       230.000         182.000
   3953395.15149   3094527.92845  25188674.019    25188674.157    25188692.515
       205.000         143.000
 01 12 19 22 35 30.0000000  0  9G28G 2G26G 4G24G 7G 8G 9G11
   3557146.02149   2776231.83247  21899667.453    21899667.308    21899677.550
       238.000         203.000
  12221238.97449   9518188.13145  24119190.826    24119189.714    24119206.673
       218.000         159.000
  -5140743.37049  -3991736.58246  23509268.975    23509269.565    23509283.555
       225.000         176.000
 -14174706.96049 -11021673.11546  22187718.029    22187719.258    22187733.580
       229.000         186.000
  -1304829.88858   -990770.22655  24700349.392    24700351.014    24700375.895
       194.000         142.000
 -12565363.36649  -9775795.22547  20558930.332    20558930.170    20558940.279
       235.000         208.000
  15758769.16349  12282580.98746  23423321.198    23423320.750    23423337.086
       218.000         164.000
 -12129289.40549  -9424832.60246  22995513.389    22995514.092    22995528.827
       228.000         181.000
   4035769.50249   3158715.74545  25204349.748    25204349.520    25204367.993
       205.000         144.000
 01 12 19 22 36  0.0000000  0  9G28G 2G26G 4G24G 7G 8G 9G11
   3600360.00349   2809905.03047  21907890.698    21907890.640    21907900.926
       237.000         201.000
  12283038.21949   9566343.26545  24130951.355    24130949.942    24130966.689
       218.000         156.000
  -5081257.46749  -3945384.03746  23520588.882    23520589.402    23520603.375
       226.000         177.000
 -14268376.18249 -11094661.97146  22169893.169    22169894.430    22169908.724
       228.000         185.000
  -1415937.87949  -1077346.84145  24679206.397    24679207.115    24679232.306
       207.000         146.000
 -12542135.27849  -9757695.42847  20563350.455    20563350.307    20563360.447
       235.000         208.000
  15865546.78649  12365784.15546  23443640.573    23443640.021    23443656.249
       219.000         164.000
 -12219490.89249  -9495119.26746  22978348.332    22978349.145    22978363.861
       228.000         180.000
   4118449.42649   3223141.64945  25220083.706    25220083.062    25220101.679
       202.000         143.000
 01 12 19 22 36 30.0000000  0  9G28G 2G26G 4G24G 7G 8G 9G11
   3643773.92149   2843734.02447  21916151.961    21916152.022    21916162.339
       238.000         200.000
  12344996.03449   9614621.97445  24142742.038    24142740.370    24142756.876
       220.000         155.000
  -5021450.13049  -3898781.01646  23531969.972    23531970.426    23531984.433
       228.000         178.000
 -14361733.22149 -11167407.55946  22152127.814    22152129.033    22152143.204
       232.000         185.000
  -1527068.12049  -1163940.79045  24658059.949    24658059.645    24658084.724
       216.000         151.000
 -12518583.48849  -9739343.39247  20567832.231    20567832.081    20567842.186
       236.000         207.000
  15972517.48149  12449137.76646  23463996.653    23463996.054    23464012.217
       220.000         163.000
 -12309394.16049  -9565173.55946  22961240.101    22961240.943    22961255.638
       229.000         180.000
   4201422.84549   3287796.26345  25235873.990    25235872.408    25235891.164
       205.000         142.000
 01 12 19 22 37  0.0000000  0  9G28G 2G26G 4G24G 7G 8G 9G11
   3687402.35249   2877730.17147  21924454.205    21924454.255    21924464.579
       239.000         200.000
  12407126.93949   9663035.53945  24154565.575    24154563.695    24154580.033
       218.000         154.000
  -4961309.96049  -3851918.64046  23543414.436    23543414.797    23543428.892
       229.000         180.000
 -14454760.83649 -11239896.44546  22134425.232    22134426.364    22134440.350
       231.000         186.000
  -1638204.01149  -1250539.19545  24636912.291    24636911.505    24636936.189
       223.000         155.000
 -12494695.19549  -9720729.13947  20572378.094    20572377.918    20572387.946
       237.000         208.000
  16079693.41349  12532651.30246  23484391.940    23484391.183    23484407.262
       221.000         164.000
 -12398982.50449  -9634982.45246  22944191.842    22944192.682    22944207.319
       228.000         179.000
   4284701.81049   3352688.96745  25251722.417    25251720.083    25251738.797
       207.000         142.000
 01 12 19 22 37 30.0000000  0  9G28G 2G26G 4G24G 7G 8G 9G11
   3731213.73949   2911868.88847  21932791.364    21932791.346    21932801.613
       238.000         200.000
  12469399.07349   9711559.16445  24166415.699    24166413.844    24166430.057
       216.000         154.000
  -4900871.51449  -3804823.85446  23554915.576    23554915.924    23554930.095
       227.000         181.000
 -14547487.80949 -11312151.08046  22116779.797    22116780.896    22116794.718
       229.000         185.000
  -1749374.48549  -1337164.59745  24615757.571    24615756.742    24615781.088
       223.000         157.000
 -12470503.92549  -9701878.80547  20576981.591    20576981.394    20576991.357
       236.000         208.000
  16187040.61049  12616298.29346  23504819.769    23504818.879    23504834.945
       218.000         164.000
 -12488285.21849  -9704568.78346  22927197.961    22927198.767    22927213.300
       226.000         180.000
   4368251.95449   3417792.99245  25267621.932    25267619.366    25267637.920
       203.000         137.000
 01 12 19 22 38  0.0000000  0  9G28G 2G26G 4G24G 7G 8G 9G11
   3775227.35249   2946165.18047  21941166.964    21941166.907    21941177.140
       238.000         200.000
  12531831.83349   9760207.95745  24178296.213    24178294.484    24178310.767
       218.000         155.000
  -4840118.39049  -3757483.86146  23566476.602    23566476.926    23566491.170
       228.000         182.000
 -14639891.94349 -11384154.16046  22099195.754    22099196.839    22099210.591
       232.000         186.000
  -1860557.77949  -1423800.05545  24594599.786    24594599.154    24594623.163
       216.000         151.000
 -12445992.00449  -9682778.61947  20581646.046    20581645.866    20581655.818
       236.000         208.000
  16294575.99849  12700091.92546  23525283.318    23525282.388    23525298.437
       220.000         163.000
 -12577280.48549  -9773915.54946  22910262.562    22910263.352    22910277.798
       227.000         180.000
   4452089.96449   3483121.37644  25283575.882    25283573.294    25283591.863
       199.000         127.000
 01 12 19 22 38 30.0000000  0  9G28G 2G26G 4G24G 7G 8G 9G11
   3819425.01349   2980604.88147  21949577.479    21949577.443    21949587.730
       237.000         199.000
  12594406.94249   9808967.64545  24190203.637    24190202.135    24190218.552
       220.000         157.000
  -4779072.13649  -3709915.45446  23578093.403    23578093.721    23578107.978
       230.000         181.000
 -14731988.44649 -11455917.52847  22081670.324    22081671.363    22081685.030
       233.000         188.000
  -1971769.80349  -1510457.92945  24573435.406    24573435.327    24573458.845
       209.000         142.000
 -12421179.41649  -9663444.14647  20586367.722    20586367.541    20586377.520
       237.000         208.000
  16402278.89649  12784016.08446  23545778.671    23545777.744    23545793.818
       220.000         164.000
 -12665984.40349  -9843035.29146  22893382.595    22893383.407    22893397.756
       230.000         182.000
   4536195.08749   3548657.88244  25299580.867    25299577.943    25299596.778
       199.000         126.000
 01 12 19 22 39  0.0000000  0  9G28G 2G26G 4G24G 7G 8G 9G11
   3863837.09049   3015211.66547  21958028.783    21958028.769    21958039.143
       237.000         199.000
  12657154.67149   9857861.88045  24202143.927    24202142.687    24202159.246
       220.000         160.000
  -4717705.34649  -3662097.26846  23589771.204    23589771.481    23589785.813
       229.000         181.000
 -14823744.23549 -11527415.39247  22064209.804    22064210.793    22064224.285
       233.000         189.000
  -2082977.30249  -1597112.32445  24552270.455    24552271.752    24552294.808
       199.000         140.000
 -12396037.55649  -9643853.09647  20591152.063    20591151.888    20591161.865
       237.000         208.000
  16510177.08949  12868092.42946  23566311.120    23566310.241    23566326.410
       218.000         164.000
 -12754364.32749  -9911902.56646  22876564.378    22876565.142    22876579.408
       230.000         182.000
   4620595.10949   3614424.20044  25315641.909    25315638.976    25315658.217
       196.000         126.000
 01 12 19 22 39 30.0000000  0  8G28G 2G26G 4G24G 7G 8G 9
   3908460.23049   3049982.90447  21966520.225    21966520.263    21966530.705
       235.000         198.000
  12720071.61049   9906887.94545  24214116.275    24214115.375    24214132.220
       218.000         161.000
  -4656024.53349  -3614034.40146  23601508.754    23601509.024    23601523.431
       227.000         181.000
 -14915159.84049 -11598648.18747  22046814.072    22046814.933    22046828.254
       232.000         189.000
  -2194181.86148  -1683764.53145  24531105.426    24531108.634    24531131.624
       192.000         137.000
 -12370571.62849  -9624009.52647  20595998.124    20595997.910    20596007.892
       235.000         208.000
  16618264.91849  12952316.54046  23586879.682    23586878.837    23586895.051
       216.000         163.000
 -12842421.24949  -9980518.16146  22859807.591    22859808.317    22859822.530
       229.000         184.000
 01 12 19 22 40  0.0000000  0  8G28G 2G26G 4G24G 7G 8G 9
   3953294.46849   3084918.62847  21975051.864    21975051.943    21975062.443
       237.000         198.000
  12783157.72649   9956045.85345  24226120.953    24226120.232    24226137.297
       220.000         162.000
  -4594032.71249  -3565729.18246  23613305.459    23613305.751    23613320.255
       227.000         179.000
 -15006232.48049 -11669613.72947  22029483.500    22029484.321    22029497.458
       235.000         189.000
  -2305380.67949  -1770412.28145  24509944.244    24509947.106    24509970.074
       215.000         147.000
 -12344783.26149  -9603914.70647  20600905.506    20600905.276    20600915.291
       237.000         208.000
  16726540.03849  13036686.57946  23607483.941    23607483.108    23607499.349
       217.000         163.000
 -12930152.93649 -10048880.32346  22843112.669    22843113.391    22843127.544
       231.000         184.000
 01 12 19 22 40 30.0000000  0  8G28G 2G26G 4G24G 7G 8G 9
   3998324.40649   3120006.84247  21983620.833    21983620.886    21983631.396
       238.000         198.000
  12846397.43249  10005323.41945  24238154.851    24238154.353    24238171.691
       219.000         162.000
  -4531748.50149  -3517196.13746  23625157.867    23625158.135    23625172.695
       227.000         179.000
 -15096974.74449 -11740321.85347  22012215.779    22012216.536    22012229.588
       233.000         191.000
  -2416586.78549  -1857065.71745  24488783.193    24488784.724    24488808.302
       214.000         152.000
 -12318689.84249  -9583582.18647  20605870.935    20605870.706    20605880.732
       236.000         208.000
  16834984.53649  13121188.60045  23628120.340    23628119.572    23628135.813
       217.000         162.000
 -13017572.49149 -10116999.27146  22826477.165    22826477.861    22826491.915
       229.000         183.000
